<?xml version='1.0' encoding='UTF-8'?><gpx version="1.1" creator="JPX - https://github.com/jenetics/jpx" xmlns="http://www.topografix.com/GPX/1/1"><trk><trkseg><trkpt lat="43.8939157" lon="11.2404183"><ele>561.0</ele><time>2026-04-18T15:39:11.172Z</time></trkpt><trkpt lat="43.893831" lon="11.2404376"><ele>561.0</ele><time>2026-04-18T15:39:14.156Z</time></trkpt><trkpt lat="43.8937814" lon="11.2402896"><ele>561.0</ele><time>2026-04-18T15:39:16.185Z</time></trkpt><trkpt lat="43.8937453" lon="11.2401143"><ele>561.0</ele><time>2026-04-18T15:39:18.181Z</time></trkpt><trkpt lat="43.8937215" lon="11.2400106"><ele>561.0</ele><time>2026-04-18T15:39:19.167Z</time></trkpt><trkpt lat="43.8937232" lon="11.2398742"><ele>560.1666666666666</ele><time>2026-04-18T15:39:21.176Z</time></trkpt><trkpt lat="43.8936769" lon="11.2397419"><ele>559.3333333333334</ele><time>2026-04-18T15:40:58.196Z</time></trkpt><trkpt lat="43.8936245" lon="11.239627"><ele>558.5</ele><time>2026-04-18T15:40:59.202Z</time></trkpt><trkpt lat="43.8935769" lon="11.2395227"><ele>557.6666666666667</ele><time>2026-04-18T15:41:00.182Z</time></trkpt><trkpt lat="43.8935501" lon="11.2394158"><ele>556.8333333333334</ele><time>2026-04-18T15:41:01.187Z</time></trkpt><trkpt lat="43.8935389" lon="11.2393232"><ele>556.0</ele><time>2026-04-18T15:41:02.185Z</time></trkpt><trkpt lat="43.8935183" lon="11.239144"><ele>556.0</ele><time>2026-04-18T15:41:04.186Z</time></trkpt><trkpt lat="43.8935067" lon="11.2390237"><ele>556.0</ele><time>2026-04-18T15:41:05.187Z</time></trkpt><trkpt lat="43.8934968" lon="11.2389106"><ele>556.0</ele><time>2026-04-18T15:41:06.184Z</time></trkpt><trkpt lat="43.8934983" lon="11.238819"><ele>556.0</ele><time>2026-04-18T15:41:07.178Z</time></trkpt><trkpt lat="43.8934916" lon="11.2387287"><ele>556.0</ele><time>2026-04-18T15:41:08.176Z</time></trkpt><trkpt lat="43.8934748" lon="11.2386333"><ele>556.0</ele><time>2026-04-18T15:41:09.187Z</time></trkpt><trkpt lat="43.8934523" lon="11.238549"><ele>556.0</ele><time>2026-04-18T15:41:10.188Z</time></trkpt><trkpt lat="43.8934245" lon="11.2384429"><ele>560.3333333333334</ele><time>2026-04-18T15:41:11.186Z</time></trkpt><trkpt lat="43.8933994" lon="11.2383201"><ele>564.6666666666667</ele><time>2026-04-18T15:41:12.183Z</time></trkpt><trkpt lat="43.8933721" lon="11.2382001"><ele>569.0</ele><time>2026-04-18T15:41:13.185Z</time></trkpt><trkpt lat="43.8933527" lon="11.2380957"><ele>573.3333333333334</ele><time>2026-04-18T15:41:14.179Z</time></trkpt><trkpt lat="43.8933543" lon="11.2380062"><ele>577.6666666666666</ele><time>2026-04-18T15:41:39.182Z</time></trkpt><trkpt lat="43.8933356" lon="11.2379101"><ele>582.0</ele><time>2026-04-18T15:41:57.19Z</time></trkpt><trkpt lat="43.8933008" lon="11.2377938"><ele>582.0</ele><time>2026-04-18T15:41:59.19Z</time></trkpt><trkpt lat="43.8932772" lon="11.2376589"><ele>582.0</ele><time>2026-04-18T15:42:01.209Z</time></trkpt><trkpt lat="43.8932404" lon="11.2375549"><ele>582.0</ele><time>2026-04-18T15:42:03.184Z</time></trkpt><trkpt lat="43.8931984" lon="11.2374709"><ele>582.0</ele><time>2026-04-18T15:42:05.199Z</time></trkpt><trkpt lat="43.8932624" lon="11.2375352"><ele>582.0</ele><time>2026-04-18T15:42:43.188Z</time></trkpt><trkpt lat="43.8932874" lon="11.2376391"><ele>582.0</ele><time>2026-04-18T15:42:45.189Z</time></trkpt><trkpt lat="43.8932857" lon="11.2377375"><ele>582.0</ele><time>2026-04-18T15:42:47.187Z</time></trkpt><trkpt lat="43.8932843" lon="11.2378624"><ele>582.0</ele><time>2026-04-18T15:42:50.184Z</time></trkpt><trkpt lat="43.8933132" lon="11.237957"><ele>582.0</ele><time>2026-04-18T15:42:52.178Z</time></trkpt><trkpt lat="43.8933414" lon="11.2380969"><ele>582.0</ele><time>2026-04-18T15:42:55.183Z</time></trkpt><trkpt lat="43.8933566" lon="11.2381902"><ele>582.0</ele><time>2026-04-18T15:42:57.181Z</time></trkpt><trkpt lat="43.8933715" lon="11.2382807"><ele>582.0</ele><time>2026-04-18T15:42:59.179Z</time></trkpt><trkpt lat="43.8934151" lon="11.2384437"><ele>577.6666666666666</ele><time>2026-04-18T15:43:01.184Z</time></trkpt><trkpt lat="43.8934434" lon="11.2385522"><ele>573.3333333333334</ele><time>2026-04-18T15:43:02.193Z</time></trkpt><trkpt lat="43.8934745" lon="11.2386583"><ele>569.0</ele><time>2026-04-18T15:43:03.175Z</time></trkpt><trkpt lat="43.8935001" lon="11.2387538"><ele>564.6666666666667</ele><time>2026-04-18T15:43:04.165Z</time></trkpt><trkpt lat="43.8935126" lon="11.2388411"><ele>560.3333333333334</ele><time>2026-04-18T15:43:05.172Z</time></trkpt><trkpt lat="43.8935225" lon="11.2389387"><ele>556.0</ele><time>2026-04-18T15:43:06.173Z</time></trkpt><trkpt lat="43.8935233" lon="11.2390603"><ele>556.0</ele><time>2026-04-18T15:43:07.174Z</time></trkpt><trkpt lat="43.8935238" lon="11.2391505"><ele>556.0</ele><time>2026-04-18T15:43:08.172Z</time></trkpt><trkpt lat="43.8935443" lon="11.2392409"><ele>556.0</ele><time>2026-04-18T15:43:10.175Z</time></trkpt><trkpt lat="43.8935295" lon="11.2393313"><ele>556.0</ele><time>2026-04-18T15:43:12.166Z</time></trkpt><trkpt lat="43.8935633" lon="11.239511"><ele>556.0</ele><time>2026-04-18T15:43:14.182Z</time></trkpt><trkpt lat="43.8935934" lon="11.239592"><ele>556.0</ele><time>2026-04-18T15:43:15.179Z</time></trkpt><trkpt lat="43.8936347" lon="11.2396691"><ele>556.0</ele><time>2026-04-18T15:43:16.18Z</time></trkpt><trkpt lat="43.8936675" lon="11.239748"><ele>556.0</ele><time>2026-04-18T15:43:17.181Z</time></trkpt><trkpt lat="43.8937138" lon="11.2398076"><ele>556.0</ele><time>2026-04-18T15:43:19.191Z</time></trkpt><trkpt lat="43.8937299" lon="11.2399055"><ele>556.0</ele><time>2026-04-18T15:43:54.197Z</time></trkpt><trkpt lat="43.8937159" lon="11.2400564"><ele>556.0</ele><time>2026-04-18T15:43:57.197Z</time></trkpt><trkpt lat="43.8937367" lon="11.2402213"><ele>556.0</ele><time>2026-04-18T15:43:59.182Z</time></trkpt><trkpt lat="43.8937705" lon="11.2403297"><ele>557.0</ele><time>2026-04-18T15:44:00.185Z</time></trkpt><trkpt lat="43.893811" lon="11.240463"><ele>558.0</ele><time>2026-04-18T15:44:01.178Z</time></trkpt><trkpt lat="43.8938383" lon="11.2406013"><ele>559.0</ele><time>2026-04-18T15:44:02.192Z</time></trkpt><trkpt lat="43.8938696" lon="11.2407324"><ele>560.0</ele><time>2026-04-18T15:44:03.186Z</time></trkpt><trkpt lat="43.8938943" lon="11.2408663"><ele>561.0</ele><time>2026-04-18T15:44:04.197Z</time></trkpt><trkpt lat="43.8939236" lon="11.2409826"><ele>561.6666666666666</ele><time>2026-04-18T15:44:05.178Z</time></trkpt><trkpt lat="43.8939464" lon="11.2410918"><ele>562.3333333333334</ele><time>2026-04-18T15:44:06.186Z</time></trkpt><trkpt lat="43.8939905" lon="11.2411967"><ele>563.0</ele><time>2026-04-18T15:44:07.187Z</time></trkpt><trkpt lat="43.8940238" lon="11.2412962"><ele>563.6666666666667</ele><time>2026-04-18T15:44:08.181Z</time></trkpt><trkpt lat="43.8940558" lon="11.2414046"><ele>564.3333333333334</ele><time>2026-04-18T15:44:09.197Z</time></trkpt><trkpt lat="43.894068" lon="11.2415007"><ele>565.0</ele><time>2026-04-18T15:44:10.187Z</time></trkpt><trkpt lat="43.8940941" lon="11.2415988"><ele>565.1666666666667</ele><time>2026-04-18T15:44:11.183Z</time></trkpt><trkpt lat="43.8941288" lon="11.2416854"><ele>565.3333333333334</ele><time>2026-04-18T15:44:12.179Z</time></trkpt><trkpt lat="43.894173" lon="11.2417709"><ele>565.5</ele><time>2026-04-18T15:44:13.182Z</time></trkpt><trkpt lat="43.8941819" lon="11.2418671"><ele>565.6666666666666</ele><time>2026-04-18T15:44:14.183Z</time></trkpt><trkpt lat="43.8941833" lon="11.2419889"><ele>565.8333333333333</ele><time>2026-04-18T15:44:15.174Z</time></trkpt><trkpt lat="43.8941605" lon="11.2421205"><ele>566.0</ele><time>2026-04-18T15:44:16.186Z</time></trkpt><trkpt lat="43.8941303" lon="11.2422221"><ele>566.1666666666666</ele><time>2026-04-18T15:44:17.181Z</time></trkpt><trkpt lat="43.8941025" lon="11.2423139"><ele>566.3333333333333</ele><time>2026-04-18T15:44:18.171Z</time></trkpt><trkpt lat="43.894003" lon="11.2424092"><ele>566.5</ele><time>2026-04-18T15:44:20.176Z</time></trkpt><trkpt lat="43.8939816" lon="11.2425464"><ele>566.6666666666666</ele><time>2026-04-18T15:44:22.17Z</time></trkpt><trkpt lat="43.8939997" lon="11.2426446"><ele>566.8333333333334</ele><time>2026-04-18T15:44:23.18Z</time></trkpt><trkpt lat="43.8940045" lon="11.2427479"><ele>567.0</ele><time>2026-04-18T15:44:24.185Z</time></trkpt><trkpt lat="43.8939944" lon="11.2428437"><ele>567.0</ele><time>2026-04-18T15:44:25.186Z</time></trkpt><trkpt lat="43.8939945" lon="11.2429955"><ele>567.0</ele><time>2026-04-18T15:44:27.193Z</time></trkpt><trkpt lat="43.894045" lon="11.2431436"><ele>567.0</ele><time>2026-04-18T15:44:29.188Z</time></trkpt><trkpt lat="43.8940848" lon="11.2432123"><ele>567.0</ele><time>2026-04-18T15:44:30.188Z</time></trkpt><trkpt lat="43.894137" lon="11.2432675"><ele>567.0</ele><time>2026-04-18T15:44:31.18Z</time></trkpt><trkpt lat="43.8941779" lon="11.2433541"><ele>567.0</ele><time>2026-04-18T15:44:32.177Z</time></trkpt><trkpt lat="43.8942161" lon="11.2434472"><ele>568.6</ele><time>2026-04-18T15:44:33.183Z</time></trkpt><trkpt lat="43.8942555" lon="11.243542"><ele>570.2</ele><time>2026-04-18T15:44:34.171Z</time></trkpt><trkpt lat="43.8942973" lon="11.2436277"><ele>571.8</ele><time>2026-04-18T15:44:35.202Z</time></trkpt><trkpt lat="43.8943425" lon="11.2437061"><ele>573.4</ele><time>2026-04-18T15:44:36.176Z</time></trkpt><trkpt lat="43.8943754" lon="11.2437899"><ele>575.0</ele><time>2026-04-18T15:44:37.187Z</time></trkpt><trkpt lat="43.8943554" lon="11.2440104"><ele>575.0</ele><time>2026-04-18T15:44:39.17Z</time></trkpt><trkpt lat="43.8943442" lon="11.2441502"><ele>575.0</ele><time>2026-04-18T15:44:40.165Z</time></trkpt><trkpt lat="43.8943422" lon="11.244288"><ele>575.0</ele><time>2026-04-18T15:44:41.163Z</time></trkpt><trkpt lat="43.894335" lon="11.2444003"><ele>575.0</ele><time>2026-04-18T15:44:42.164Z</time></trkpt><trkpt lat="43.8943319" lon="11.2444953"><ele>575.0</ele><time>2026-04-18T15:44:43.167Z</time></trkpt><trkpt lat="43.8943217" lon="11.244595"><ele>575.0</ele><time>2026-04-18T15:44:44.175Z</time></trkpt><trkpt lat="43.8943143" lon="11.2446841"><ele>575.0</ele><time>2026-04-18T15:44:45.175Z</time></trkpt><trkpt lat="43.8943142" lon="11.244786"><ele>575.0</ele><time>2026-04-18T15:44:46.177Z</time></trkpt><trkpt lat="43.8943326" lon="11.2449052"><ele>575.0</ele><time>2026-04-18T15:44:47.183Z</time></trkpt><trkpt lat="43.8943618" lon="11.2450111"><ele>575.0</ele><time>2026-04-18T15:44:48.178Z</time></trkpt><trkpt lat="43.8944066" lon="11.2451245"><ele>575.0</ele><time>2026-04-18T15:44:49.177Z</time></trkpt><trkpt lat="43.894445" lon="11.2452428"><ele>575.0</ele><time>2026-04-18T15:44:50.176Z</time></trkpt><trkpt lat="43.8944644" lon="11.2453673"><ele>574.2</ele><time>2026-04-18T15:44:51.172Z</time></trkpt><trkpt lat="43.8944812" lon="11.2454837"><ele>573.4</ele><time>2026-04-18T15:44:52.168Z</time></trkpt><trkpt lat="43.8945055" lon="11.2455845"><ele>572.6</ele><time>2026-04-18T15:44:53.167Z</time></trkpt><trkpt lat="43.8945469" lon="11.2457478"><ele>571.8</ele><time>2026-04-18T15:44:55.162Z</time></trkpt><trkpt lat="43.8945512" lon="11.2458592"><ele>571.0</ele><time>2026-04-18T15:44:57.174Z</time></trkpt><trkpt lat="43.894614" lon="11.2459419"><ele>568.6</ele><time>2026-04-18T15:44:59.174Z</time></trkpt><trkpt lat="43.8947372" lon="11.2459897"><ele>566.2</ele><time>2026-04-18T15:45:01.167Z</time></trkpt><trkpt lat="43.8948128" lon="11.2459987"><ele>563.8</ele><time>2026-04-18T15:45:02.168Z</time></trkpt><trkpt lat="43.8948933" lon="11.2460389"><ele>561.4</ele><time>2026-04-18T15:45:03.173Z</time></trkpt><trkpt lat="43.8949767" lon="11.2460803"><ele>559.0</ele><time>2026-04-18T15:45:04.175Z</time></trkpt><trkpt lat="43.8950497" lon="11.2461112"><ele>559.0</ele><time>2026-04-18T15:45:05.169Z</time></trkpt><trkpt lat="43.8951195" lon="11.2461389"><ele>559.0</ele><time>2026-04-18T15:45:06.188Z</time></trkpt><trkpt lat="43.8951803" lon="11.2462035"><ele>559.0</ele><time>2026-04-18T15:45:07.168Z</time></trkpt><trkpt lat="43.8952393" lon="11.2462845"><ele>559.0</ele><time>2026-04-18T15:45:08.165Z</time></trkpt><trkpt lat="43.8952896" lon="11.2463834"><ele>559.0</ele><time>2026-04-18T15:45:09.163Z</time></trkpt><trkpt lat="43.8953258" lon="11.2465015"><ele>559.0</ele><time>2026-04-18T15:45:10.171Z</time></trkpt><trkpt lat="43.8953487" lon="11.2466308"><ele>559.0</ele><time>2026-04-18T15:45:11.171Z</time></trkpt><trkpt lat="43.8953757" lon="11.2467675"><ele>559.0</ele><time>2026-04-18T15:45:12.172Z</time></trkpt><trkpt lat="43.8953984" lon="11.2468784"><ele>559.0</ele><time>2026-04-18T15:45:13.17Z</time></trkpt><trkpt lat="43.8954081" lon="11.2469729"><ele>559.0</ele><time>2026-04-18T15:45:14.176Z</time></trkpt><trkpt lat="43.8953978" lon="11.247096"><ele>559.0</ele><time>2026-04-18T15:45:16.168Z</time></trkpt><trkpt lat="43.8952909" lon="11.2471934"><ele>559.0</ele><time>2026-04-18T15:45:18.167Z</time></trkpt><trkpt lat="43.8952334" lon="11.2472493"><ele>559.0</ele><time>2026-04-18T15:45:19.184Z</time></trkpt><trkpt lat="43.8951571" lon="11.2473551"><ele>559.0</ele><time>2026-04-18T15:45:21.176Z</time></trkpt><trkpt lat="43.895161" lon="11.2474975"><ele>559.0</ele><time>2026-04-18T15:45:23.182Z</time></trkpt><trkpt lat="43.8951826" lon="11.2476203"><ele>559.0</ele><time>2026-04-18T15:45:25.181Z</time></trkpt><trkpt lat="43.8952114" lon="11.2477193"><ele>559.0</ele><time>2026-04-18T15:45:27.175Z</time></trkpt><trkpt lat="43.8952862" lon="11.2477594"><ele>557.2</ele><time>2026-04-18T15:45:30.189Z</time></trkpt><trkpt lat="43.8953603" lon="11.2477076"><ele>555.4</ele><time>2026-04-18T15:45:32.179Z</time></trkpt><trkpt lat="43.8954616" lon="11.2476266"><ele>553.6</ele><time>2026-04-18T15:45:34.175Z</time></trkpt><trkpt lat="43.895556" lon="11.2475993"><ele>551.8</ele><time>2026-04-18T15:45:36.177Z</time></trkpt><trkpt lat="43.89564" lon="11.2476014"><ele>550.0</ele><time>2026-04-18T15:45:38.177Z</time></trkpt><trkpt lat="43.8957141" lon="11.2476125"><ele>550.0</ele><time>2026-04-18T15:45:40.177Z</time></trkpt><trkpt lat="43.8957918" lon="11.2476069"><ele>550.0</ele><time>2026-04-18T15:45:43.177Z</time></trkpt><trkpt lat="43.8958558" lon="11.2476136"><ele>550.0</ele><time>2026-04-18T15:45:45.171Z</time></trkpt><trkpt lat="43.8959554" lon="11.2476188"><ele>550.0</ele><time>2026-04-18T15:45:47.167Z</time></trkpt><trkpt lat="43.8960212" lon="11.24764"><ele>550.0</ele><time>2026-04-18T15:45:48.161Z</time></trkpt><trkpt lat="43.896092" lon="11.2476607"><ele>550.0</ele><time>2026-04-18T15:45:49.17Z</time></trkpt><trkpt lat="43.8961622" lon="11.2476942"><ele>549.5</ele><time>2026-04-18T15:45:50.163Z</time></trkpt><trkpt lat="43.8962185" lon="11.2477448"><ele>549.0</ele><time>2026-04-18T15:45:51.155Z</time></trkpt><trkpt lat="43.8962881" lon="11.247781"><ele>548.5</ele><time>2026-04-18T15:45:52.156Z</time></trkpt><trkpt lat="43.8963614" lon="11.2477906"><ele>548.0</ele><time>2026-04-18T15:45:53.164Z</time></trkpt><trkpt lat="43.8964284" lon="11.2478186"><ele>547.5</ele><time>2026-04-18T15:45:54.169Z</time></trkpt><trkpt lat="43.8965278" lon="11.2479118"><ele>547.0</ele><time>2026-04-18T15:45:56.173Z</time></trkpt><trkpt lat="43.8966128" lon="11.2480015"><ele>547.0</ele><time>2026-04-18T15:45:58.173Z</time></trkpt><trkpt lat="43.8966973" lon="11.2480634"><ele>547.0</ele><time>2026-04-18T15:46:00.186Z</time></trkpt><trkpt lat="43.8968095" lon="11.2481608"><ele>547.0</ele><time>2026-04-18T15:46:02.185Z</time></trkpt><trkpt lat="43.8968632" lon="11.248242"><ele>547.0</ele><time>2026-04-18T15:46:03.181Z</time></trkpt><trkpt lat="43.8969304" lon="11.2482939"><ele>547.0</ele><time>2026-04-18T15:46:04.183Z</time></trkpt><trkpt lat="43.8970402" lon="11.2483823"><ele>546.1428571428571</ele><time>2026-04-18T15:46:06.187Z</time></trkpt><trkpt lat="43.897099" lon="11.2484248"><ele>545.2857142857142</ele><time>2026-04-18T15:46:07.191Z</time></trkpt><trkpt lat="43.8971653" lon="11.2484814"><ele>544.4285714285714</ele><time>2026-04-18T15:46:08.208Z</time></trkpt><trkpt lat="43.8972241" lon="11.2485469"><ele>543.5714285714286</ele><time>2026-04-18T15:46:09.193Z</time></trkpt><trkpt lat="43.897262" lon="11.2486209"><ele>542.7142857142858</ele><time>2026-04-18T15:46:10.18Z</time></trkpt><trkpt lat="43.8973172" lon="11.2486698"><ele>541.8571428571429</ele><time>2026-04-18T15:46:12.193Z</time></trkpt><trkpt lat="43.8973892" lon="11.248678"><ele>541.0</ele><time>2026-04-18T15:46:16.181Z</time></trkpt><trkpt lat="43.89747" lon="11.2486806"><ele>541.0</ele><time>2026-04-18T15:46:19.188Z</time></trkpt><trkpt lat="43.8975432" lon="11.2486749"><ele>541.0</ele><time>2026-04-18T15:46:22.195Z</time></trkpt><trkpt lat="43.8976008" lon="11.2485745"><ele>541.0</ele><time>2026-04-18T15:46:51.197Z</time></trkpt><trkpt lat="43.8976786" lon="11.2485368"><ele>541.0</ele><time>2026-04-18T15:46:53.19Z</time></trkpt><trkpt lat="43.8977426" lon="11.248521"><ele>541.0</ele><time>2026-04-18T15:46:54.191Z</time></trkpt><trkpt lat="43.897813" lon="11.2484685"><ele>541.0</ele><time>2026-04-18T15:46:55.193Z</time></trkpt><trkpt lat="43.8978847" lon="11.2483933"><ele>540.2</ele><time>2026-04-18T15:46:56.189Z</time></trkpt><trkpt lat="43.8979444" lon="11.2483118"><ele>539.4000000000001</ele><time>2026-04-18T15:46:57.181Z</time></trkpt><trkpt lat="43.8980161" lon="11.248239"><ele>538.6</ele><time>2026-04-18T15:46:58.187Z</time></trkpt><trkpt lat="43.8980997" lon="11.2481819"><ele>537.8000000000001</ele><time>2026-04-18T15:46:59.183Z</time></trkpt><trkpt lat="43.8982018" lon="11.2481284"><ele>537.0</ele><time>2026-04-18T15:47:00.178Z</time></trkpt><trkpt lat="43.8982935" lon="11.248068"><ele>535.2</ele><time>2026-04-18T15:47:01.173Z</time></trkpt><trkpt lat="43.898397" lon="11.2480251"><ele>533.4000000000001</ele><time>2026-04-18T15:47:02.164Z</time></trkpt><trkpt lat="43.898484" lon="11.2479561"><ele>531.5999999999999</ele><time>2026-04-18T15:47:03.169Z</time></trkpt><trkpt lat="43.8985627" lon="11.2478691"><ele>529.8</ele><time>2026-04-18T15:47:04.174Z</time></trkpt><trkpt lat="43.8986359" lon="11.2477907"><ele>528.0</ele><time>2026-04-18T15:47:05.172Z</time></trkpt><trkpt lat="43.8987048" lon="11.2477285"><ele>525.6</ele><time>2026-04-18T15:47:06.179Z</time></trkpt><trkpt lat="43.8987734" lon="11.2476601"><ele>523.1999999999999</ele><time>2026-04-18T15:47:07.18Z</time></trkpt><trkpt lat="43.8988281" lon="11.2475928"><ele>520.8</ele><time>2026-04-18T15:47:08.179Z</time></trkpt><trkpt lat="43.8989364" lon="11.2475467"><ele>518.4</ele><time>2026-04-18T15:47:10.185Z</time></trkpt><trkpt lat="43.8990531" lon="11.2475969"><ele>516.0</ele><time>2026-04-18T15:47:12.185Z</time></trkpt><trkpt lat="43.8991629" lon="11.2476135"><ele>515.0</ele><time>2026-04-18T15:47:14.182Z</time></trkpt><trkpt lat="43.8992569" lon="11.2475402"><ele>514.0</ele><time>2026-04-18T15:47:16.189Z</time></trkpt><trkpt lat="43.8992796" lon="11.2474581"><ele>513.0</ele><time>2026-04-18T15:47:17.178Z</time></trkpt><trkpt lat="43.899311" lon="11.2473782"><ele>512.0</ele><time>2026-04-18T15:47:18.18Z</time></trkpt><trkpt lat="43.8993198" lon="11.2472216"><ele>511.0</ele><time>2026-04-18T15:47:20.181Z</time></trkpt><trkpt lat="43.8993436" lon="11.2471164"><ele>510.0</ele><time>2026-04-18T15:47:22.184Z</time></trkpt><trkpt lat="43.8994052" lon="11.247079"><ele>509.0</ele><time>2026-04-18T15:47:23.168Z</time></trkpt><trkpt lat="43.8994943" lon="11.247014"><ele>508.0</ele><time>2026-04-18T15:47:24.176Z</time></trkpt><trkpt lat="43.8995712" lon="11.2469083"><ele>507.0</ele><time>2026-04-18T15:47:25.173Z</time></trkpt><trkpt lat="43.8996378" lon="11.2468081"><ele>506.0</ele><time>2026-04-18T15:47:26.168Z</time></trkpt><trkpt lat="43.8996896" lon="11.2467282"><ele>505.0</ele><time>2026-04-18T15:47:27.177Z</time></trkpt><trkpt lat="43.8997341" lon="11.2466513"><ele>505.00000000000006</ele><time>2026-04-18T15:47:28.174Z</time></trkpt><trkpt lat="43.8997724" lon="11.2465807"><ele>505.0</ele><time>2026-04-18T15:47:29.185Z</time></trkpt><trkpt lat="43.8998537" lon="11.24647"><ele>505.0</ele><time>2026-04-18T15:47:31.179Z</time></trkpt><trkpt lat="43.8999337" lon="11.2463688"><ele>505.0</ele><time>2026-04-18T15:47:33.178Z</time></trkpt><trkpt lat="43.899994" lon="11.2462821"><ele>505.00000000000006</ele><time>2026-04-18T15:47:35.187Z</time></trkpt><trkpt lat="43.8999375" lon="11.2462199"><ele>505.0</ele><time>2026-04-18T15:47:51.182Z</time></trkpt><trkpt lat="43.899816" lon="11.2461526"><ele>503.6666666666667</ele><time>2026-04-18T15:47:53.185Z</time></trkpt><trkpt lat="43.8997409" lon="11.2460994"><ele>502.33333333333337</ele><time>2026-04-18T15:47:54.175Z</time></trkpt><trkpt lat="43.8996781" lon="11.2460631"><ele>501.0</ele><time>2026-04-18T15:47:55.178Z</time></trkpt><trkpt lat="43.8996141" lon="11.2460341"><ele>499.66666666666663</ele><time>2026-04-18T15:47:56.179Z</time></trkpt><trkpt lat="43.8995499" lon="11.245987"><ele>498.3333333333333</ele><time>2026-04-18T15:47:57.185Z</time></trkpt><trkpt lat="43.8994864" lon="11.2459475"><ele>497.0</ele><time>2026-04-18T15:47:58.177Z</time></trkpt><trkpt lat="43.8993905" lon="11.2458507"><ele>496.99999999999994</ele><time>2026-04-18T15:48:00.18Z</time></trkpt><trkpt lat="43.8993383" lon="11.2457675"><ele>497.0</ele><time>2026-04-18T15:48:01.181Z</time></trkpt><trkpt lat="43.8992989" lon="11.2456875"><ele>497.0</ele><time>2026-04-18T15:48:02.185Z</time></trkpt><trkpt lat="43.8992682" lon="11.2456049"><ele>497.0</ele><time>2026-04-18T15:48:03.178Z</time></trkpt><trkpt lat="43.899229" lon="11.2455046"><ele>496.99999999999994</ele><time>2026-04-18T15:48:04.186Z</time></trkpt><trkpt lat="43.8991698" lon="11.2453924"><ele>497.0</ele><time>2026-04-18T15:48:05.182Z</time></trkpt><trkpt lat="43.899119" lon="11.2453175"><ele>495.20000000000005</ele><time>2026-04-18T15:48:06.18Z</time></trkpt><trkpt lat="43.8990502" lon="11.2452219"><ele>493.40000000000003</ele><time>2026-04-18T15:48:07.179Z</time></trkpt><trkpt lat="43.8989876" lon="11.2451321"><ele>491.59999999999997</ele><time>2026-04-18T15:48:08.175Z</time></trkpt><trkpt lat="43.8989379" lon="11.2450416"><ele>489.79999999999995</ele><time>2026-04-18T15:48:09.185Z</time></trkpt><trkpt lat="43.8988848" lon="11.2449349"><ele>488.0</ele><time>2026-04-18T15:48:10.179Z</time></trkpt><trkpt lat="43.8988218" lon="11.2448204"><ele>486.16666666666663</ele><time>2026-04-18T15:48:11.189Z</time></trkpt><trkpt lat="43.8987669" lon="11.2447365"><ele>484.3333333333333</ele><time>2026-04-18T15:48:12.195Z</time></trkpt><trkpt lat="43.898717" lon="11.2446456"><ele>482.5</ele><time>2026-04-18T15:48:13.176Z</time></trkpt><trkpt lat="43.8986678" lon="11.2445705"><ele>480.66666666666663</ele><time>2026-04-18T15:48:14.182Z</time></trkpt><trkpt lat="43.898605" lon="11.244428"><ele>478.8333333333333</ele><time>2026-04-18T15:48:16.169Z</time></trkpt><trkpt lat="43.8985871" lon="11.2443401"><ele>477.0</ele><time>2026-04-18T15:48:17.173Z</time></trkpt><trkpt lat="43.8985936" lon="11.2442304"><ele>477.0</ele><time>2026-04-18T15:48:18.183Z</time></trkpt><trkpt lat="43.8986035" lon="11.2441029"><ele>477.0</ele><time>2026-04-18T15:48:19.174Z</time></trkpt><trkpt lat="43.898613" lon="11.2439803"><ele>477.0</ele><time>2026-04-18T15:48:20.179Z</time></trkpt><trkpt lat="43.8986164" lon="11.2438456"><ele>477.0</ele><time>2026-04-18T15:48:21.177Z</time></trkpt><trkpt lat="43.8986169" lon="11.2437261"><ele>477.0</ele><time>2026-04-18T15:48:22.179Z</time></trkpt><trkpt lat="43.8986191" lon="11.2436085"><ele>477.0</ele><time>2026-04-18T15:48:23.174Z</time></trkpt><trkpt lat="43.8986119" lon="11.2435026"><ele>475.8</ele><time>2026-04-18T15:48:24.166Z</time></trkpt><trkpt lat="43.8985775" lon="11.2433946"><ele>474.6</ele><time>2026-04-18T15:48:25.166Z</time></trkpt><trkpt lat="43.898531" lon="11.243285"><ele>473.40000000000003</ele><time>2026-04-18T15:48:26.167Z</time></trkpt><trkpt lat="43.8984776" lon="11.243202"><ele>472.20000000000005</ele><time>2026-04-18T15:48:27.171Z</time></trkpt><trkpt lat="43.8983936" lon="11.2431197"><ele>471.0</ele><time>2026-04-18T15:48:28.178Z</time></trkpt><trkpt lat="43.8983018" lon="11.243025"><ele>471.0</ele><time>2026-04-18T15:48:29.18Z</time></trkpt><trkpt lat="43.8982067" lon="11.242928"><ele>471.0</ele><time>2026-04-18T15:48:30.181Z</time></trkpt><trkpt lat="43.8981293" lon="11.2428284"><ele>471.0</ele><time>2026-04-18T15:48:31.18Z</time></trkpt><trkpt lat="43.898051" lon="11.2427177"><ele>471.0</ele><time>2026-04-18T15:48:32.176Z</time></trkpt><trkpt lat="43.8979741" lon="11.2426216"><ele>471.0</ele><time>2026-04-18T15:48:33.177Z</time></trkpt><trkpt lat="43.8978923" lon="11.2425346"><ele>471.0</ele><time>2026-04-18T15:48:34.169Z</time></trkpt><trkpt lat="43.8978199" lon="11.242466"><ele>471.0</ele><time>2026-04-18T15:48:35.164Z</time></trkpt><trkpt lat="43.89775" lon="11.2424235"><ele>471.0</ele><time>2026-04-18T15:48:36.17Z</time></trkpt><trkpt lat="43.8977092" lon="11.2423079"><ele>471.0</ele><time>2026-04-18T15:48:38.172Z</time></trkpt><trkpt lat="43.8977099" lon="11.2421598"><ele>471.0</ele><time>2026-04-18T15:48:39.163Z</time></trkpt><trkpt lat="43.8977064" lon="11.2419988"><ele>469.20000000000005</ele><time>2026-04-18T15:48:40.163Z</time></trkpt><trkpt lat="43.8976951" lon="11.2418474"><ele>467.40000000000003</ele><time>2026-04-18T15:48:41.161Z</time></trkpt><trkpt lat="43.8976867" lon="11.2417021"><ele>465.6</ele><time>2026-04-18T15:48:42.154Z</time></trkpt><trkpt lat="43.8976842" lon="11.2415644"><ele>463.8</ele><time>2026-04-18T15:48:43.172Z</time></trkpt><trkpt lat="43.8976795" lon="11.2414202"><ele>462.0</ele><time>2026-04-18T15:48:44.163Z</time></trkpt><trkpt lat="43.89769" lon="11.2412805"><ele>460.6</ele><time>2026-04-18T15:48:45.159Z</time></trkpt><trkpt lat="43.8976868" lon="11.2411359"><ele>459.20000000000005</ele><time>2026-04-18T15:48:46.154Z</time></trkpt><trkpt lat="43.8976796" lon="11.2409884"><ele>457.8</ele><time>2026-04-18T15:48:47.16Z</time></trkpt><trkpt lat="43.8976727" lon="11.2408402"><ele>456.4</ele><time>2026-04-18T15:48:48.16Z</time></trkpt><trkpt lat="43.8976663" lon="11.2407003"><ele>455.0</ele><time>2026-04-18T15:48:49.16Z</time></trkpt><trkpt lat="43.8976665" lon="11.2405797"><ele>454.5</ele><time>2026-04-18T15:48:50.158Z</time></trkpt><trkpt lat="43.8976804" lon="11.2404576"><ele>454.0</ele><time>2026-04-18T15:48:51.16Z</time></trkpt><trkpt lat="43.8977165" lon="11.2403313"><ele>453.5</ele><time>2026-04-18T15:48:52.153Z</time></trkpt><trkpt lat="43.8977913" lon="11.2401836"><ele>453.0</ele><time>2026-04-18T15:48:53.153Z</time></trkpt><trkpt lat="43.8978685" lon="11.2400232"><ele>453.0</ele><time>2026-04-18T15:48:54.154Z</time></trkpt><trkpt lat="43.8979314" lon="11.2398607"><ele>453.0</ele><time>2026-04-18T15:48:55.154Z</time></trkpt><trkpt lat="43.8979922" lon="11.2397031"><ele>453.0</ele><time>2026-04-18T15:48:56.151Z</time></trkpt><trkpt lat="43.8980486" lon="11.2395684"><ele>453.0</ele><time>2026-04-18T15:48:57.152Z</time></trkpt><trkpt lat="43.8980828" lon="11.2394542"><ele>453.4</ele><time>2026-04-18T15:48:58.154Z</time></trkpt><trkpt lat="43.8980992" lon="11.2393278"><ele>453.79999999999995</ele><time>2026-04-18T15:48:59.165Z</time></trkpt><trkpt lat="43.8981099" lon="11.2391783"><ele>454.2</ele><time>2026-04-18T15:49:00.161Z</time></trkpt><trkpt lat="43.8981317" lon="11.2390378"><ele>454.6</ele><time>2026-04-18T15:49:01.158Z</time></trkpt><trkpt lat="43.8981455" lon="11.2389147"><ele>455.0</ele><time>2026-04-18T15:49:02.162Z</time></trkpt><trkpt lat="43.898138" lon="11.2388153"><ele>453.0</ele><time>2026-04-18T15:49:03.158Z</time></trkpt><trkpt lat="43.8981061" lon="11.2387149"><ele>451.0</ele><time>2026-04-18T15:49:04.162Z</time></trkpt><trkpt lat="43.8980665" lon="11.2385915"><ele>449.0</ele><time>2026-04-18T15:49:05.168Z</time></trkpt><trkpt lat="43.8980182" lon="11.2384637"><ele>447.0</ele><time>2026-04-18T15:49:06.16Z</time></trkpt><trkpt lat="43.8979556" lon="11.2383503"><ele>445.0</ele><time>2026-04-18T15:49:07.17Z</time></trkpt><trkpt lat="43.8978816" lon="11.2382681"><ele>445.0</ele><time>2026-04-18T15:49:08.178Z</time></trkpt><trkpt lat="43.8978089" lon="11.2381989"><ele>445.0</ele><time>2026-04-18T15:49:09.176Z</time></trkpt><trkpt lat="43.8977223" lon="11.2381587"><ele>445.0</ele><time>2026-04-18T15:49:10.192Z</time></trkpt><trkpt lat="43.8976183" lon="11.2381441"><ele>445.0</ele><time>2026-04-18T15:49:11.179Z</time></trkpt><trkpt lat="43.8975166" lon="11.2381109"><ele>445.0</ele><time>2026-04-18T15:49:12.174Z</time></trkpt><trkpt lat="43.8974223" lon="11.238096"><ele>444.4</ele><time>2026-04-18T15:49:13.176Z</time></trkpt><trkpt lat="43.8973227" lon="11.238093"><ele>443.8</ele><time>2026-04-18T15:49:14.195Z</time></trkpt><trkpt lat="43.8972254" lon="11.2381255"><ele>443.20000000000005</ele><time>2026-04-18T15:49:15.173Z</time></trkpt><trkpt lat="43.8971294" lon="11.2381691"><ele>442.6</ele><time>2026-04-18T15:49:16.175Z</time></trkpt><trkpt lat="43.8970509" lon="11.2382097"><ele>442.0</ele><time>2026-04-18T15:49:17.17Z</time></trkpt><trkpt lat="43.8969557" lon="11.2382451"><ele>442.0</ele><time>2026-04-18T15:49:19.16Z</time></trkpt><trkpt lat="43.8969322" lon="11.2381086"><ele>442.0</ele><time>2026-04-18T15:49:21.155Z</time></trkpt><trkpt lat="43.8969454" lon="11.2379705"><ele>442.0</ele><time>2026-04-18T15:49:22.16Z</time></trkpt><trkpt lat="43.8969695" lon="11.2377947"><ele>442.0</ele><time>2026-04-18T15:49:23.151Z</time></trkpt><trkpt lat="43.8969874" lon="11.237592"><ele>442.0</ele><time>2026-04-18T15:49:24.146Z</time></trkpt><trkpt lat="43.8969877" lon="11.2373905"><ele>442.0</ele><time>2026-04-18T15:49:25.145Z</time></trkpt><trkpt lat="43.8969894" lon="11.2372109"><ele>442.0</ele><time>2026-04-18T15:49:26.151Z</time></trkpt><trkpt lat="43.8969859" lon="11.2370405"><ele>442.0</ele><time>2026-04-18T15:49:27.168Z</time></trkpt><trkpt lat="43.8969887" lon="11.2369036"><ele>438.83333333333337</ele><time>2026-04-18T15:49:28.162Z</time></trkpt><trkpt lat="43.8969908" lon="11.2368016"><ele>435.6666666666667</ele><time>2026-04-18T15:49:29.16Z</time></trkpt><trkpt lat="43.8969601" lon="11.2366391"><ele>432.5</ele><time>2026-04-18T15:49:31.159Z</time></trkpt><trkpt lat="43.8969282" lon="11.2365433"><ele>429.33333333333337</ele><time>2026-04-18T15:49:32.162Z</time></trkpt><trkpt lat="43.8968854" lon="11.2364711"><ele>426.1666666666667</ele><time>2026-04-18T15:49:33.162Z</time></trkpt><trkpt lat="43.8968481" lon="11.2363976"><ele>423.0</ele><time>2026-04-18T15:49:34.164Z</time></trkpt><trkpt lat="43.8968612" lon="11.2362403"><ele>421.8333333333333</ele><time>2026-04-18T15:49:36.168Z</time></trkpt><trkpt lat="43.8969014" lon="11.2361325"><ele>420.66666666666663</ele><time>2026-04-18T15:49:37.155Z</time></trkpt><trkpt lat="43.8969298" lon="11.2360342"><ele>419.5</ele><time>2026-04-18T15:49:38.155Z</time></trkpt><trkpt lat="43.8969514" lon="11.2359455"><ele>418.3333333333333</ele><time>2026-04-18T15:49:39.159Z</time></trkpt><trkpt lat="43.896958" lon="11.2358586"><ele>417.16666666666663</ele><time>2026-04-18T15:49:40.159Z</time></trkpt><trkpt lat="43.896929" lon="11.2357466"><ele>416.0</ele><time>2026-04-18T15:49:41.163Z</time></trkpt><trkpt lat="43.8968982" lon="11.2356317"><ele>415.16666666666663</ele><time>2026-04-18T15:49:42.168Z</time></trkpt><trkpt lat="43.8969029" lon="11.2355123"><ele>414.3333333333333</ele><time>2026-04-18T15:49:43.163Z</time></trkpt><trkpt lat="43.8969061" lon="11.2353893"><ele>413.5</ele><time>2026-04-18T15:49:44.173Z</time></trkpt><trkpt lat="43.8969143" lon="11.2352594"><ele>412.66666666666663</ele><time>2026-04-18T15:49:45.184Z</time></trkpt><trkpt lat="43.8969232" lon="11.2351467"><ele>411.8333333333333</ele><time>2026-04-18T15:49:46.167Z</time></trkpt><trkpt lat="43.8969337" lon="11.2350168"><ele>411.0</ele><time>2026-04-18T15:49:47.175Z</time></trkpt><trkpt lat="43.8969334" lon="11.2348882"><ele>408.8333333333333</ele><time>2026-04-18T15:49:48.163Z</time></trkpt><trkpt lat="43.89691" lon="11.2347595"><ele>406.66666666666663</ele><time>2026-04-18T15:49:49.177Z</time></trkpt><trkpt lat="43.8968908" lon="11.2346337"><ele>404.5</ele><time>2026-04-18T15:49:50.178Z</time></trkpt><trkpt lat="43.8968784" lon="11.2345294"><ele>402.3333333333333</ele><time>2026-04-18T15:49:51.179Z</time></trkpt><trkpt lat="43.8968451" lon="11.2344518"><ele>400.16666666666663</ele><time>2026-04-18T15:49:52.185Z</time></trkpt><trkpt lat="43.8967922" lon="11.2343965"><ele>398.0</ele><time>2026-04-18T15:49:53.179Z</time></trkpt><trkpt lat="43.8967335" lon="11.2343316"><ele>401.8333333333333</ele><time>2026-04-18T15:49:54.181Z</time></trkpt><trkpt lat="43.8966615" lon="11.2342819"><ele>405.66666666666663</ele><time>2026-04-18T15:49:55.177Z</time></trkpt><trkpt lat="43.8965957" lon="11.2342519"><ele>409.5</ele><time>2026-04-18T15:49:56.177Z</time></trkpt><trkpt lat="43.8965298" lon="11.2342257"><ele>413.33333333333337</ele><time>2026-04-18T15:49:57.177Z</time></trkpt><trkpt lat="43.896471" lon="11.234161"><ele>417.1666666666667</ele><time>2026-04-18T15:49:59.173Z</time></trkpt><trkpt lat="43.8964497" lon="11.2340423"><ele>421.0</ele><time>2026-04-18T15:50:01.172Z</time></trkpt><trkpt lat="43.8965092" lon="11.2338926"><ele>421.0</ele><time>2026-04-18T15:50:03.16Z</time></trkpt><trkpt lat="43.8965576" lon="11.2337749"><ele>421.0</ele><time>2026-04-18T15:50:04.175Z</time></trkpt><trkpt lat="43.8965923" lon="11.2336229"><ele>421.0</ele><time>2026-04-18T15:50:05.181Z</time></trkpt><trkpt lat="43.8966279" lon="11.2334769"><ele>421.0</ele><time>2026-04-18T15:50:06.177Z</time></trkpt><trkpt lat="43.8966747" lon="11.2333213"><ele>421.0</ele><time>2026-04-18T15:50:07.166Z</time></trkpt><trkpt lat="43.8967227" lon="11.233184"><ele>412.0</ele><time>2026-04-18T15:50:08.175Z</time></trkpt><trkpt lat="43.8967663" lon="11.2330405"><ele>403.0</ele><time>2026-04-18T15:50:09.174Z</time></trkpt><trkpt lat="43.896806" lon="11.2329099"><ele>394.0</ele><time>2026-04-18T15:50:10.175Z</time></trkpt><trkpt lat="43.8968337" lon="11.2327928"><ele>385.0</ele><time>2026-04-18T15:50:11.173Z</time></trkpt><trkpt lat="43.8968471" lon="11.2326681"><ele>376.0</ele><time>2026-04-18T15:50:12.181Z</time></trkpt><trkpt lat="43.8968629" lon="11.2325488"><ele>376.0</ele><time>2026-04-18T15:50:13.174Z</time></trkpt><trkpt lat="43.8968679" lon="11.2324432"><ele>376.0</ele><time>2026-04-18T15:50:14.179Z</time></trkpt><trkpt lat="43.8968702" lon="11.2323549"><ele>376.0</ele><time>2026-04-18T15:50:15.176Z</time></trkpt><trkpt lat="43.8968635" lon="11.2322569"><ele>376.0</ele><time>2026-04-18T15:50:16.186Z</time></trkpt><trkpt lat="43.8968356" lon="11.2321536"><ele>376.0</ele><time>2026-04-18T15:50:17.161Z</time></trkpt><trkpt lat="43.8967985" lon="11.2320453"><ele>376.0</ele><time>2026-04-18T15:50:18.168Z</time></trkpt><trkpt lat="43.8967513" lon="11.2319552"><ele>380.0</ele><time>2026-04-18T15:50:19.164Z</time></trkpt><trkpt lat="43.8966871" lon="11.2318727"><ele>384.0</ele><time>2026-04-18T15:50:20.178Z</time></trkpt><trkpt lat="43.8965904" lon="11.2317857"><ele>388.0</ele><time>2026-04-18T15:50:21.172Z</time></trkpt><trkpt lat="43.8965012" lon="11.2317088"><ele>392.0</ele><time>2026-04-18T15:50:22.174Z</time></trkpt><trkpt lat="43.8964137" lon="11.2316121"><ele>396.0</ele><time>2026-04-18T15:50:23.166Z</time></trkpt><trkpt lat="43.896326" lon="11.2315162"><ele>394.8333333333333</ele><time>2026-04-18T15:50:24.171Z</time></trkpt><trkpt lat="43.8962505" lon="11.2314383"><ele>393.66666666666663</ele><time>2026-04-18T15:50:25.157Z</time></trkpt><trkpt lat="43.8961909" lon="11.2313954"><ele>392.5</ele><time>2026-04-18T15:50:26.16Z</time></trkpt><trkpt lat="43.8961585" lon="11.2312962"><ele>391.3333333333333</ele><time>2026-04-18T15:50:28.165Z</time></trkpt><trkpt lat="43.8961931" lon="11.2311976"><ele>390.16666666666663</ele><time>2026-04-18T15:50:30.157Z</time></trkpt><trkpt lat="43.8962353" lon="11.2311218"><ele>389.0</ele><time>2026-04-18T15:50:31.149Z</time></trkpt><trkpt lat="43.8962882" lon="11.2310303"><ele>389.0</ele><time>2026-04-18T15:50:32.144Z</time></trkpt><trkpt lat="43.8963586" lon="11.2309235"><ele>389.0</ele><time>2026-04-18T15:50:33.145Z</time></trkpt><trkpt lat="43.8964256" lon="11.2307983"><ele>389.0</ele><time>2026-04-18T15:50:34.136Z</time></trkpt><trkpt lat="43.8964754" lon="11.230666"><ele>389.0</ele><time>2026-04-18T15:50:35.152Z</time></trkpt><trkpt lat="43.8965319" lon="11.2305477"><ele>389.0</ele><time>2026-04-18T15:50:36.152Z</time></trkpt><trkpt lat="43.8965967" lon="11.230429"><ele>389.3333333333333</ele><time>2026-04-18T15:50:37.151Z</time></trkpt><trkpt lat="43.8966431" lon="11.2303153"><ele>389.66666666666663</ele><time>2026-04-18T15:50:38.156Z</time></trkpt><trkpt lat="43.8966773" lon="11.2302024"><ele>390.0</ele><time>2026-04-18T15:50:39.153Z</time></trkpt><trkpt lat="43.8967082" lon="11.2300875"><ele>390.33333333333337</ele><time>2026-04-18T15:50:40.163Z</time></trkpt><trkpt lat="43.8967349" lon="11.2299808"><ele>390.6666666666667</ele><time>2026-04-18T15:50:41.163Z</time></trkpt><trkpt lat="43.8967391" lon="11.2298657"><ele>391.0</ele><time>2026-04-18T15:50:42.163Z</time></trkpt><trkpt lat="43.8967489" lon="11.2297392"><ele>387.1666666666667</ele><time>2026-04-18T15:50:43.172Z</time></trkpt><trkpt lat="43.8967631" lon="11.2296209"><ele>383.33333333333337</ele><time>2026-04-18T15:50:44.161Z</time></trkpt><trkpt lat="43.8967721" lon="11.2295311"><ele>379.5</ele><time>2026-04-18T15:50:45.169Z</time></trkpt><trkpt lat="43.8968599" lon="11.2294224"><ele>375.6666666666667</ele><time>2026-04-18T15:50:47.17Z</time></trkpt><trkpt lat="43.8969232" lon="11.2293931"><ele>371.83333333333337</ele><time>2026-04-18T15:50:48.16Z</time></trkpt><trkpt lat="43.8969959" lon="11.2293633"><ele>368.0</ele><time>2026-04-18T15:50:49.159Z</time></trkpt><trkpt lat="43.8970645" lon="11.229324"><ele>368.0</ele><time>2026-04-18T15:50:50.16Z</time></trkpt><trkpt lat="43.8971248" lon="11.2292721"><ele>368.0</ele><time>2026-04-18T15:50:51.155Z</time></trkpt><trkpt lat="43.8971956" lon="11.2291383"><ele>368.0</ele><time>2026-04-18T15:50:53.168Z</time></trkpt><trkpt lat="43.8972209" lon="11.2289776"><ele>368.0</ele><time>2026-04-18T15:50:55.177Z</time></trkpt><trkpt lat="43.8972334" lon="11.2288761"><ele>368.0</ele><time>2026-04-18T15:50:56.183Z</time></trkpt><trkpt lat="43.8972454" lon="11.2287745"><ele>368.33333333333337</ele><time>2026-04-18T15:50:57.178Z</time></trkpt><trkpt lat="43.8972362" lon="11.2286609"><ele>368.6666666666667</ele><time>2026-04-18T15:50:58.177Z</time></trkpt><trkpt lat="43.8972271" lon="11.2285498"><ele>369.0</ele><time>2026-04-18T15:50:59.179Z</time></trkpt><trkpt lat="43.8972196" lon="11.2284363"><ele>369.3333333333333</ele><time>2026-04-18T15:51:00.179Z</time></trkpt><trkpt lat="43.897195" lon="11.2283192"><ele>369.66666666666663</ele><time>2026-04-18T15:51:01.171Z</time></trkpt><trkpt lat="43.897166" lon="11.228225"><ele>370.0</ele><time>2026-04-18T15:51:02.164Z</time></trkpt><trkpt lat="43.8971456" lon="11.2281332"><ele>370.0</ele><time>2026-04-18T15:51:03.162Z</time></trkpt><trkpt lat="43.8971008" lon="11.2279707"><ele>370.0</ele><time>2026-04-18T15:51:05.146Z</time></trkpt><trkpt lat="43.8971575" lon="11.2278706"><ele>370.0</ele><time>2026-04-18T15:51:07.143Z</time></trkpt><trkpt lat="43.8972218" lon="11.2278161"><ele>370.0</ele><time>2026-04-18T15:51:08.15Z</time></trkpt><trkpt lat="43.8972911" lon="11.2277647"><ele>370.0</ele><time>2026-04-18T15:51:09.149Z</time></trkpt><trkpt lat="43.8973775" lon="11.2277073"><ele>370.0</ele><time>2026-04-18T15:51:10.149Z</time></trkpt><trkpt lat="43.8974613" lon="11.2276594"><ele>370.0</ele><time>2026-04-18T15:51:11.146Z</time></trkpt><trkpt lat="43.8975355" lon="11.2276047"><ele>370.0</ele><time>2026-04-18T15:51:12.145Z</time></trkpt><trkpt lat="43.8976057" lon="11.2275347"><ele>370.0</ele><time>2026-04-18T15:51:13.156Z</time></trkpt><trkpt lat="43.8976789" lon="11.2274753"><ele>370.0</ele><time>2026-04-18T15:51:14.154Z</time></trkpt><trkpt lat="43.897749" lon="11.2274088"><ele>370.0</ele><time>2026-04-18T15:51:15.162Z</time></trkpt><trkpt lat="43.8978226" lon="11.2273255"><ele>366.2</ele><time>2026-04-18T15:51:16.151Z</time></trkpt><trkpt lat="43.8978926" lon="11.2272383"><ele>362.4</ele><time>2026-04-18T15:51:17.16Z</time></trkpt><trkpt lat="43.8979469" lon="11.2271481"><ele>358.6</ele><time>2026-04-18T15:51:18.176Z</time></trkpt><trkpt lat="43.8980018" lon="11.2270517"><ele>354.8</ele><time>2026-04-18T15:51:19.155Z</time></trkpt><trkpt lat="43.8980614" lon="11.2269545"><ele>351.0</ele><time>2026-04-18T15:51:20.162Z</time></trkpt><trkpt lat="43.8981314" lon="11.226873"><ele>351.0</ele><time>2026-04-18T15:51:21.149Z</time></trkpt><trkpt lat="43.8982184" lon="11.2268202"><ele>351.0</ele><time>2026-04-18T15:51:22.155Z</time></trkpt><trkpt lat="43.8982931" lon="11.2267945"><ele>351.0</ele><time>2026-04-18T15:51:23.159Z</time></trkpt><trkpt lat="43.8983911" lon="11.2267727"><ele>351.0</ele><time>2026-04-18T15:51:24.161Z</time></trkpt><trkpt lat="43.8984839" lon="11.2267335"><ele>351.0</ele><time>2026-04-18T15:51:25.162Z</time></trkpt><trkpt lat="43.8985737" lon="11.2266947"><ele>347.6666666666667</ele><time>2026-04-18T15:51:26.159Z</time></trkpt><trkpt lat="43.8986639" lon="11.2266569"><ele>344.3333333333333</ele><time>2026-04-18T15:51:27.166Z</time></trkpt><trkpt lat="43.8987228" lon="11.2266186"><ele>341.0</ele><time>2026-04-18T15:51:28.161Z</time></trkpt><trkpt lat="43.8988191" lon="11.2265257"><ele>337.66666666666663</ele><time>2026-04-18T15:51:30.164Z</time></trkpt><trkpt lat="43.8988605" lon="11.2264568"><ele>334.3333333333333</ele><time>2026-04-18T15:51:31.165Z</time></trkpt><trkpt lat="43.898892" lon="11.2263804"><ele>331.0</ele><time>2026-04-18T15:51:32.164Z</time></trkpt><trkpt lat="43.8989218" lon="11.2262962"><ele>331.0</ele><time>2026-04-18T15:51:33.163Z</time></trkpt><trkpt lat="43.8989718" lon="11.226209"><ele>331.0</ele><time>2026-04-18T15:51:34.164Z</time></trkpt><trkpt lat="43.8990254" lon="11.2261076"><ele>331.0</ele><time>2026-04-18T15:51:36.163Z</time></trkpt><trkpt lat="43.8990902" lon="11.2260618"><ele>331.0</ele><time>2026-04-18T15:51:38.167Z</time></trkpt><trkpt lat="43.899183" lon="11.2260109"><ele>331.0</ele><time>2026-04-18T15:51:41.179Z</time></trkpt><trkpt lat="43.8992867" lon="11.2259801"><ele>331.0</ele><time>2026-04-18T15:51:43.172Z</time></trkpt><trkpt lat="43.8993934" lon="11.2259536"><ele>326.0</ele><time>2026-04-18T15:51:45.175Z</time></trkpt><trkpt lat="43.8994883" lon="11.2258991"><ele>321.0</ele><time>2026-04-18T15:51:47.175Z</time></trkpt><trkpt lat="43.8995641" lon="11.2257965"><ele>316.0</ele><time>2026-04-18T15:51:49.186Z</time></trkpt><trkpt lat="43.8996264" lon="11.2257177"><ele>311.0</ele><time>2026-04-18T15:51:51.175Z</time></trkpt><trkpt lat="43.899699" lon="11.225658"><ele>306.0</ele><time>2026-04-18T15:51:54.185Z</time></trkpt><trkpt lat="43.8997118" lon="11.225546"><ele>305.40000000000003</ele><time>2026-04-18T15:51:57.186Z</time></trkpt><trkpt lat="43.8996945" lon="11.2254367"><ele>304.8</ele><time>2026-04-18T15:52:00.181Z</time></trkpt><trkpt lat="43.8996271" lon="11.2253605"><ele>304.20000000000005</ele><time>2026-04-18T15:52:02.178Z</time></trkpt><trkpt lat="43.8995719" lon="11.2253066"><ele>303.6</ele><time>2026-04-18T15:52:03.177Z</time></trkpt><trkpt lat="43.8995344" lon="11.2251608"><ele>303.0</ele><time>2026-04-18T15:52:05.164Z</time></trkpt><trkpt lat="43.899569" lon="11.2249844"><ele>303.0</ele><time>2026-04-18T15:52:07.164Z</time></trkpt><trkpt lat="43.8995706" lon="11.2248786"><ele>303.0</ele><time>2026-04-18T15:52:08.164Z</time></trkpt><trkpt lat="43.8996053" lon="11.2247651"><ele>303.0</ele><time>2026-04-18T15:52:09.167Z</time></trkpt><trkpt lat="43.8996266" lon="11.2246641"><ele>303.0</ele><time>2026-04-18T15:52:10.165Z</time></trkpt><trkpt lat="43.8996412" lon="11.2245518"><ele>303.0</ele><time>2026-04-18T15:52:11.171Z</time></trkpt><trkpt lat="43.899649" lon="11.2244413"><ele>303.0</ele><time>2026-04-18T15:52:12.164Z</time></trkpt><trkpt lat="43.8996534" lon="11.22434"><ele>301.5</ele><time>2026-04-18T15:52:13.17Z</time></trkpt><trkpt lat="43.899654" lon="11.2242169"><ele>300.0</ele><time>2026-04-18T15:52:14.162Z</time></trkpt><trkpt lat="43.8996435" lon="11.2241106"><ele>298.5</ele><time>2026-04-18T15:52:15.16Z</time></trkpt><trkpt lat="43.8996285" lon="11.224004"><ele>297.0</ele><time>2026-04-18T15:52:16.163Z</time></trkpt><trkpt lat="43.8996123" lon="11.2239001"><ele>295.5</ele><time>2026-04-18T15:52:17.162Z</time></trkpt><trkpt lat="43.8996055" lon="11.2238046"><ele>294.0</ele><time>2026-04-18T15:52:18.158Z</time></trkpt><trkpt lat="43.8996063" lon="11.2236916"><ele>294.0</ele><time>2026-04-18T15:52:19.163Z</time></trkpt><trkpt lat="43.8996538" lon="11.2235809"><ele>294.0</ele><time>2026-04-18T15:52:20.175Z</time></trkpt><trkpt lat="43.8997065" lon="11.2234735"><ele>294.0</ele><time>2026-04-18T15:52:21.166Z</time></trkpt><trkpt lat="43.8997572" lon="11.2233618"><ele>294.0</ele><time>2026-04-18T15:52:22.165Z</time></trkpt><trkpt lat="43.8998098" lon="11.2232966"><ele>294.0</ele><time>2026-04-18T15:52:23.153Z</time></trkpt><trkpt lat="43.89988" lon="11.2232534"><ele>294.0</ele><time>2026-04-18T15:52:24.161Z</time></trkpt><trkpt lat="43.899983" lon="11.2232337"><ele>290.2</ele><time>2026-04-18T15:52:25.151Z</time></trkpt><trkpt lat="43.9000854" lon="11.2231974"><ele>286.4</ele><time>2026-04-18T15:52:26.151Z</time></trkpt><trkpt lat="43.9001729" lon="11.2231536"><ele>282.6</ele><time>2026-04-18T15:52:27.161Z</time></trkpt><trkpt lat="43.900248" lon="11.223092"><ele>278.8</ele><time>2026-04-18T15:52:28.166Z</time></trkpt><trkpt lat="43.9003151" lon="11.2230123"><ele>275.0</ele><time>2026-04-18T15:52:29.166Z</time></trkpt><trkpt lat="43.9003766" lon="11.2229225"><ele>275.0</ele><time>2026-04-18T15:52:30.165Z</time></trkpt><trkpt lat="43.9004243" lon="11.2228339"><ele>275.0</ele><time>2026-04-18T15:52:31.158Z</time></trkpt><trkpt lat="43.9004674" lon="11.2227403"><ele>275.0</ele><time>2026-04-18T15:52:32.161Z</time></trkpt><trkpt lat="43.9004989" lon="11.2226296"><ele>275.0</ele><time>2026-04-18T15:52:33.163Z</time></trkpt><trkpt lat="43.9005302" lon="11.2225255"><ele>275.0</ele><time>2026-04-18T15:52:34.161Z</time></trkpt><trkpt lat="43.9005557" lon="11.2224308"><ele>275.0</ele><time>2026-04-18T15:52:35.162Z</time></trkpt><trkpt lat="43.900589" lon="11.2223532"><ele>275.0</ele><time>2026-04-18T15:52:36.162Z</time></trkpt><trkpt lat="43.900685" lon="11.2222808"><ele>275.0</ele><time>2026-04-18T15:52:38.16Z</time></trkpt><trkpt lat="43.9007701" lon="11.2223197"><ele>275.0</ele><time>2026-04-18T15:52:39.156Z</time></trkpt><trkpt lat="43.9008466" lon="11.2223623"><ele>275.0</ele><time>2026-04-18T15:52:40.155Z</time></trkpt><trkpt lat="43.9009402" lon="11.2223594"><ele>275.0</ele><time>2026-04-18T15:52:42.156Z</time></trkpt><trkpt lat="43.9009965" lon="11.2223042"><ele>275.0</ele><time>2026-04-18T15:52:43.166Z</time></trkpt><trkpt lat="43.9010417" lon="11.2221891"><ele>276.0</ele><time>2026-04-18T15:52:44.154Z</time></trkpt><trkpt lat="43.9010903" lon="11.2220778"><ele>277.0</ele><time>2026-04-18T15:52:45.154Z</time></trkpt><trkpt lat="43.9011296" lon="11.2220018"><ele>278.0</ele><time>2026-04-18T15:52:46.153Z</time></trkpt><trkpt lat="43.9012007" lon="11.2219063"><ele>279.0</ele><time>2026-04-18T15:52:48.151Z</time></trkpt><trkpt lat="43.9012582" lon="11.2218497"><ele>280.0</ele><time>2026-04-18T15:52:49.155Z</time></trkpt><trkpt lat="43.9013506" lon="11.2217465"><ele>281.0</ele><time>2026-04-18T15:52:51.168Z</time></trkpt><trkpt lat="43.9014548" lon="11.2217003"><ele>281.0</ele><time>2026-04-18T15:52:53.151Z</time></trkpt><trkpt lat="43.9015596" lon="11.2217188"><ele>281.0</ele><time>2026-04-18T15:52:55.157Z</time></trkpt><trkpt lat="43.9016255" lon="11.2217425"><ele>281.0</ele><time>2026-04-18T15:52:56.154Z</time></trkpt><trkpt lat="43.9017048" lon="11.2217617"><ele>281.0</ele><time>2026-04-18T15:52:57.154Z</time></trkpt><trkpt lat="43.901774" lon="11.2217898"><ele>281.0</ele><time>2026-04-18T15:52:58.164Z</time></trkpt><trkpt lat="43.9018453" lon="11.2218253"><ele>281.0</ele><time>2026-04-18T15:52:59.158Z</time></trkpt><trkpt lat="43.9019238" lon="11.2218664"><ele>280.33333333333337</ele><time>2026-04-18T15:53:00.162Z</time></trkpt><trkpt lat="43.9019975" lon="11.2219093"><ele>279.6666666666667</ele><time>2026-04-18T15:53:01.157Z</time></trkpt><trkpt lat="43.9020815" lon="11.2219528"><ele>279.0</ele><time>2026-04-18T15:53:02.165Z</time></trkpt><trkpt lat="43.9021557" lon="11.2220066"><ele>278.3333333333333</ele><time>2026-04-18T15:53:03.154Z</time></trkpt><trkpt lat="43.9022401" lon="11.2220445"><ele>277.66666666666663</ele><time>2026-04-18T15:53:04.167Z</time></trkpt><trkpt lat="43.9023045" lon="11.2220584"><ele>277.0</ele><time>2026-04-18T15:53:05.157Z</time></trkpt><trkpt lat="43.9023704" lon="11.2220422"><ele>277.0</ele><time>2026-04-18T15:53:06.155Z</time></trkpt><trkpt lat="43.902451" lon="11.2220329"><ele>277.0</ele><time>2026-04-18T15:53:07.161Z</time></trkpt><trkpt lat="43.9025348" lon="11.2220239"><ele>277.0</ele><time>2026-04-18T15:53:08.158Z</time></trkpt><trkpt lat="43.9026151" lon="11.2220129"><ele>277.0</ele><time>2026-04-18T15:53:09.166Z</time></trkpt><trkpt lat="43.9027003" lon="11.2220007"><ele>277.0</ele><time>2026-04-18T15:53:10.165Z</time></trkpt><trkpt lat="43.9027791" lon="11.2219924"><ele>277.0</ele><time>2026-04-18T15:53:11.169Z</time></trkpt><trkpt lat="43.9028569" lon="11.2219843"><ele>274.0</ele><time>2026-04-18T15:53:12.175Z</time></trkpt><trkpt lat="43.9029197" lon="11.2219705"><ele>271.0</ele><time>2026-04-18T15:53:13.173Z</time></trkpt><trkpt lat="43.9030572" lon="11.2219853"><ele>268.0</ele><time>2026-04-18T15:53:15.173Z</time></trkpt><trkpt lat="43.9031462" lon="11.222019"><ele>265.0</ele><time>2026-04-18T15:53:16.175Z</time></trkpt><trkpt lat="43.9032344" lon="11.2220579"><ele>262.0</ele><time>2026-04-18T15:53:17.178Z</time></trkpt><trkpt lat="43.9033237" lon="11.2220967"><ele>262.0</ele><time>2026-04-18T15:53:18.181Z</time></trkpt><trkpt lat="43.9034121" lon="11.2221257"><ele>262.0</ele><time>2026-04-18T15:53:19.185Z</time></trkpt><trkpt lat="43.9034986" lon="11.2221688"><ele>262.0</ele><time>2026-04-18T15:53:20.183Z</time></trkpt><trkpt lat="43.9035881" lon="11.2221997"><ele>262.0</ele><time>2026-04-18T15:53:21.19Z</time></trkpt><trkpt lat="43.9036814" lon="11.2222363"><ele>262.0</ele><time>2026-04-18T15:53:22.2Z</time></trkpt><trkpt lat="43.9037624" lon="11.2222798"><ele>261.16666666666663</ele><time>2026-04-18T15:53:23.191Z</time></trkpt><trkpt lat="43.9038379" lon="11.2223188"><ele>260.3333333333333</ele><time>2026-04-18T15:53:24.19Z</time></trkpt><trkpt lat="43.9039162" lon="11.2223598"><ele>259.5</ele><time>2026-04-18T15:53:25.185Z</time></trkpt><trkpt lat="43.9039903" lon="11.2224159"><ele>258.6666666666667</ele><time>2026-04-18T15:53:26.193Z</time></trkpt><trkpt lat="43.9040545" lon="11.2224577"><ele>257.83333333333337</ele><time>2026-04-18T15:53:27.189Z</time></trkpt><trkpt lat="43.9041599" lon="11.2224891"><ele>257.0</ele><time>2026-04-18T15:53:29.183Z</time></trkpt><trkpt lat="43.9042204" lon="11.222453"><ele>256.4</ele><time>2026-04-18T15:53:30.184Z</time></trkpt><trkpt lat="43.9042844" lon="11.2223787"><ele>255.79999999999998</ele><time>2026-04-18T15:53:31.177Z</time></trkpt><trkpt lat="43.9043481" lon="11.2222682"><ele>255.2</ele><time>2026-04-18T15:53:32.175Z</time></trkpt><trkpt lat="43.90441" lon="11.2221776"><ele>254.6</ele><time>2026-04-18T15:53:33.178Z</time></trkpt><trkpt lat="43.9044854" lon="11.2221066"><ele>254.0</ele><time>2026-04-18T15:53:34.17Z</time></trkpt><trkpt lat="43.9045876" lon="11.2220464"><ele>254.0</ele><time>2026-04-18T15:53:35.172Z</time></trkpt><trkpt lat="43.9046986" lon="11.2219953"><ele>254.0</ele><time>2026-04-18T15:53:36.177Z</time></trkpt><trkpt lat="43.9048114" lon="11.2219443"><ele>254.0</ele><time>2026-04-18T15:53:37.163Z</time></trkpt><trkpt lat="43.9049269" lon="11.2219172"><ele>254.0</ele><time>2026-04-18T15:53:38.182Z</time></trkpt><trkpt lat="43.9050267" lon="11.2218998"><ele>252.0</ele><time>2026-04-18T15:53:39.162Z</time></trkpt><trkpt lat="43.9051299" lon="11.2218821"><ele>249.99999999999997</ele><time>2026-04-18T15:53:40.165Z</time></trkpt><trkpt lat="43.9052159" lon="11.2218576"><ele>247.99999999999997</ele><time>2026-04-18T15:53:41.169Z</time></trkpt><trkpt lat="43.9053027" lon="11.2218269"><ele>246.0</ele><time>2026-04-18T15:53:42.171Z</time></trkpt><trkpt lat="43.9053843" lon="11.2217876"><ele>244.0</ele><time>2026-04-18T15:53:43.175Z</time></trkpt><trkpt lat="43.9054721" lon="11.2217394"><ele>243.99999999999997</ele><time>2026-04-18T15:53:44.167Z</time></trkpt><trkpt lat="43.9055655" lon="11.2217184"><ele>244.0</ele><time>2026-04-18T15:53:45.174Z</time></trkpt><trkpt lat="43.9056363" lon="11.2216717"><ele>244.0</ele><time>2026-04-18T15:53:46.17Z</time></trkpt><trkpt lat="43.905718" lon="11.2216339"><ele>244.0</ele><time>2026-04-18T15:53:47.172Z</time></trkpt><trkpt lat="43.9057975" lon="11.2216151"><ele>243.99999999999997</ele><time>2026-04-18T15:53:48.166Z</time></trkpt><trkpt lat="43.9058761" lon="11.221603"><ele>244.0</ele><time>2026-04-18T15:53:49.169Z</time></trkpt><trkpt lat="43.9059408" lon="11.2216075"><ele>239.79999999999998</ele><time>2026-04-18T15:53:50.163Z</time></trkpt><trkpt lat="43.9060282" lon="11.2216428"><ele>235.59999999999997</ele><time>2026-04-18T15:53:51.156Z</time></trkpt><trkpt lat="43.9060936" lon="11.2216677"><ele>231.4</ele><time>2026-04-18T15:53:52.165Z</time></trkpt><trkpt lat="43.9061901" lon="11.2217035"><ele>227.2</ele><time>2026-04-18T15:53:54.173Z</time></trkpt><trkpt lat="43.9062803" lon="11.2216453"><ele>223.0</ele><time>2026-04-18T15:53:56.161Z</time></trkpt><trkpt lat="43.9063172" lon="11.2214584"><ele>222.4</ele><time>2026-04-18T15:53:58.167Z</time></trkpt><trkpt lat="43.9063195" lon="11.2213603"><ele>221.8</ele><time>2026-04-18T15:53:59.16Z</time></trkpt><trkpt lat="43.9062589" lon="11.2212218"><ele>221.2</ele><time>2026-04-18T15:54:01.158Z</time></trkpt><trkpt lat="43.9061993" lon="11.2211618"><ele>220.6</ele><time>2026-04-18T15:54:02.155Z</time></trkpt><trkpt lat="43.9060974" lon="11.2210699"><ele>220.0</ele><time>2026-04-18T15:54:03.17Z</time></trkpt><trkpt lat="43.9059836" lon="11.2209839"><ele>219.75</ele><time>2026-04-18T15:54:04.156Z</time></trkpt><trkpt lat="43.9058731" lon="11.2208905"><ele>219.5</ele><time>2026-04-18T15:54:05.16Z</time></trkpt><trkpt lat="43.9057769" lon="11.2208048"><ele>219.25</ele><time>2026-04-18T15:54:06.161Z</time></trkpt><trkpt lat="43.9056824" lon="11.2207116"><ele>219.0</ele><time>2026-04-18T15:54:07.164Z</time></trkpt><trkpt lat="43.9055891" lon="11.22062"><ele>219.0</ele><time>2026-04-18T15:54:08.166Z</time></trkpt><trkpt lat="43.9055127" lon="11.2205286"><ele>218.99999999999997</ele><time>2026-04-18T15:54:09.164Z</time></trkpt><trkpt lat="43.9054423" lon="11.2204277"><ele>218.99999999999997</ele><time>2026-04-18T15:54:10.173Z</time></trkpt><trkpt lat="43.9053711" lon="11.2203381"><ele>219.0</ele><time>2026-04-18T15:54:11.161Z</time></trkpt><trkpt lat="43.9053124" lon="11.2202655"><ele>219.0</ele><time>2026-04-18T15:54:12.163Z</time></trkpt><trkpt lat="43.905238" lon="11.220165"><ele>219.0</ele><time>2026-04-18T15:54:14.157Z</time></trkpt><trkpt lat="43.9051888" lon="11.2200595"><ele>218.99999999999997</ele><time>2026-04-18T15:54:16.151Z</time></trkpt><trkpt lat="43.9052704" lon="11.2200271"><ele>218.99999999999997</ele><time>2026-04-18T15:54:18.154Z</time></trkpt><trkpt lat="43.9053452" lon="11.2200579"><ele>219.0</ele><time>2026-04-18T15:54:19.145Z</time></trkpt><trkpt lat="43.9054474" lon="11.2200983"><ele>219.0</ele><time>2026-04-18T15:54:20.14Z</time></trkpt><trkpt lat="43.9055442" lon="11.2201014"><ele>219.0</ele><time>2026-04-18T15:54:21.142Z</time></trkpt><trkpt lat="43.9056753" lon="11.2201163"><ele>219.0</ele><time>2026-04-18T15:54:22.134Z</time></trkpt><trkpt lat="43.9058106" lon="11.2201129"><ele>219.0</ele><time>2026-04-18T15:54:23.144Z</time></trkpt><trkpt lat="43.9059346" lon="11.2200909"><ele>219.0</ele><time>2026-04-18T15:54:24.159Z</time></trkpt><trkpt lat="43.9060533" lon="11.2200535"><ele>216.25</ele><time>2026-04-18T15:54:25.142Z</time></trkpt><trkpt lat="43.9061677" lon="11.2199872"><ele>213.5</ele><time>2026-04-18T15:54:26.144Z</time></trkpt><trkpt lat="43.9062986" lon="11.2198901"><ele>210.75</ele><time>2026-04-18T15:54:27.144Z</time></trkpt><trkpt lat="43.9064311" lon="11.2197739"><ele>208.0</ele><time>2026-04-18T15:54:28.151Z</time></trkpt><trkpt lat="43.90656" lon="11.2197055"><ele>206.8</ele><time>2026-04-18T15:54:29.144Z</time></trkpt><trkpt lat="43.9066769" lon="11.2196538"><ele>205.60000000000002</ele><time>2026-04-18T15:54:30.15Z</time></trkpt><trkpt lat="43.9067812" lon="11.2196047"><ele>204.39999999999998</ele><time>2026-04-18T15:54:31.144Z</time></trkpt><trkpt lat="43.9068678" lon="11.2195617"><ele>203.2</ele><time>2026-04-18T15:54:32.141Z</time></trkpt><trkpt lat="43.9069739" lon="11.2195406"><ele>202.0</ele><time>2026-04-18T15:54:33.139Z</time></trkpt><trkpt lat="43.907122" lon="11.2195464"><ele>197.75</ele><time>2026-04-18T15:54:34.133Z</time></trkpt><trkpt lat="43.9072736" lon="11.2195677"><ele>193.5</ele><time>2026-04-18T15:54:35.151Z</time></trkpt><trkpt lat="43.9074043" lon="11.2195952"><ele>189.25</ele><time>2026-04-18T15:54:36.153Z</time></trkpt><trkpt lat="43.9075311" lon="11.2196298"><ele>185.0</ele><time>2026-04-18T15:54:37.143Z</time></trkpt><trkpt lat="43.907618" lon="11.2196407"><ele>183.4</ele><time>2026-04-18T15:54:38.15Z</time></trkpt><trkpt lat="43.9077489" lon="11.2196188"><ele>181.8</ele><time>2026-04-18T15:54:40.155Z</time></trkpt><trkpt lat="43.907833" lon="11.2195594"><ele>180.2</ele><time>2026-04-18T15:54:41.149Z</time></trkpt><trkpt lat="43.9078959" lon="11.2194406"><ele>178.6</ele><time>2026-04-18T15:54:42.161Z</time></trkpt><trkpt lat="43.9079467" lon="11.2193157"><ele>177.0</ele><time>2026-04-18T15:54:43.175Z</time></trkpt><trkpt lat="43.9079954" lon="11.219198"><ele>177.0</ele><time>2026-04-18T15:54:44.177Z</time></trkpt><trkpt lat="43.9080641" lon="11.2191032"><ele>177.0</ele><time>2026-04-18T15:54:45.176Z</time></trkpt><trkpt lat="43.9081441" lon="11.2190252"><ele>177.0</ele><time>2026-04-18T15:54:46.177Z</time></trkpt><trkpt lat="43.908219" lon="11.2189407"><ele>177.0</ele><time>2026-04-18T15:54:47.179Z</time></trkpt><trkpt lat="43.908289" lon="11.218862"><ele>177.0</ele><time>2026-04-18T15:54:48.175Z</time></trkpt><trkpt lat="43.9083563" lon="11.218802"><ele>177.0</ele><time>2026-04-18T15:54:49.182Z</time></trkpt><trkpt lat="43.9084252" lon="11.2187366"><ele>177.0</ele><time>2026-04-18T15:54:50.188Z</time></trkpt><trkpt lat="43.9084937" lon="11.2186742"><ele>177.0</ele><time>2026-04-18T15:54:51.182Z</time></trkpt><trkpt lat="43.9085663" lon="11.2185974"><ele>177.0</ele><time>2026-04-18T15:54:52.188Z</time></trkpt><trkpt lat="43.9086331" lon="11.2185329"><ele>177.0</ele><time>2026-04-18T15:54:53.186Z</time></trkpt><trkpt lat="43.9086971" lon="11.2184683"><ele>177.0</ele><time>2026-04-18T15:54:54.183Z</time></trkpt><trkpt lat="43.9087648" lon="11.2184077"><ele>177.0</ele><time>2026-04-18T15:54:55.199Z</time></trkpt><trkpt lat="43.9088246" lon="11.2183421"><ele>177.0</ele><time>2026-04-18T15:54:56.179Z</time></trkpt><trkpt lat="43.9088881" lon="11.2182758"><ele>177.0</ele><time>2026-04-18T15:54:57.188Z</time></trkpt><trkpt lat="43.9089528" lon="11.2182145"><ele>177.0</ele><time>2026-04-18T15:54:58.177Z</time></trkpt><trkpt lat="43.9090192" lon="11.2181523"><ele>177.0</ele><time>2026-04-18T15:54:59.171Z</time></trkpt><trkpt lat="43.9090776" lon="11.2180774"><ele>177.0</ele><time>2026-04-18T15:55:00.178Z</time></trkpt><trkpt lat="43.9091551" lon="11.2180098"><ele>176.83333333333334</ele><time>2026-04-18T15:55:01.178Z</time></trkpt><trkpt lat="43.9092235" lon="11.2179368"><ele>176.66666666666666</ele><time>2026-04-18T15:55:02.177Z</time></trkpt><trkpt lat="43.9092851" lon="11.2178675"><ele>176.5</ele><time>2026-04-18T15:55:03.176Z</time></trkpt><trkpt lat="43.9093474" lon="11.2177991"><ele>176.33333333333331</ele><time>2026-04-18T15:55:04.166Z</time></trkpt><trkpt lat="43.9094088" lon="11.217735"><ele>176.16666666666666</ele><time>2026-04-18T15:55:05.168Z</time></trkpt><trkpt lat="43.9094957" lon="11.2176534"><ele>176.0</ele><time>2026-04-18T15:55:07.153Z</time></trkpt><trkpt lat="43.9094964" lon="11.2175474"><ele>176.4</ele><time>2026-04-18T15:55:12.178Z</time></trkpt><trkpt lat="43.9094194" lon="11.2174426"><ele>176.8</ele><time>2026-04-18T15:55:14.17Z</time></trkpt><trkpt lat="43.9093439" lon="11.2173784"><ele>177.20000000000002</ele><time>2026-04-18T15:55:15.167Z</time></trkpt><trkpt lat="43.909262" lon="11.2172921"><ele>177.60000000000002</ele><time>2026-04-18T15:55:16.168Z</time></trkpt><trkpt lat="43.9091829" lon="11.2172096"><ele>178.0</ele><time>2026-04-18T15:55:17.168Z</time></trkpt><trkpt lat="43.9091111" lon="11.2171315"><ele>178.0</ele><time>2026-04-18T15:55:18.17Z</time></trkpt><trkpt lat="43.9090236" lon="11.2170294"><ele>178.0</ele><time>2026-04-18T15:55:19.174Z</time></trkpt><trkpt lat="43.9089313" lon="11.2169338"><ele>178.0</ele><time>2026-04-18T15:55:20.172Z</time></trkpt><trkpt lat="43.9088397" lon="11.2168276"><ele>178.0</ele><time>2026-04-18T15:55:21.177Z</time></trkpt><trkpt lat="43.9087521" lon="11.2167271"><ele>178.0</ele><time>2026-04-18T15:55:22.166Z</time></trkpt><trkpt lat="43.9086679" lon="11.2166171"><ele>178.0</ele><time>2026-04-18T15:55:23.173Z</time></trkpt><trkpt lat="43.9085936" lon="11.2164961"><ele>178.0</ele><time>2026-04-18T15:55:24.161Z</time></trkpt><trkpt lat="43.9085051" lon="11.2163791"><ele>178.0</ele><time>2026-04-18T15:55:25.16Z</time></trkpt><trkpt lat="43.9084072" lon="11.216279"><ele>178.25</ele><time>2026-04-18T15:55:26.189Z</time></trkpt><trkpt lat="43.9083046" lon="11.216186"><ele>178.5</ele><time>2026-04-18T15:55:27.168Z</time></trkpt><trkpt lat="43.9081878" lon="11.2160949"><ele>178.75</ele><time>2026-04-18T15:55:28.184Z</time></trkpt><trkpt lat="43.9080642" lon="11.2160105"><ele>179.0</ele><time>2026-04-18T15:55:29.177Z</time></trkpt><trkpt lat="43.9079442" lon="11.2159181"><ele>179.0</ele><time>2026-04-18T15:55:30.175Z</time></trkpt><trkpt lat="43.9078307" lon="11.2158326"><ele>179.0</ele><time>2026-04-18T15:55:31.174Z</time></trkpt><trkpt lat="43.9077287" lon="11.2157465"><ele>179.0</ele><time>2026-04-18T15:55:32.175Z</time></trkpt><trkpt lat="43.907629" lon="11.2156628"><ele>179.0</ele><time>2026-04-18T15:55:33.175Z</time></trkpt><trkpt lat="43.9075371" lon="11.2155846"><ele>178.5</ele><time>2026-04-18T15:55:34.176Z</time></trkpt><trkpt lat="43.9074503" lon="11.2154929"><ele>178.0</ele><time>2026-04-18T15:55:35.174Z</time></trkpt><trkpt lat="43.9073682" lon="11.2153869"><ele>177.5</ele><time>2026-04-18T15:55:36.172Z</time></trkpt><trkpt lat="43.9072857" lon="11.2152658"><ele>177.0</ele><time>2026-04-18T15:55:37.18Z</time></trkpt><trkpt lat="43.9072093" lon="11.2151431"><ele>177.0</ele><time>2026-04-18T15:55:38.179Z</time></trkpt><trkpt lat="43.9071282" lon="11.2150113"><ele>177.0</ele><time>2026-04-18T15:55:39.177Z</time></trkpt><trkpt lat="43.9070625" lon="11.2148714"><ele>177.0</ele><time>2026-04-18T15:55:40.172Z</time></trkpt><trkpt lat="43.9070115" lon="11.2147033"><ele>177.0</ele><time>2026-04-18T15:55:41.187Z</time></trkpt><trkpt lat="43.9069683" lon="11.2145451"><ele>179.25</ele><time>2026-04-18T15:55:42.176Z</time></trkpt><trkpt lat="43.9069284" lon="11.2143944"><ele>181.5</ele><time>2026-04-18T15:55:43.177Z</time></trkpt><trkpt lat="43.9068846" lon="11.2142449"><ele>183.75</ele><time>2026-04-18T15:55:44.172Z</time></trkpt><trkpt lat="43.9068291" lon="11.2140867"><ele>186.0</ele><time>2026-04-18T15:55:45.177Z</time></trkpt><trkpt lat="43.9067792" lon="11.2139336"><ele>182.5</ele><time>2026-04-18T15:55:46.178Z</time></trkpt><trkpt lat="43.9067288" lon="11.213781"><ele>179.0</ele><time>2026-04-18T15:55:47.183Z</time></trkpt><trkpt lat="43.9066705" lon="11.2136265"><ele>175.5</ele><time>2026-04-18T15:55:48.185Z</time></trkpt><trkpt lat="43.9066123" lon="11.2134759"><ele>172.0</ele><time>2026-04-18T15:55:49.178Z</time></trkpt><trkpt lat="43.9065541" lon="11.2133368"><ele>172.0</ele><time>2026-04-18T15:55:50.184Z</time></trkpt><trkpt lat="43.9064989" lon="11.2132029"><ele>172.0</ele><time>2026-04-18T15:55:51.192Z</time></trkpt><trkpt lat="43.9064469" lon="11.2130761"><ele>172.0</ele><time>2026-04-18T15:55:52.178Z</time></trkpt><trkpt lat="43.9063879" lon="11.2129512"><ele>172.0</ele><time>2026-04-18T15:55:53.176Z</time></trkpt><trkpt lat="43.9063272" lon="11.2128319"><ele>172.0</ele><time>2026-04-18T15:55:54.178Z</time></trkpt><trkpt lat="43.9062521" lon="11.2127216"><ele>173.25</ele><time>2026-04-18T15:55:55.163Z</time></trkpt><trkpt lat="43.9061666" lon="11.2126256"><ele>174.5</ele><time>2026-04-18T15:55:56.166Z</time></trkpt><trkpt lat="43.9060679" lon="11.2125413"><ele>175.75</ele><time>2026-04-18T15:55:57.194Z</time></trkpt><trkpt lat="43.9059582" lon="11.212475"><ele>177.0</ele><time>2026-04-18T15:55:58.178Z</time></trkpt><trkpt lat="43.9058475" lon="11.2124244"><ele>174.5</ele><time>2026-04-18T15:55:59.169Z</time></trkpt><trkpt lat="43.9057368" lon="11.2123924"><ele>172.0</ele><time>2026-04-18T15:56:00.173Z</time></trkpt><trkpt lat="43.9056176" lon="11.2123466"><ele>169.5</ele><time>2026-04-18T15:56:01.183Z</time></trkpt><trkpt lat="43.9055078" lon="11.2122999"><ele>167.0</ele><time>2026-04-18T15:56:02.17Z</time></trkpt><trkpt lat="43.9054062" lon="11.212264"><ele>167.0</ele><time>2026-04-18T15:56:03.164Z</time></trkpt><trkpt lat="43.9053119" lon="11.2122149"><ele>167.0</ele><time>2026-04-18T15:56:04.176Z</time></trkpt><trkpt lat="43.9052248" lon="11.2121341"><ele>167.0</ele><time>2026-04-18T15:56:05.171Z</time></trkpt><trkpt lat="43.9051861" lon="11.2119926"><ele>167.0</ele><time>2026-04-18T15:56:06.173Z</time></trkpt><trkpt lat="43.90517" lon="11.2118295"><ele>167.0</ele><time>2026-04-18T15:56:07.167Z</time></trkpt><trkpt lat="43.9051567" lon="11.2116743"><ele>167.0</ele><time>2026-04-18T15:56:08.162Z</time></trkpt><trkpt lat="43.9051502" lon="11.2115098"><ele>167.0</ele><time>2026-04-18T15:56:09.16Z</time></trkpt><trkpt lat="43.905158" lon="11.211356"><ele>167.0</ele><time>2026-04-18T15:56:10.159Z</time></trkpt><trkpt lat="43.9051675" lon="11.2111982"><ele>167.0</ele><time>2026-04-18T15:56:11.169Z</time></trkpt><trkpt lat="43.9051754" lon="11.2110369"><ele>168.75</ele><time>2026-04-18T15:56:12.162Z</time></trkpt><trkpt lat="43.9051802" lon="11.2108839"><ele>170.5</ele><time>2026-04-18T15:56:13.163Z</time></trkpt><trkpt lat="43.9051844" lon="11.2107145"><ele>172.25</ele><time>2026-04-18T15:56:14.168Z</time></trkpt><trkpt lat="43.9051904" lon="11.2105587"><ele>174.0</ele><time>2026-04-18T15:56:15.165Z</time></trkpt><trkpt lat="43.9052008" lon="11.2104033"><ele>178.2</ele><time>2026-04-18T15:56:16.167Z</time></trkpt><trkpt lat="43.9051999" lon="11.2102574"><ele>182.39999999999998</ele><time>2026-04-18T15:56:17.169Z</time></trkpt><trkpt lat="43.9051951" lon="11.2101277"><ele>186.6</ele><time>2026-04-18T15:56:18.166Z</time></trkpt><trkpt lat="43.9051738" lon="11.2100133"><ele>190.8</ele><time>2026-04-18T15:56:19.17Z</time></trkpt><trkpt lat="43.9051233" lon="11.2099053"><ele>195.0</ele><time>2026-04-18T15:56:20.158Z</time></trkpt><trkpt lat="43.905056" lon="11.209818"><ele>196.5</ele><time>2026-04-18T15:56:21.164Z</time></trkpt><trkpt lat="43.904972" lon="11.2097771"><ele>198.0</ele><time>2026-04-18T15:56:22.153Z</time></trkpt><trkpt lat="43.9048649" lon="11.2097388"><ele>199.5</ele><time>2026-04-18T15:56:23.151Z</time></trkpt><trkpt lat="43.9047415" lon="11.2097127"><ele>201.0</ele><time>2026-04-18T15:56:24.157Z</time></trkpt><trkpt lat="43.9046086" lon="11.2096759"><ele>201.0</ele><time>2026-04-18T15:56:25.152Z</time></trkpt><trkpt lat="43.9044726" lon="11.2096513"><ele>201.0</ele><time>2026-04-18T15:56:26.15Z</time></trkpt><trkpt lat="43.9043417" lon="11.2096154"><ele>201.0</ele><time>2026-04-18T15:56:27.153Z</time></trkpt><trkpt lat="43.9042125" lon="11.2095887"><ele>201.0</ele><time>2026-04-18T15:56:28.171Z</time></trkpt><trkpt lat="43.9040863" lon="11.2095646"><ele>194.25</ele><time>2026-04-18T15:56:29.162Z</time></trkpt><trkpt lat="43.903965" lon="11.2095294"><ele>187.5</ele><time>2026-04-18T15:56:30.163Z</time></trkpt><trkpt lat="43.9038482" lon="11.2094832"><ele>180.75</ele><time>2026-04-18T15:56:31.179Z</time></trkpt><trkpt lat="43.9037418" lon="11.2094311"><ele>174.0</ele><time>2026-04-18T15:56:32.168Z</time></trkpt><trkpt lat="43.9036295" lon="11.2093669"><ele>174.0</ele><time>2026-04-18T15:56:33.165Z</time></trkpt><trkpt lat="43.9035244" lon="11.2093027"><ele>174.0</ele><time>2026-04-18T15:56:34.17Z</time></trkpt><trkpt lat="43.9034273" lon="11.2092448"><ele>174.0</ele><time>2026-04-18T15:56:35.174Z</time></trkpt><trkpt lat="43.9033311" lon="11.2091671"><ele>174.0</ele><time>2026-04-18T15:56:36.169Z</time></trkpt><trkpt lat="43.90325" lon="11.2090742"><ele>174.0</ele><time>2026-04-18T15:56:37.168Z</time></trkpt><trkpt lat="43.9031883" lon="11.2089513"><ele>172.39999999999998</ele><time>2026-04-18T15:56:38.165Z</time></trkpt><trkpt lat="43.9031494" lon="11.2088134"><ele>170.8</ele><time>2026-04-18T15:56:39.163Z</time></trkpt><trkpt lat="43.903116" lon="11.2086661"><ele>169.2</ele><time>2026-04-18T15:56:40.172Z</time></trkpt><trkpt lat="43.9030912" lon="11.208521"><ele>167.60000000000002</ele><time>2026-04-18T15:56:41.173Z</time></trkpt><trkpt lat="43.9030588" lon="11.2083885"><ele>166.0</ele><time>2026-04-18T15:56:42.173Z</time></trkpt><trkpt lat="43.9030175" lon="11.2082564"><ele>171.75</ele><time>2026-04-18T15:56:43.169Z</time></trkpt><trkpt lat="43.9029757" lon="11.2081136"><ele>177.5</ele><time>2026-04-18T15:56:44.167Z</time></trkpt><trkpt lat="43.9029228" lon="11.2079604"><ele>183.25</ele><time>2026-04-18T15:56:45.173Z</time></trkpt><trkpt lat="43.9028535" lon="11.2078221"><ele>189.0</ele><time>2026-04-18T15:56:46.164Z</time></trkpt><trkpt lat="43.9027808" lon="11.207679"><ele>189.0</ele><time>2026-04-18T15:56:47.163Z</time></trkpt><trkpt lat="43.9026984" lon="11.2075484"><ele>189.0</ele><time>2026-04-18T15:56:48.165Z</time></trkpt><trkpt lat="43.9026168" lon="11.2074295"><ele>189.0</ele><time>2026-04-18T15:56:49.17Z</time></trkpt><trkpt lat="43.902527" lon="11.2073218"><ele>189.0</ele><time>2026-04-18T15:56:50.166Z</time></trkpt><trkpt lat="43.9024319" lon="11.2072293"><ele>185.75</ele><time>2026-04-18T15:56:51.169Z</time></trkpt><trkpt lat="43.9023404" lon="11.207149"><ele>182.5</ele><time>2026-04-18T15:56:52.167Z</time></trkpt><trkpt lat="43.9022439" lon="11.2070596"><ele>179.25</ele><time>2026-04-18T15:56:53.163Z</time></trkpt><trkpt lat="43.9021599" lon="11.206952"><ele>176.0</ele><time>2026-04-18T15:56:54.176Z</time></trkpt><trkpt lat="43.902091" lon="11.2068312"><ele>176.0</ele><time>2026-04-18T15:56:55.167Z</time></trkpt><trkpt lat="43.902023" lon="11.2067102"><ele>176.0</ele><time>2026-04-18T15:56:56.165Z</time></trkpt><trkpt lat="43.901947" lon="11.2065636"><ele>176.0</ele><time>2026-04-18T15:56:57.176Z</time></trkpt><trkpt lat="43.9018824" lon="11.2064086"><ele>176.0</ele><time>2026-04-18T15:56:58.176Z</time></trkpt><trkpt lat="43.9018121" lon="11.2062482"><ele>171.0</ele><time>2026-04-18T15:56:59.194Z</time></trkpt><trkpt lat="43.9017347" lon="11.2060872"><ele>166.0</ele><time>2026-04-18T15:57:00.173Z</time></trkpt><trkpt lat="43.9016551" lon="11.2059216"><ele>161.0</ele><time>2026-04-18T15:57:01.183Z</time></trkpt><trkpt lat="43.9015588" lon="11.2057324"><ele>164.66666666666666</ele><time>2026-04-18T15:57:02.171Z</time></trkpt><trkpt lat="43.9014812" lon="11.2055286"><ele>168.33333333333334</ele><time>2026-04-18T15:57:03.169Z</time></trkpt><trkpt lat="43.9013935" lon="11.205293"><ele>172.0</ele><time>2026-04-18T15:57:04.172Z</time></trkpt><trkpt lat="43.9013076" lon="11.2050583"><ele>172.0</ele><time>2026-04-18T15:57:05.168Z</time></trkpt><trkpt lat="43.9012425" lon="11.2048314"><ele>172.0</ele><time>2026-04-18T15:57:06.173Z</time></trkpt><trkpt lat="43.9011702" lon="11.2046226"><ele>172.0</ele><time>2026-04-18T15:57:07.174Z</time></trkpt><trkpt lat="43.901104" lon="11.204419"><ele>169.0</ele><time>2026-04-18T15:57:08.167Z</time></trkpt><trkpt lat="43.9010222" lon="11.204224"><ele>166.0</ele><time>2026-04-18T15:57:09.172Z</time></trkpt><trkpt lat="43.9009504" lon="11.2040316"><ele>163.0</ele><time>2026-04-18T15:57:10.166Z</time></trkpt><trkpt lat="43.9009012" lon="11.2038529"><ele>163.0</ele><time>2026-04-18T15:57:11.192Z</time></trkpt><trkpt lat="43.9008313" lon="11.2037022"><ele>163.0</ele><time>2026-04-18T15:57:12.178Z</time></trkpt><trkpt lat="43.9007701" lon="11.2035601"><ele>163.0</ele><time>2026-04-18T15:57:13.176Z</time></trkpt><trkpt lat="43.9006863" lon="11.2034131"><ele>163.0</ele><time>2026-04-18T15:57:14.178Z</time></trkpt><trkpt lat="43.9006091" lon="11.2033094"><ele>163.0</ele><time>2026-04-18T15:57:15.176Z</time></trkpt><trkpt lat="43.9004943" lon="11.2031645"><ele>163.0</ele><time>2026-04-18T15:57:16.168Z</time></trkpt><trkpt lat="43.9003824" lon="11.2030367"><ele>163.0</ele><time>2026-04-18T15:57:17.174Z</time></trkpt><trkpt lat="43.9002592" lon="11.2029283"><ele>163.0</ele><time>2026-04-18T15:57:18.167Z</time></trkpt><trkpt lat="43.9001195" lon="11.2028704"><ele>166.33333333333334</ele><time>2026-04-18T15:57:19.173Z</time></trkpt><trkpt lat="43.8999637" lon="11.2028318"><ele>169.66666666666666</ele><time>2026-04-18T15:57:20.172Z</time></trkpt><trkpt lat="43.8997876" lon="11.2028202"><ele>173.0</ele><time>2026-04-18T15:57:21.174Z</time></trkpt><trkpt lat="43.8996185" lon="11.2027988"><ele>173.0</ele><time>2026-04-18T15:57:22.166Z</time></trkpt><trkpt lat="43.8994453" lon="11.2027837"><ele>173.0</ele><time>2026-04-18T15:57:23.173Z</time></trkpt><trkpt lat="43.8992836" lon="11.2027505"><ele>173.0</ele><time>2026-04-18T15:57:24.177Z</time></trkpt><trkpt lat="43.8991187" lon="11.2027207"><ele>167.66666666666666</ele><time>2026-04-18T15:57:25.17Z</time></trkpt><trkpt lat="43.8989668" lon="11.2027035"><ele>162.33333333333334</ele><time>2026-04-18T15:57:26.172Z</time></trkpt><trkpt lat="43.8988171" lon="11.202675"><ele>157.0</ele><time>2026-04-18T15:57:27.18Z</time></trkpt><trkpt lat="43.8986621" lon="11.2026744"><ele>157.0</ele><time>2026-04-18T15:57:28.18Z</time></trkpt><trkpt lat="43.8985086" lon="11.2026463"><ele>157.0</ele><time>2026-04-18T15:57:29.18Z</time></trkpt><trkpt lat="43.8983623" lon="11.2026397"><ele>157.0</ele><time>2026-04-18T15:57:30.202Z</time></trkpt><trkpt lat="43.8982049" lon="11.2026213"><ele>155.5</ele><time>2026-04-18T15:57:31.187Z</time></trkpt><trkpt lat="43.8980588" lon="11.2026063"><ele>154.0</ele><time>2026-04-18T15:57:32.174Z</time></trkpt><trkpt lat="43.8979326" lon="11.2025114"><ele>152.5</ele><time>2026-04-18T15:57:33.175Z</time></trkpt><trkpt lat="43.897806" lon="11.2024462"><ele>151.0</ele><time>2026-04-18T15:57:34.155Z</time></trkpt><trkpt lat="43.8976633" lon="11.2024235"><ele>148.5</ele><time>2026-04-18T15:57:35.156Z</time></trkpt><trkpt lat="43.8975347" lon="11.2023966"><ele>146.0</ele><time>2026-04-18T15:57:36.155Z</time></trkpt><trkpt lat="43.8974054" lon="11.2023309"><ele>143.5</ele><time>2026-04-18T15:57:37.164Z</time></trkpt><trkpt lat="43.8972747" lon="11.2022386"><ele>141.0</ele><time>2026-04-18T15:57:38.167Z</time></trkpt><trkpt lat="43.897152" lon="11.2021214"><ele>143.0</ele><time>2026-04-18T15:57:39.172Z</time></trkpt><trkpt lat="43.8970248" lon="11.202017"><ele>145.0</ele><time>2026-04-18T15:57:40.173Z</time></trkpt><trkpt lat="43.8968819" lon="11.2019292"><ele>147.0</ele><time>2026-04-18T15:57:41.179Z</time></trkpt><trkpt lat="43.8967442" lon="11.2018388"><ele>147.0</ele><time>2026-04-18T15:57:42.161Z</time></trkpt><trkpt lat="43.8965999" lon="11.2017113"><ele>147.0</ele><time>2026-04-18T15:57:43.167Z</time></trkpt><trkpt lat="43.896462" lon="11.2015792"><ele>147.0</ele><time>2026-04-18T15:57:44.161Z</time></trkpt><trkpt lat="43.8963287" lon="11.2014672"><ele>150.66666666666666</ele><time>2026-04-18T15:57:45.155Z</time></trkpt><trkpt lat="43.8961851" lon="11.2013504"><ele>154.33333333333331</ele><time>2026-04-18T15:57:46.169Z</time></trkpt><trkpt lat="43.8960338" lon="11.2012667"><ele>158.0</ele><time>2026-04-18T15:57:47.165Z</time></trkpt><trkpt lat="43.8958942" lon="11.2011839"><ele>158.0</ele><time>2026-04-18T15:57:48.166Z</time></trkpt><trkpt lat="43.8957387" lon="11.2011723"><ele>158.0</ele><time>2026-04-18T15:57:49.16Z</time></trkpt><trkpt lat="43.8955936" lon="11.20116"><ele>158.0</ele><time>2026-04-18T15:57:50.168Z</time></trkpt><trkpt lat="43.8954677" lon="11.2011146"><ele>158.0</ele><time>2026-04-18T15:57:51.161Z</time></trkpt><trkpt lat="43.8953518" lon="11.2010259"><ele>158.0</ele><time>2026-04-18T15:57:52.172Z</time></trkpt><trkpt lat="43.8952715" lon="11.2008515"><ele>158.0</ele><time>2026-04-18T15:57:53.16Z</time></trkpt><trkpt lat="43.8951754" lon="11.2006884"><ele>158.0</ele><time>2026-04-18T15:57:54.175Z</time></trkpt><trkpt lat="43.8950518" lon="11.2005308"><ele>162.66666666666666</ele><time>2026-04-18T15:57:55.165Z</time></trkpt><trkpt lat="43.8949111" lon="11.2004172"><ele>167.33333333333334</ele><time>2026-04-18T15:57:56.156Z</time></trkpt><trkpt lat="43.8947712" lon="11.2003273"><ele>172.0</ele><time>2026-04-18T15:57:57.162Z</time></trkpt><trkpt lat="43.8946279" lon="11.2002707"><ele>172.0</ele><time>2026-04-18T15:57:58.165Z</time></trkpt><trkpt lat="43.8944834" lon="11.200218"><ele>172.0</ele><time>2026-04-18T15:57:59.166Z</time></trkpt><trkpt lat="43.8943321" lon="11.2001828"><ele>172.0</ele><time>2026-04-18T15:58:00.17Z</time></trkpt><trkpt lat="43.894187" lon="11.2001221"><ele>166.0</ele><time>2026-04-18T15:58:01.191Z</time></trkpt><trkpt lat="43.8940353" lon="11.2000766"><ele>160.0</ele><time>2026-04-18T15:58:02.169Z</time></trkpt><trkpt lat="43.8939073" lon="11.2000438"><ele>154.0</ele><time>2026-04-18T15:58:03.164Z</time></trkpt><trkpt lat="43.893773" lon="11.2000802"><ele>148.0</ele><time>2026-04-18T15:58:04.162Z</time></trkpt><trkpt lat="43.8936435" lon="11.2001257"><ele>148.0</ele><time>2026-04-18T15:58:05.163Z</time></trkpt><trkpt lat="43.8935248" lon="11.200134"><ele>148.0</ele><time>2026-04-18T15:58:06.165Z</time></trkpt><trkpt lat="43.8933937" lon="11.2001092"><ele>148.0</ele><time>2026-04-18T15:58:07.157Z</time></trkpt><trkpt lat="43.8932556" lon="11.2000715"><ele>148.0</ele><time>2026-04-18T15:58:08.173Z</time></trkpt><trkpt lat="43.8931184" lon="11.2000166"><ele>145.5</ele><time>2026-04-18T15:58:09.177Z</time></trkpt><trkpt lat="43.8929853" lon="11.1999324"><ele>143.0</ele><time>2026-04-18T15:58:10.173Z</time></trkpt><trkpt lat="43.8928649" lon="11.1998434"><ele>140.5</ele><time>2026-04-18T15:58:11.179Z</time></trkpt><trkpt lat="43.89275" lon="11.1997624"><ele>138.0</ele><time>2026-04-18T15:58:12.173Z</time></trkpt><trkpt lat="43.8926271" lon="11.1996509"><ele>133.33333333333334</ele><time>2026-04-18T15:58:13.176Z</time></trkpt><trkpt lat="43.8924926" lon="11.1995269"><ele>128.66666666666669</ele><time>2026-04-18T15:58:14.174Z</time></trkpt><trkpt lat="43.8923771" lon="11.1994139"><ele>124.0</ele><time>2026-04-18T15:58:15.176Z</time></trkpt><trkpt lat="43.8922527" lon="11.1992983"><ele>124.0</ele><time>2026-04-18T15:58:16.177Z</time></trkpt><trkpt lat="43.892133" lon="11.1991711"><ele>124.0</ele><time>2026-04-18T15:58:17.181Z</time></trkpt><trkpt lat="43.8920205" lon="11.1990374"><ele>124.0</ele><time>2026-04-18T15:58:18.171Z</time></trkpt><trkpt lat="43.8919189" lon="11.1988936"><ele>124.0</ele><time>2026-04-18T15:58:19.184Z</time></trkpt><trkpt lat="43.8918376" lon="11.1987357"><ele>124.25</ele><time>2026-04-18T15:58:20.173Z</time></trkpt><trkpt lat="43.8917615" lon="11.1985884"><ele>124.5</ele><time>2026-04-18T15:58:21.181Z</time></trkpt><trkpt lat="43.8916787" lon="11.1984508"><ele>124.75</ele><time>2026-04-18T15:58:22.176Z</time></trkpt><trkpt lat="43.891596" lon="11.1983008"><ele>125.0</ele><time>2026-04-18T15:58:23.182Z</time></trkpt><trkpt lat="43.8915142" lon="11.1981761"><ele>130.75</ele><time>2026-04-18T15:58:24.184Z</time></trkpt><trkpt lat="43.8914161" lon="11.1980309"><ele>136.5</ele><time>2026-04-18T15:58:25.167Z</time></trkpt><trkpt lat="43.8913069" lon="11.1979297"><ele>142.25</ele><time>2026-04-18T15:58:26.171Z</time></trkpt><trkpt lat="43.8911852" lon="11.1978407"><ele>148.0</ele><time>2026-04-18T15:58:27.176Z</time></trkpt><trkpt lat="43.8910671" lon="11.1978067"><ele>148.0</ele><time>2026-04-18T15:58:28.178Z</time></trkpt><trkpt lat="43.8909429" lon="11.1977504"><ele>148.0</ele><time>2026-04-18T15:58:29.177Z</time></trkpt><trkpt lat="43.8908235" lon="11.197707"><ele>148.0</ele><time>2026-04-18T15:58:30.181Z</time></trkpt><trkpt lat="43.8907076" lon="11.1976461"><ele>148.0</ele><time>2026-04-18T15:58:31.176Z</time></trkpt><trkpt lat="43.8906024" lon="11.1975743"><ele>147.5</ele><time>2026-04-18T15:58:32.19Z</time></trkpt><trkpt lat="43.8904997" lon="11.1975007"><ele>147.0</ele><time>2026-04-18T15:58:33.17Z</time></trkpt><trkpt lat="43.8904251" lon="11.1973588"><ele>146.5</ele><time>2026-04-18T15:58:34.173Z</time></trkpt><trkpt lat="43.8903683" lon="11.1971732"><ele>146.0</ele><time>2026-04-18T15:58:35.172Z</time></trkpt><trkpt lat="43.8903347" lon="11.1969556"><ele>146.0</ele><time>2026-04-18T15:58:36.154Z</time></trkpt><trkpt lat="43.8902884" lon="11.1966751"><ele>146.0</ele><time>2026-04-18T15:58:37.152Z</time></trkpt><trkpt lat="43.8902379" lon="11.1964602"><ele>146.0</ele><time>2026-04-18T15:58:38.153Z</time></trkpt><trkpt lat="43.8902094" lon="11.1962492"><ele>152.0</ele><time>2026-04-18T15:58:39.153Z</time></trkpt><trkpt lat="43.8901743" lon="11.196061"><ele>158.0</ele><time>2026-04-18T15:58:40.146Z</time></trkpt><trkpt lat="43.8900981" lon="11.1958717"><ele>164.0</ele><time>2026-04-18T15:58:41.158Z</time></trkpt><trkpt lat="43.8899965" lon="11.1956968"><ele>154.33333333333331</ele><time>2026-04-18T15:58:42.153Z</time></trkpt><trkpt lat="43.8898329" lon="11.1954968"><ele>144.66666666666666</ele><time>2026-04-18T15:58:43.173Z</time></trkpt><trkpt lat="43.8897045" lon="11.1953084"><ele>135.0</ele><time>2026-04-18T15:58:44.176Z</time></trkpt><trkpt lat="43.8895898" lon="11.1951245"><ele>135.0</ele><time>2026-04-18T15:58:45.172Z</time></trkpt><trkpt lat="43.8894665" lon="11.19494"><ele>135.0</ele><time>2026-04-18T15:58:46.169Z</time></trkpt><trkpt lat="43.8893535" lon="11.1947717"><ele>135.0</ele><time>2026-04-18T15:58:47.183Z</time></trkpt><trkpt lat="43.8892566" lon="11.1946101"><ele>131.33333333333334</ele><time>2026-04-18T15:58:48.18Z</time></trkpt><trkpt lat="43.8891737" lon="11.1944335"><ele>127.66666666666667</ele><time>2026-04-18T15:58:49.177Z</time></trkpt><trkpt lat="43.8890859" lon="11.1942305"><ele>124.0</ele><time>2026-04-18T15:58:50.177Z</time></trkpt><trkpt lat="43.8889896" lon="11.1940639"><ele>128.66666666666669</ele><time>2026-04-18T15:58:51.173Z</time></trkpt><trkpt lat="43.8888977" lon="11.1938611"><ele>133.33333333333334</ele><time>2026-04-18T15:58:52.185Z</time></trkpt><trkpt lat="43.8887949" lon="11.1936682"><ele>138.0</ele><time>2026-04-18T15:58:53.171Z</time></trkpt><trkpt lat="43.8887015" lon="11.1934876"><ele>138.0</ele><time>2026-04-18T15:58:54.172Z</time></trkpt><trkpt lat="43.8886175" lon="11.1933054"><ele>138.0</ele><time>2026-04-18T15:58:55.172Z</time></trkpt><trkpt lat="43.8885336" lon="11.1931008"><ele>138.0</ele><time>2026-04-18T15:58:56.166Z</time></trkpt><trkpt lat="43.8884391" lon="11.1929019"><ele>130.33333333333334</ele><time>2026-04-18T15:58:57.18Z</time></trkpt><trkpt lat="43.8883481" lon="11.1927059"><ele>122.66666666666667</ele><time>2026-04-18T15:58:58.183Z</time></trkpt><trkpt lat="43.8882606" lon="11.1925224"><ele>115.0</ele><time>2026-04-18T15:58:59.181Z</time></trkpt><trkpt lat="43.8881661" lon="11.1923421"><ele>114.66666666666667</ele><time>2026-04-18T15:59:00.172Z</time></trkpt><trkpt lat="43.8880648" lon="11.1921527"><ele>114.33333333333334</ele><time>2026-04-18T15:59:01.185Z</time></trkpt><trkpt lat="43.8879565" lon="11.1919642"><ele>114.0</ele><time>2026-04-18T15:59:02.2Z</time></trkpt><trkpt lat="43.8878713" lon="11.19178"><ele>114.0</ele><time>2026-04-18T15:59:03.2Z</time></trkpt><trkpt lat="43.8877896" lon="11.1916057"><ele>114.0</ele><time>2026-04-18T15:59:04.192Z</time></trkpt><trkpt lat="43.8877021" lon="11.1914293"><ele>114.0</ele><time>2026-04-18T15:59:05.192Z</time></trkpt><trkpt lat="43.8876116" lon="11.1912511"><ele>111.66666666666666</ele><time>2026-04-18T15:59:06.197Z</time></trkpt><trkpt lat="43.8875257" lon="11.1910704"><ele>109.33333333333333</ele><time>2026-04-18T15:59:07.197Z</time></trkpt><trkpt lat="43.8874529" lon="11.1908962"><ele>107.0</ele><time>2026-04-18T15:59:08.194Z</time></trkpt><trkpt lat="43.8873841" lon="11.1907125"><ele>106.75</ele><time>2026-04-18T15:59:09.202Z</time></trkpt><trkpt lat="43.8873267" lon="11.1905258"><ele>106.5</ele><time>2026-04-18T15:59:10.195Z</time></trkpt><trkpt lat="43.8872832" lon="11.1903405"><ele>106.25</ele><time>2026-04-18T15:59:11.191Z</time></trkpt><trkpt lat="43.8872465" lon="11.1901373"><ele>106.0</ele><time>2026-04-18T15:59:12.212Z</time></trkpt><trkpt lat="43.8872132" lon="11.1899365"><ele>106.25</ele><time>2026-04-18T15:59:13.194Z</time></trkpt><trkpt lat="43.8871993" lon="11.189728"><ele>106.5</ele><time>2026-04-18T15:59:14.2Z</time></trkpt><trkpt lat="43.8871968" lon="11.1895234"><ele>106.75</ele><time>2026-04-18T15:59:15.203Z</time></trkpt><trkpt lat="43.8872019" lon="11.1893219"><ele>107.0</ele><time>2026-04-18T15:59:16.204Z</time></trkpt><trkpt lat="43.8872027" lon="11.1891138"><ele>108.0</ele><time>2026-04-18T15:59:17.214Z</time></trkpt><trkpt lat="43.8872119" lon="11.1888982"><ele>109.0</ele><time>2026-04-18T15:59:18.202Z</time></trkpt><trkpt lat="43.8872222" lon="11.1886853"><ele>110.0</ele><time>2026-04-18T15:59:19.204Z</time></trkpt><trkpt lat="43.8872374" lon="11.1884794"><ele>110.0</ele><time>2026-04-18T15:59:20.204Z</time></trkpt><trkpt lat="43.8872362" lon="11.1882839"><ele>110.0</ele><time>2026-04-18T15:59:21.188Z</time></trkpt><trkpt lat="43.8872096" lon="11.1880671"><ele>110.0</ele><time>2026-04-18T15:59:22.185Z</time></trkpt><trkpt lat="43.8871554" lon="11.1878742"><ele>110.0</ele><time>2026-04-18T15:59:23.206Z</time></trkpt><trkpt lat="43.8870747" lon="11.1876797"><ele>110.0</ele><time>2026-04-18T15:59:24.193Z</time></trkpt><trkpt lat="43.8869778" lon="11.1875166"><ele>110.0</ele><time>2026-04-18T15:59:25.179Z</time></trkpt><trkpt lat="43.8868622" lon="11.1873481"><ele>110.0</ele><time>2026-04-18T15:59:26.201Z</time></trkpt><trkpt lat="43.886748" lon="11.1871784"><ele>107.33333333333333</ele><time>2026-04-18T15:59:27.198Z</time></trkpt><trkpt lat="43.8866468" lon="11.1870125"><ele>104.66666666666666</ele><time>2026-04-18T15:59:28.197Z</time></trkpt><trkpt lat="43.8865308" lon="11.1868438"><ele>102.0</ele><time>2026-04-18T15:59:29.197Z</time></trkpt><trkpt lat="43.8864314" lon="11.1866932"><ele>102.0</ele><time>2026-04-18T15:59:30.207Z</time></trkpt><trkpt lat="43.8863262" lon="11.1865362"><ele>102.0</ele><time>2026-04-18T15:59:31.205Z</time></trkpt><trkpt lat="43.8862208" lon="11.1863835"><ele>102.0</ele><time>2026-04-18T15:59:32.21Z</time></trkpt><trkpt lat="43.8861156" lon="11.1862396"><ele>102.5</ele><time>2026-04-18T15:59:33.21Z</time></trkpt><trkpt lat="43.8860122" lon="11.186099"><ele>103.0</ele><time>2026-04-18T15:59:34.216Z</time></trkpt><trkpt lat="43.8858977" lon="11.185968"><ele>103.5</ele><time>2026-04-18T15:59:35.205Z</time></trkpt><trkpt lat="43.8857718" lon="11.1858651"><ele>104.0</ele><time>2026-04-18T15:59:36.196Z</time></trkpt><trkpt lat="43.885631" lon="11.1857625"><ele>102.75</ele><time>2026-04-18T15:59:37.201Z</time></trkpt><trkpt lat="43.8855023" lon="11.1856822"><ele>101.5</ele><time>2026-04-18T15:59:38.206Z</time></trkpt><trkpt lat="43.8853661" lon="11.1855885"><ele>100.25</ele><time>2026-04-18T15:59:39.208Z</time></trkpt><trkpt lat="43.8852429" lon="11.1854819"><ele>99.0</ele><time>2026-04-18T15:59:40.194Z</time></trkpt><trkpt lat="43.8851169" lon="11.1853743"><ele>98.5</ele><time>2026-04-18T15:59:41.201Z</time></trkpt><trkpt lat="43.8850056" lon="11.1852484"><ele>98.0</ele><time>2026-04-18T15:59:42.197Z</time></trkpt><trkpt lat="43.8849326" lon="11.1851042"><ele>97.5</ele><time>2026-04-18T15:59:43.2Z</time></trkpt><trkpt lat="43.8848595" lon="11.1849684"><ele>97.0</ele><time>2026-04-18T15:59:44.186Z</time></trkpt><trkpt lat="43.8847896" lon="11.1847667"><ele>96.33333333333334</ele><time>2026-04-18T15:59:45.192Z</time></trkpt><trkpt lat="43.8847048" lon="11.1845762"><ele>95.66666666666667</ele><time>2026-04-18T15:59:46.177Z</time></trkpt><trkpt lat="43.8846255" lon="11.1843842"><ele>95.0</ele><time>2026-04-18T15:59:47.194Z</time></trkpt><trkpt lat="43.8845631" lon="11.1841976"><ele>95.0</ele><time>2026-04-18T15:59:48.189Z</time></trkpt><trkpt lat="43.8844849" lon="11.1840142"><ele>95.0</ele><time>2026-04-18T15:59:49.194Z</time></trkpt><trkpt lat="43.8844037" lon="11.1838361"><ele>95.0</ele><time>2026-04-18T15:59:50.201Z</time></trkpt><trkpt lat="43.8843255" lon="11.1836527"><ele>94.66666666666667</ele><time>2026-04-18T15:59:51.197Z</time></trkpt><trkpt lat="43.8842574" lon="11.1834632"><ele>94.33333333333333</ele><time>2026-04-18T15:59:52.202Z</time></trkpt><trkpt lat="43.8841852" lon="11.1832773"><ele>94.0</ele><time>2026-04-18T15:59:53.207Z</time></trkpt><trkpt lat="43.8841177" lon="11.1830893"><ele>94.0</ele><time>2026-04-18T15:59:54.203Z</time></trkpt><trkpt lat="43.8840475" lon="11.1829049"><ele>94.0</ele><time>2026-04-18T15:59:55.205Z</time></trkpt><trkpt lat="43.883981" lon="11.1827165"><ele>94.0</ele><time>2026-04-18T15:59:56.203Z</time></trkpt><trkpt lat="43.8839096" lon="11.1825389"><ele>94.0</ele><time>2026-04-18T15:59:57.205Z</time></trkpt><trkpt lat="43.8838441" lon="11.1823697"><ele>93.75</ele><time>2026-04-18T15:59:58.201Z</time></trkpt><trkpt lat="43.8837876" lon="11.1822087"><ele>93.5</ele><time>2026-04-18T15:59:59.204Z</time></trkpt><trkpt lat="43.8837296" lon="11.1820471"><ele>93.25</ele><time>2026-04-18T16:00:00.205Z</time></trkpt><trkpt lat="43.8836833" lon="11.1818804"><ele>93.0</ele><time>2026-04-18T16:00:01.192Z</time></trkpt><trkpt lat="43.883657" lon="11.1817028"><ele>93.0</ele><time>2026-04-18T16:00:02.188Z</time></trkpt><trkpt lat="43.8836107" lon="11.181559"><ele>93.0</ele><time>2026-04-18T16:00:03.168Z</time></trkpt><trkpt lat="43.883572" lon="11.1813929"><ele>93.0</ele><time>2026-04-18T16:00:04.196Z</time></trkpt><trkpt lat="43.883554" lon="11.1812532"><ele>93.0</ele><time>2026-04-18T16:00:05.2Z</time></trkpt><trkpt lat="43.883564" lon="11.1811335"><ele>93.0</ele><time>2026-04-18T16:00:06.189Z</time></trkpt><trkpt lat="43.8835988" lon="11.1810381"><ele>92.60000000000001</ele><time>2026-04-18T16:00:07.184Z</time></trkpt><trkpt lat="43.88367" lon="11.1809532"><ele>92.2</ele><time>2026-04-18T16:00:08.182Z</time></trkpt><trkpt lat="43.8837552" lon="11.1808955"><ele>91.8</ele><time>2026-04-18T16:00:09.187Z</time></trkpt><trkpt lat="43.8838642" lon="11.1808728"><ele>91.4</ele><time>2026-04-18T16:00:10.198Z</time></trkpt><trkpt lat="43.8839925" lon="11.1808832"><ele>91.0</ele><time>2026-04-18T16:00:11.188Z</time></trkpt><trkpt lat="43.8841227" lon="11.1808976"><ele>91.0</ele><time>2026-04-18T16:00:12.192Z</time></trkpt><trkpt lat="43.8842616" lon="11.1809227"><ele>91.0</ele><time>2026-04-18T16:00:13.205Z</time></trkpt><trkpt lat="43.8844022" lon="11.1809442"><ele>91.0</ele><time>2026-04-18T16:00:14.203Z</time></trkpt><trkpt lat="43.8845484" lon="11.1809677"><ele>91.0</ele><time>2026-04-18T16:00:15.206Z</time></trkpt><trkpt lat="43.8846931" lon="11.1809817"><ele>91.0</ele><time>2026-04-18T16:00:16.209Z</time></trkpt><trkpt lat="43.884834" lon="11.1810075"><ele>91.0</ele><time>2026-04-18T16:00:17.207Z</time></trkpt><trkpt lat="43.8849756" lon="11.1810345"><ele>91.0</ele><time>2026-04-18T16:00:18.21Z</time></trkpt><trkpt lat="43.8851202" lon="11.1810631"><ele>91.0</ele><time>2026-04-18T16:00:19.21Z</time></trkpt><trkpt lat="43.8852612" lon="11.1810948"><ele>91.0</ele><time>2026-04-18T16:00:20.203Z</time></trkpt><trkpt lat="43.8853985" lon="11.1811394"><ele>91.0</ele><time>2026-04-18T16:00:21.209Z</time></trkpt><trkpt lat="43.8855471" lon="11.1811983"><ele>91.0</ele><time>2026-04-18T16:00:22.207Z</time></trkpt><trkpt lat="43.8856845" lon="11.1812653"><ele>91.0</ele><time>2026-04-18T16:00:23.211Z</time></trkpt><trkpt lat="43.8858218" lon="11.1813438"><ele>91.66666666666666</ele><time>2026-04-18T16:00:24.214Z</time></trkpt><trkpt lat="43.8859618" lon="11.1814353"><ele>92.33333333333333</ele><time>2026-04-18T16:00:25.207Z</time></trkpt><trkpt lat="43.8860991" lon="11.1815254"><ele>93.0</ele><time>2026-04-18T16:00:26.214Z</time></trkpt><trkpt lat="43.8862293" lon="11.1816282"><ele>93.33333333333333</ele><time>2026-04-18T16:00:27.214Z</time></trkpt><trkpt lat="43.8863721" lon="11.1817268"><ele>93.66666666666666</ele><time>2026-04-18T16:00:28.212Z</time></trkpt><trkpt lat="43.8865071" lon="11.181818"><ele>94.0</ele><time>2026-04-18T16:00:29.206Z</time></trkpt><trkpt lat="43.8866373" lon="11.1819019"><ele>94.0</ele><time>2026-04-18T16:00:30.205Z</time></trkpt><trkpt lat="43.8867736" lon="11.181979"><ele>94.0</ele><time>2026-04-18T16:00:31.199Z</time></trkpt><trkpt lat="43.8869302" lon="11.18205"><ele>94.0</ele><time>2026-04-18T16:00:32.199Z</time></trkpt><trkpt lat="43.8870829" lon="11.1820972"><ele>94.0</ele><time>2026-04-18T16:00:33.19Z</time></trkpt><trkpt lat="43.8872568" lon="11.1821142"><ele>94.0</ele><time>2026-04-18T16:00:34.197Z</time></trkpt><trkpt lat="43.8874051" lon="11.1821571"><ele>94.0</ele><time>2026-04-18T16:00:35.206Z</time></trkpt><trkpt lat="43.8875535" lon="11.1822047"><ele>94.0</ele><time>2026-04-18T16:00:36.235Z</time></trkpt><trkpt lat="43.8877075" lon="11.1822326"><ele>94.0</ele><time>2026-04-18T16:00:37.206Z</time></trkpt><trkpt lat="43.8878627" lon="11.1822696"><ele>94.0</ele><time>2026-04-18T16:00:38.209Z</time></trkpt><trkpt lat="43.888016" lon="11.1823084"><ele>96.66666666666666</ele><time>2026-04-18T16:00:39.199Z</time></trkpt><trkpt lat="43.8881754" lon="11.1823508"><ele>99.33333333333333</ele><time>2026-04-18T16:00:40.212Z</time></trkpt><trkpt lat="43.888326" lon="11.1823847"><ele>102.0</ele><time>2026-04-18T16:00:41.203Z</time></trkpt><trkpt lat="43.8884751" lon="11.1824136"><ele>102.33333333333334</ele><time>2026-04-18T16:00:42.202Z</time></trkpt><trkpt lat="43.8886352" lon="11.1824372"><ele>102.66666666666667</ele><time>2026-04-18T16:00:43.195Z</time></trkpt><trkpt lat="43.8888006" lon="11.182446"><ele>103.0</ele><time>2026-04-18T16:00:44.179Z</time></trkpt><trkpt lat="43.8889599" lon="11.1824643"><ele>103.0</ele><time>2026-04-18T16:00:45.193Z</time></trkpt><trkpt lat="43.8891197" lon="11.182486"><ele>103.0</ele><time>2026-04-18T16:00:46.18Z</time></trkpt><trkpt lat="43.8892759" lon="11.1825079"><ele>103.0</ele><time>2026-04-18T16:00:47.181Z</time></trkpt><trkpt lat="43.8894223" lon="11.1825299"><ele>102.33333333333334</ele><time>2026-04-18T16:00:48.186Z</time></trkpt><trkpt lat="43.8895716" lon="11.1825392"><ele>101.66666666666666</ele><time>2026-04-18T16:00:49.184Z</time></trkpt><trkpt lat="43.8897256" lon="11.1825616"><ele>101.0</ele><time>2026-04-18T16:00:50.185Z</time></trkpt><trkpt lat="43.8898897" lon="11.1825798"><ele>101.0</ele><time>2026-04-18T16:00:51.19Z</time></trkpt><trkpt lat="43.8900489" lon="11.1825975"><ele>101.0</ele><time>2026-04-18T16:00:52.182Z</time></trkpt><trkpt lat="43.8902031" lon="11.1825974"><ele>101.0</ele><time>2026-04-18T16:00:53.183Z</time></trkpt><trkpt lat="43.8903534" lon="11.1826158"><ele>101.5</ele><time>2026-04-18T16:00:54.194Z</time></trkpt><trkpt lat="43.8905096" lon="11.1826326"><ele>102.0</ele><time>2026-04-18T16:00:55.193Z</time></trkpt><trkpt lat="43.8906604" lon="11.1826582"><ele>102.5</ele><time>2026-04-18T16:00:56.189Z</time></trkpt><trkpt lat="43.8907975" lon="11.1826762"><ele>103.0</ele><time>2026-04-18T16:00:57.194Z</time></trkpt><trkpt lat="43.8909501" lon="11.1827171"><ele>103.25</ele><time>2026-04-18T16:00:58.199Z</time></trkpt><trkpt lat="43.8911" lon="11.1827525"><ele>103.5</ele><time>2026-04-18T16:00:59.196Z</time></trkpt><trkpt lat="43.8912337" lon="11.1827849"><ele>103.75</ele><time>2026-04-18T16:01:00.193Z</time></trkpt><trkpt lat="43.8913763" lon="11.1828294"><ele>104.0</ele><time>2026-04-18T16:01:01.184Z</time></trkpt><trkpt lat="43.8915027" lon="11.182883"><ele>104.0</ele><time>2026-04-18T16:01:02.204Z</time></trkpt><trkpt lat="43.891619" lon="11.1829267"><ele>104.0</ele><time>2026-04-18T16:01:03.209Z</time></trkpt><trkpt lat="43.8917256" lon="11.1829822"><ele>104.0</ele><time>2026-04-18T16:01:04.196Z</time></trkpt><trkpt lat="43.8918116" lon="11.1830296"><ele>104.0</ele><time>2026-04-18T16:01:05.215Z</time></trkpt><trkpt lat="43.8918908" lon="11.1831011"><ele>104.0</ele><time>2026-04-18T16:01:06.223Z</time></trkpt><trkpt lat="43.8919635" lon="11.1831837"><ele>104.99999999999999</ele><time>2026-04-18T16:01:07.213Z</time></trkpt><trkpt lat="43.8920035" lon="11.1832605"><ele>106.0</ele><time>2026-04-18T16:01:08.211Z</time></trkpt><trkpt lat="43.8920313" lon="11.1833469"><ele>107.0</ele><time>2026-04-18T16:01:09.213Z</time></trkpt><trkpt lat="43.8920676" lon="11.1834245"><ele>108.0</ele><time>2026-04-18T16:01:10.207Z</time></trkpt><trkpt lat="43.892186" lon="11.1834788"><ele>108.99999999999999</ele><time>2026-04-18T16:01:12.193Z</time></trkpt><trkpt lat="43.8922572" lon="11.183351"><ele>110.0</ele><time>2026-04-18T16:01:14.211Z</time></trkpt><trkpt lat="43.8922704" lon="11.1832573"><ele>110.0</ele><time>2026-04-18T16:01:15.19Z</time></trkpt><trkpt lat="43.8923582" lon="11.183185"><ele>110.0</ele><time>2026-04-18T16:01:17.213Z</time></trkpt><trkpt lat="43.8924358" lon="11.1832288"><ele>110.0</ele><time>2026-04-18T16:01:18.204Z</time></trkpt><trkpt lat="43.8925451" lon="11.1833109"><ele>110.0</ele><time>2026-04-18T16:01:19.193Z</time></trkpt><trkpt lat="43.8926524" lon="11.1834022"><ele>110.0</ele><time>2026-04-18T16:01:20.205Z</time></trkpt><trkpt lat="43.892747" lon="11.1834913"><ele>108.8</ele><time>2026-04-18T16:01:21.201Z</time></trkpt><trkpt lat="43.8928412" lon="11.1835735"><ele>107.6</ele><time>2026-04-18T16:01:22.196Z</time></trkpt><trkpt lat="43.8929334" lon="11.1836604"><ele>106.4</ele><time>2026-04-18T16:01:23.201Z</time></trkpt><trkpt lat="43.8930183" lon="11.1837388"><ele>105.2</ele><time>2026-04-18T16:01:24.201Z</time></trkpt><trkpt lat="43.8931056" lon="11.1838105"><ele>104.0</ele><time>2026-04-18T16:01:25.201Z</time></trkpt><trkpt lat="43.8931811" lon="11.1838643"><ele>103.99999999999999</ele><time>2026-04-18T16:01:26.204Z</time></trkpt><trkpt lat="43.8932501" lon="11.183908"><ele>104.0</ele><time>2026-04-18T16:01:27.196Z</time></trkpt><trkpt lat="43.8933576" lon="11.1838647"><ele>104.0</ele><time>2026-04-18T16:01:29.197Z</time></trkpt><trkpt lat="43.8934181" lon="11.1837295"><ele>104.0</ele><time>2026-04-18T16:01:31.198Z</time></trkpt><trkpt lat="43.893452" lon="11.1836541"><ele>103.99999999999999</ele><time>2026-04-18T16:01:32.202Z</time></trkpt><trkpt lat="43.8934912" lon="11.1835785"><ele>104.0</ele><time>2026-04-18T16:01:33.199Z</time></trkpt><trkpt lat="43.893528" lon="11.1834983"><ele>104.33333333333333</ele><time>2026-04-18T16:01:34.194Z</time></trkpt><trkpt lat="43.8935697" lon="11.1834064"><ele>104.66666666666666</ele><time>2026-04-18T16:01:35.201Z</time></trkpt><trkpt lat="43.8936095" lon="11.1833108"><ele>105.0</ele><time>2026-04-18T16:01:36.197Z</time></trkpt><trkpt lat="43.8936462" lon="11.1832067"><ele>105.33333333333334</ele><time>2026-04-18T16:01:37.207Z</time></trkpt><trkpt lat="43.8936714" lon="11.1830994"><ele>105.66666666666667</ele><time>2026-04-18T16:01:38.199Z</time></trkpt><trkpt lat="43.8937004" lon="11.1829847"><ele>106.0</ele><time>2026-04-18T16:01:39.2Z</time></trkpt><trkpt lat="43.8937308" lon="11.1828748"><ele>106.00000000000001</ele><time>2026-04-18T16:01:40.193Z</time></trkpt><trkpt lat="43.8937571" lon="11.1827691"><ele>106.0</ele><time>2026-04-18T16:01:41.197Z</time></trkpt><trkpt lat="43.8937842" lon="11.1826662"><ele>106.0</ele><time>2026-04-18T16:01:42.187Z</time></trkpt><trkpt lat="43.8938206" lon="11.1825642"><ele>106.0</ele><time>2026-04-18T16:01:43.198Z</time></trkpt><trkpt lat="43.8938608" lon="11.1824765"><ele>106.00000000000001</ele><time>2026-04-18T16:01:44.19Z</time></trkpt><trkpt lat="43.8938982" lon="11.1823994"><ele>106.0</ele><time>2026-04-18T16:01:45.193Z</time></trkpt><trkpt lat="43.8939304" lon="11.1823171"><ele>105.8</ele><time>2026-04-18T16:01:46.189Z</time></trkpt><trkpt lat="43.8939683" lon="11.18224"><ele>105.6</ele><time>2026-04-18T16:01:47.188Z</time></trkpt><trkpt lat="43.8940324" lon="11.1821012"><ele>105.4</ele><time>2026-04-18T16:01:49.179Z</time></trkpt><trkpt lat="43.8940778" lon="11.1819839"><ele>105.2</ele><time>2026-04-18T16:01:51.19Z</time></trkpt><trkpt lat="43.8940135" lon="11.1818773"><ele>105.0</ele><time>2026-04-18T16:01:54.182Z</time></trkpt><trkpt lat="43.8939139" lon="11.1818056"><ele>105.0</ele><time>2026-04-18T16:01:56.176Z</time></trkpt><trkpt lat="43.893827" lon="11.1817287"><ele>105.0</ele><time>2026-04-18T16:01:57.183Z</time></trkpt><trkpt lat="43.8937427" lon="11.181661"><ele>105.0</ele><time>2026-04-18T16:01:58.185Z</time></trkpt><trkpt lat="43.8936615" lon="11.1815949"><ele>105.0</ele><time>2026-04-18T16:01:59.188Z</time></trkpt><trkpt lat="43.8935771" lon="11.1815378"><ele>105.0</ele><time>2026-04-18T16:02:00.183Z</time></trkpt><trkpt lat="43.8934859" lon="11.1814816"><ele>104.6</ele><time>2026-04-18T16:02:01.185Z</time></trkpt><trkpt lat="43.8933906" lon="11.1814193"><ele>104.2</ele><time>2026-04-18T16:02:02.184Z</time></trkpt><trkpt lat="43.8932949" lon="11.1813522"><ele>103.80000000000001</ele><time>2026-04-18T16:02:03.184Z</time></trkpt><trkpt lat="43.8932093" lon="11.1812881"><ele>103.4</ele><time>2026-04-18T16:02:04.18Z</time></trkpt><trkpt lat="43.8931107" lon="11.1812206"><ele>103.0</ele><time>2026-04-18T16:02:05.188Z</time></trkpt><trkpt lat="43.8930081" lon="11.1811503"><ele>103.0</ele><time>2026-04-18T16:02:06.185Z</time></trkpt><trkpt lat="43.8929049" lon="11.1810895"><ele>103.0</ele><time>2026-04-18T16:02:07.182Z</time></trkpt><trkpt lat="43.8928095" lon="11.1810297"><ele>103.0</ele><time>2026-04-18T16:02:08.208Z</time></trkpt><trkpt lat="43.8927167" lon="11.1809677"><ele>103.0</ele><time>2026-04-18T16:02:09.193Z</time></trkpt><trkpt lat="43.8926208" lon="11.1809075"><ele>103.0</ele><time>2026-04-18T16:02:10.192Z</time></trkpt><trkpt lat="43.8925217" lon="11.1808535"><ele>102.80000000000001</ele><time>2026-04-18T16:02:11.193Z</time></trkpt><trkpt lat="43.8924321" lon="11.1807918"><ele>102.6</ele><time>2026-04-18T16:02:12.189Z</time></trkpt><trkpt lat="43.8923495" lon="11.1807328"><ele>102.4</ele><time>2026-04-18T16:02:13.183Z</time></trkpt><trkpt lat="43.8922812" lon="11.1806665"><ele>102.19999999999999</ele><time>2026-04-18T16:02:14.184Z</time></trkpt><trkpt lat="43.8922034" lon="11.1806232"><ele>102.0</ele><time>2026-04-18T16:02:15.185Z</time></trkpt><trkpt lat="43.8921191" lon="11.1805638"><ele>101.8</ele><time>2026-04-18T16:02:16.195Z</time></trkpt><trkpt lat="43.892028" lon="11.1804997"><ele>101.6</ele><time>2026-04-18T16:02:17.198Z</time></trkpt><trkpt lat="43.891943" lon="11.1804353"><ele>101.39999999999999</ele><time>2026-04-18T16:02:18.19Z</time></trkpt><trkpt lat="43.891858" lon="11.1803586"><ele>101.19999999999999</ele><time>2026-04-18T16:02:19.189Z</time></trkpt><trkpt lat="43.8917599" lon="11.1802765"><ele>101.0</ele><time>2026-04-18T16:02:20.197Z</time></trkpt><trkpt lat="43.8916467" lon="11.1802016"><ele>100.5</ele><time>2026-04-18T16:02:21.185Z</time></trkpt><trkpt lat="43.8915203" lon="11.1801408"><ele>100.0</ele><time>2026-04-18T16:02:22.194Z</time></trkpt><trkpt lat="43.8913939" lon="11.1800966"><ele>99.5</ele><time>2026-04-18T16:02:23.197Z</time></trkpt><trkpt lat="43.8912817" lon="11.1800645"><ele>99.0</ele><time>2026-04-18T16:02:24.189Z</time></trkpt><trkpt lat="43.8911869" lon="11.1800577"><ele>99.0</ele><time>2026-04-18T16:02:25.2Z</time></trkpt><trkpt lat="43.8911069" lon="11.180066"><ele>99.0</ele><time>2026-04-18T16:02:26.19Z</time></trkpt><trkpt lat="43.8910336" lon="11.18007"><ele>99.0</ele><time>2026-04-18T16:02:27.192Z</time></trkpt><trkpt lat="43.8909562" lon="11.1800569"><ele>99.0</ele><time>2026-04-18T16:02:28.193Z</time></trkpt><trkpt lat="43.8908755" lon="11.1800432"><ele>99.0</ele><time>2026-04-18T16:02:29.2Z</time></trkpt><trkpt lat="43.8907992" lon="11.1800211"><ele>99.0</ele><time>2026-04-18T16:02:30.197Z</time></trkpt><trkpt lat="43.8907245" lon="11.1799956"><ele>98.83333333333333</ele><time>2026-04-18T16:02:31.204Z</time></trkpt><trkpt lat="43.8906606" lon="11.1799665"><ele>98.66666666666666</ele><time>2026-04-18T16:02:32.201Z</time></trkpt><trkpt lat="43.8905943" lon="11.1799395"><ele>98.5</ele><time>2026-04-18T16:02:33.201Z</time></trkpt><trkpt lat="43.8905295" lon="11.1799152"><ele>98.33333333333333</ele><time>2026-04-18T16:02:34.189Z</time></trkpt><trkpt lat="43.8904253" lon="11.1798769"><ele>98.16666666666666</ele><time>2026-04-18T16:02:36.185Z</time></trkpt><trkpt lat="43.890327" lon="11.1798471"><ele>98.0</ele><time>2026-04-18T16:02:38.206Z</time></trkpt><trkpt lat="43.8902358" lon="11.1798739"><ele>97.80000000000001</ele><time>2026-04-18T16:02:40.208Z</time></trkpt><trkpt lat="43.8901789" lon="11.1799573"><ele>97.6</ele><time>2026-04-18T16:02:42.204Z</time></trkpt><trkpt lat="43.8901324" lon="11.1800714"><ele>97.4</ele><time>2026-04-18T16:02:44.197Z</time></trkpt><trkpt lat="43.8901105" lon="11.1802346"><ele>97.19999999999999</ele><time>2026-04-18T16:02:46.198Z</time></trkpt><trkpt lat="43.8900947" lon="11.1803761"><ele>97.0</ele><time>2026-04-18T16:02:48.197Z</time></trkpt><trkpt lat="43.8900124" lon="11.1803266"><ele>97.00000000000001</ele><time>2026-04-18T16:02:51.208Z</time></trkpt><trkpt lat="43.8900121" lon="11.1801442"><ele>97.0</ele><time>2026-04-18T16:02:53.196Z</time></trkpt><trkpt lat="43.8900214" lon="11.180056"><ele>97.0</ele><time>2026-04-18T16:02:54.196Z</time></trkpt><trkpt lat="43.8900355" lon="11.1799617"><ele>97.0</ele><time>2026-04-18T16:02:55.195Z</time></trkpt><trkpt lat="43.8900556" lon="11.1798129"><ele>97.00000000000001</ele><time>2026-04-18T16:02:57.195Z</time></trkpt><trkpt lat="43.8900837" lon="11.1797244"><ele>97.0</ele><time>2026-04-18T16:02:59.196Z</time></trkpt><trkpt lat="43.8901514" lon="11.1796672"><ele>97.16666666666667</ele><time>2026-04-18T16:03:02.199Z</time></trkpt><trkpt lat="43.8902266" lon="11.1796413"><ele>97.33333333333334</ele><time>2026-04-18T16:03:05.199Z</time></trkpt><trkpt lat="43.8902894" lon="11.1797036"><ele>97.5</ele><time>2026-04-18T16:03:08.19Z</time></trkpt><trkpt lat="43.8903543" lon="11.1797498"><ele>97.66666666666666</ele><time>2026-04-18T16:03:10.22Z</time></trkpt><trkpt lat="43.8904374" lon="11.1796896"><ele>97.83333333333333</ele><time>2026-04-18T16:03:12.198Z</time></trkpt><trkpt lat="43.8904659" lon="11.1795265"><ele>98.0</ele><time>2026-04-18T16:03:14.199Z</time></trkpt><trkpt lat="43.8904507" lon="11.1794107"><ele>98.0</ele><time>2026-04-18T16:03:15.196Z</time></trkpt><trkpt lat="43.890424" lon="11.1793059"><ele>98.0</ele><time>2026-04-18T16:03:16.201Z</time></trkpt><trkpt lat="43.8903628" lon="11.1792278"><ele>98.0</ele><time>2026-04-18T16:03:17.204Z</time></trkpt><trkpt lat="43.8902782" lon="11.179182"><ele>98.0</ele><time>2026-04-18T16:03:18.199Z</time></trkpt><trkpt lat="43.8901696" lon="11.1791454"><ele>98.0</ele><time>2026-04-18T16:03:19.199Z</time></trkpt><trkpt lat="43.8900235" lon="11.1790864"><ele>97.66666666666666</ele><time>2026-04-18T16:03:20.208Z</time></trkpt><trkpt lat="43.88984" lon="11.1790307"><ele>97.33333333333334</ele><time>2026-04-18T16:03:21.197Z</time></trkpt><trkpt lat="43.8896731" lon="11.1789761"><ele>97.0</ele><time>2026-04-18T16:03:22.184Z</time></trkpt><trkpt lat="43.8895593" lon="11.1789379"><ele>97.00000000000001</ele><time>2026-04-18T16:03:23.185Z</time></trkpt><trkpt lat="43.8894673" lon="11.1789244"><ele>97.0</ele><time>2026-04-18T16:03:24.196Z</time></trkpt><trkpt lat="43.8893707" lon="11.1788944"><ele>97.0</ele><time>2026-04-18T16:03:25.192Z</time></trkpt><trkpt lat="43.8892874" lon="11.1788687"><ele>97.0</ele><time>2026-04-18T16:03:26.19Z</time></trkpt><trkpt lat="43.8892097" lon="11.1788488"><ele>97.00000000000001</ele><time>2026-04-18T16:03:27.193Z</time></trkpt><trkpt lat="43.8891361" lon="11.1788337"><ele>97.0</ele><time>2026-04-18T16:03:28.194Z</time></trkpt><trkpt lat="43.8890616" lon="11.1788017"><ele>97.00000000000001</ele><time>2026-04-18T16:03:29.19Z</time></trkpt><trkpt lat="43.8889816" lon="11.1787942"><ele>97.0</ele><time>2026-04-18T16:03:31.184Z</time></trkpt><trkpt lat="43.8889636" lon="11.178881"><ele>97.0</ele><time>2026-04-18T16:03:34.184Z</time></trkpt><trkpt lat="43.889043" lon="11.1788758"><ele>97.0</ele><time>2026-04-18T16:03:36.193Z</time></trkpt><trkpt lat="43.8891148" lon="11.1788279"><ele>97.00000000000001</ele><time>2026-04-18T16:03:38.193Z</time></trkpt><trkpt lat="43.889199" lon="11.1788245"><ele>97.0</ele><time>2026-04-18T16:03:40.199Z</time></trkpt><trkpt lat="43.8892889" lon="11.1788624"><ele>97.0</ele><time>2026-04-18T16:03:43.211Z</time></trkpt><trkpt lat="43.8893878" lon="11.1788966"><ele>97.0</ele><time>2026-04-18T16:03:45.208Z</time></trkpt><trkpt lat="43.8894989" lon="11.1789264"><ele>97.0</ele><time>2026-04-18T16:03:47.21Z</time></trkpt><trkpt lat="43.8896004" lon="11.1789483"><ele>97.0</ele><time>2026-04-18T16:03:49.211Z</time></trkpt><trkpt lat="43.8897004" lon="11.1789741"><ele>97.0</ele><time>2026-04-18T16:03:51.213Z</time></trkpt><trkpt lat="43.8897782" lon="11.1790071"><ele>97.00000000000001</ele><time>2026-04-18T16:03:53.21Z</time></trkpt><trkpt lat="43.8898398" lon="11.1790287"><ele>97.0</ele><time>2026-04-18T16:03:55.22Z</time></trkpt><trkpt lat="43.8898999" lon="11.1790557"><ele>97.0</ele><time>2026-04-18T16:03:57.215Z</time></trkpt><trkpt lat="43.8900004" lon="11.1790873"><ele>97.0</ele><time>2026-04-18T16:03:59.209Z</time></trkpt><trkpt lat="43.8900838" lon="11.1791086"><ele>97.00000000000001</ele><time>2026-04-18T16:04:01.212Z</time></trkpt><trkpt lat="43.8901591" lon="11.1791458"><ele>97.0</ele><time>2026-04-18T16:04:03.199Z</time></trkpt><trkpt lat="43.8902529" lon="11.179198"><ele>97.16666666666667</ele><time>2026-04-18T16:04:06.205Z</time></trkpt><trkpt lat="43.890316" lon="11.1792176"><ele>97.33333333333334</ele><time>2026-04-18T16:04:07.212Z</time></trkpt><trkpt lat="43.8903724" lon="11.1792579"><ele>97.5</ele><time>2026-04-18T16:04:08.201Z</time></trkpt><trkpt lat="43.8904406" lon="11.1794081"><ele>97.66666666666666</ele><time>2026-04-18T16:04:10.203Z</time></trkpt><trkpt lat="43.890451" lon="11.1795033"><ele>97.83333333333333</ele><time>2026-04-18T16:04:11.196Z</time></trkpt><trkpt lat="43.8904468" lon="11.1796184"><ele>98.0</ele><time>2026-04-18T16:04:12.201Z</time></trkpt><trkpt lat="43.8904357" lon="11.1797191"><ele>97.80000000000001</ele><time>2026-04-18T16:04:13.188Z</time></trkpt><trkpt lat="43.8904475" lon="11.1798583"><ele>97.6</ele><time>2026-04-18T16:04:15.211Z</time></trkpt><trkpt lat="43.8905808" lon="11.1799473"><ele>97.4</ele><time>2026-04-18T16:04:17.193Z</time></trkpt><trkpt lat="43.8906621" lon="11.1799836"><ele>97.19999999999999</ele><time>2026-04-18T16:04:18.194Z</time></trkpt><trkpt lat="43.890747" lon="11.180014"><ele>97.0</ele><time>2026-04-18T16:04:19.183Z</time></trkpt><trkpt lat="43.8908427" lon="11.1800473"><ele>97.39999999999999</ele><time>2026-04-18T16:04:20.205Z</time></trkpt><trkpt lat="43.8909342" lon="11.180072"><ele>97.8</ele><time>2026-04-18T16:04:21.208Z</time></trkpt><trkpt lat="43.8910144" lon="11.1800852"><ele>98.2</ele><time>2026-04-18T16:04:22.206Z</time></trkpt><trkpt lat="43.8910807" lon="11.1800979"><ele>98.6</ele><time>2026-04-18T16:04:23.201Z</time></trkpt><trkpt lat="43.8912247" lon="11.1801026"><ele>99.0</ele><time>2026-04-18T16:04:25.202Z</time></trkpt><trkpt lat="43.8913058" lon="11.1800905"><ele>99.0</ele><time>2026-04-18T16:04:26.207Z</time></trkpt><trkpt lat="43.891391" lon="11.1801115"><ele>99.0</ele><time>2026-04-18T16:04:27.196Z</time></trkpt><trkpt lat="43.8914752" lon="11.1801397"><ele>99.0</ele><time>2026-04-18T16:04:28.202Z</time></trkpt><trkpt lat="43.8915642" lon="11.1801787"><ele>99.0</ele><time>2026-04-18T16:04:29.206Z</time></trkpt><trkpt lat="43.8916602" lon="11.1802146"><ele>99.0</ele><time>2026-04-18T16:04:30.202Z</time></trkpt><trkpt lat="43.8917509" lon="11.1802672"><ele>99.4</ele><time>2026-04-18T16:04:31.192Z</time></trkpt><trkpt lat="43.891843" lon="11.1803431"><ele>99.80000000000001</ele><time>2026-04-18T16:04:32.2Z</time></trkpt><trkpt lat="43.8919268" lon="11.1804239"><ele>100.19999999999999</ele><time>2026-04-18T16:04:33.199Z</time></trkpt><trkpt lat="43.8920206" lon="11.1805165"><ele>100.6</ele><time>2026-04-18T16:04:34.177Z</time></trkpt><trkpt lat="43.8921243" lon="11.1805884"><ele>101.0</ele><time>2026-04-18T16:04:35.206Z</time></trkpt><trkpt lat="43.8922393" lon="11.1806555"><ele>101.25</ele><time>2026-04-18T16:04:36.204Z</time></trkpt><trkpt lat="43.8923534" lon="11.1807274"><ele>101.5</ele><time>2026-04-18T16:04:37.195Z</time></trkpt><trkpt lat="43.8924576" lon="11.1807942"><ele>101.75</ele><time>2026-04-18T16:04:38.198Z</time></trkpt><trkpt lat="43.8925668" lon="11.1808679"><ele>102.0</ele><time>2026-04-18T16:04:39.2Z</time></trkpt><trkpt lat="43.8926778" lon="11.1809336"><ele>102.19999999999999</ele><time>2026-04-18T16:04:40.207Z</time></trkpt><trkpt lat="43.8927762" lon="11.1810087"><ele>102.4</ele><time>2026-04-18T16:04:41.195Z</time></trkpt><trkpt lat="43.8928678" lon="11.1810815"><ele>102.6</ele><time>2026-04-18T16:04:42.195Z</time></trkpt><trkpt lat="43.8929557" lon="11.1811617"><ele>102.80000000000001</ele><time>2026-04-18T16:04:43.215Z</time></trkpt><trkpt lat="43.8930428" lon="11.1812254"><ele>103.0</ele><time>2026-04-18T16:04:44.19Z</time></trkpt><trkpt lat="43.8931291" lon="11.1812882"><ele>103.0</ele><time>2026-04-18T16:04:45.191Z</time></trkpt><trkpt lat="43.8932194" lon="11.1813522"><ele>103.0</ele><time>2026-04-18T16:04:46.184Z</time></trkpt><trkpt lat="43.8932998" lon="11.1814127"><ele>103.0</ele><time>2026-04-18T16:04:47.195Z</time></trkpt><trkpt lat="43.893385" lon="11.1814728"><ele>103.0</ele><time>2026-04-18T16:04:48.195Z</time></trkpt><trkpt lat="43.8934633" lon="11.1815373"><ele>103.0</ele><time>2026-04-18T16:04:49.19Z</time></trkpt><trkpt lat="43.8935441" lon="11.1815906"><ele>103.33333333333334</ele><time>2026-04-18T16:04:50.191Z</time></trkpt><trkpt lat="43.893612" lon="11.1816274"><ele>103.66666666666667</ele><time>2026-04-18T16:04:51.182Z</time></trkpt><trkpt lat="43.8936933" lon="11.1816657"><ele>104.0</ele><time>2026-04-18T16:04:53.195Z</time></trkpt><trkpt lat="43.8937585" lon="11.1817102"><ele>104.33333333333334</ele><time>2026-04-18T16:04:55.195Z</time></trkpt><trkpt lat="43.8938407" lon="11.181796"><ele>104.66666666666667</ele><time>2026-04-18T16:04:57.196Z</time></trkpt><trkpt lat="43.8939362" lon="11.1818635"><ele>105.0</ele><time>2026-04-18T16:04:59.193Z</time></trkpt><trkpt lat="43.8940355" lon="11.1819279"><ele>105.0</ele><time>2026-04-18T16:05:01.181Z</time></trkpt><trkpt lat="43.8941038" lon="11.1819347"><ele>105.0</ele><time>2026-04-18T16:05:03.184Z</time></trkpt><trkpt lat="43.8941771" lon="11.1818446"><ele>105.0</ele><time>2026-04-18T16:05:05.181Z</time></trkpt><trkpt lat="43.8942193" lon="11.181716"><ele>105.0</ele><time>2026-04-18T16:05:07.186Z</time></trkpt><trkpt lat="43.8942461" lon="11.18163"><ele>105.0</ele><time>2026-04-18T16:05:09.189Z</time></trkpt><trkpt lat="43.8942234" lon="11.1815144"><ele>105.0</ele><time>2026-04-18T16:05:16.193Z</time></trkpt><trkpt lat="43.8941742" lon="11.1814581"><ele>105.16666666666667</ele><time>2026-04-18T16:05:17.198Z</time></trkpt><trkpt lat="43.8941008" lon="11.1813964"><ele>105.33333333333334</ele><time>2026-04-18T16:05:18.19Z</time></trkpt><trkpt lat="43.8940379" lon="11.1813574"><ele>105.5</ele><time>2026-04-18T16:05:19.185Z</time></trkpt><trkpt lat="43.893979" lon="11.1813242"><ele>105.66666666666667</ele><time>2026-04-18T16:05:20.195Z</time></trkpt><trkpt lat="43.8939191" lon="11.1812804"><ele>105.83333333333334</ele><time>2026-04-18T16:05:21.201Z</time></trkpt><trkpt lat="43.8938468" lon="11.1811666"><ele>106.0</ele><time>2026-04-18T16:05:23.197Z</time></trkpt><trkpt lat="43.8939134" lon="11.1810082"><ele>106.00000000000001</ele><time>2026-04-18T16:05:25.187Z</time></trkpt><trkpt lat="43.8939432" lon="11.1809193"><ele>106.0</ele><time>2026-04-18T16:05:26.195Z</time></trkpt><trkpt lat="43.8939656" lon="11.1807597"><ele>106.0</ele><time>2026-04-18T16:05:28.184Z</time></trkpt><trkpt lat="43.8940067" lon="11.1806915"><ele>106.0</ele><time>2026-04-18T16:05:29.178Z</time></trkpt><trkpt lat="43.8940563" lon="11.1806347"><ele>106.00000000000001</ele><time>2026-04-18T16:05:30.185Z</time></trkpt><trkpt lat="43.8941148" lon="11.1805599"><ele>106.0</ele><time>2026-04-18T16:05:31.19Z</time></trkpt><trkpt lat="43.894169" lon="11.1804633"><ele>105.6</ele><time>2026-04-18T16:05:32.182Z</time></trkpt><trkpt lat="43.8942146" lon="11.1803606"><ele>105.19999999999999</ele><time>2026-04-18T16:05:33.193Z</time></trkpt><trkpt lat="43.8942636" lon="11.1802509"><ele>104.80000000000001</ele><time>2026-04-18T16:05:34.182Z</time></trkpt><trkpt lat="43.8942912" lon="11.1801541"><ele>104.4</ele><time>2026-04-18T16:05:35.183Z</time></trkpt><trkpt lat="43.8943244" lon="11.1800229"><ele>104.0</ele><time>2026-04-18T16:05:37.184Z</time></trkpt><trkpt lat="43.8943712" lon="11.1798895"><ele>105.0</ele><time>2026-04-18T16:05:40.195Z</time></trkpt><trkpt lat="43.8944226" lon="11.1797557"><ele>106.0</ele><time>2026-04-18T16:05:42.192Z</time></trkpt><trkpt lat="43.8944735" lon="11.1796211"><ele>107.0</ele><time>2026-04-18T16:05:44.18Z</time></trkpt><trkpt lat="43.8944084" lon="11.1794983"><ele>108.0</ele><time>2026-04-18T16:05:46.192Z</time></trkpt><trkpt lat="43.8943327" lon="11.1794321"><ele>109.0</ele><time>2026-04-18T16:05:47.189Z</time></trkpt><trkpt lat="43.8942563" lon="11.1793701"><ele>108.80000000000001</ele><time>2026-04-18T16:05:48.178Z</time></trkpt><trkpt lat="43.8941981" lon="11.1792965"><ele>108.60000000000001</ele><time>2026-04-18T16:05:49.178Z</time></trkpt><trkpt lat="43.8941704" lon="11.1792086"><ele>108.4</ele><time>2026-04-18T16:05:50.193Z</time></trkpt><trkpt lat="43.8941897" lon="11.179082"><ele>108.2</ele><time>2026-04-18T16:05:51.186Z</time></trkpt><trkpt lat="43.8942305" lon="11.178925"><ele>108.0</ele><time>2026-04-18T16:05:52.175Z</time></trkpt><trkpt lat="43.894281" lon="11.1787648"><ele>108.0</ele><time>2026-04-18T16:05:53.175Z</time></trkpt><trkpt lat="43.8943491" lon="11.1785753"><ele>108.0</ele><time>2026-04-18T16:05:54.175Z</time></trkpt><trkpt lat="43.8944514" lon="11.1783841"><ele>108.0</ele><time>2026-04-18T16:05:55.184Z</time></trkpt><trkpt lat="43.8945963" lon="11.1781874"><ele>110.5</ele><time>2026-04-18T16:05:56.182Z</time></trkpt><trkpt lat="43.8947262" lon="11.1780128"><ele>113.0</ele><time>2026-04-18T16:05:57.184Z</time></trkpt><trkpt lat="43.8948265" lon="11.1778737"><ele>115.5</ele><time>2026-04-18T16:05:58.18Z</time></trkpt><trkpt lat="43.8949168" lon="11.1777619"><ele>118.0</ele><time>2026-04-18T16:05:59.174Z</time></trkpt><trkpt lat="43.8949965" lon="11.1776458"><ele>118.0</ele><time>2026-04-18T16:06:00.188Z</time></trkpt><trkpt lat="43.8950756" lon="11.1775225"><ele>118.0</ele><time>2026-04-18T16:06:01.177Z</time></trkpt><trkpt lat="43.8951641" lon="11.1774183"><ele>118.0</ele><time>2026-04-18T16:06:02.18Z</time></trkpt><trkpt lat="43.8952324" lon="11.1773073"><ele>118.0</ele><time>2026-04-18T16:06:03.181Z</time></trkpt><trkpt lat="43.89532" lon="11.1772093"><ele>117.80000000000001</ele><time>2026-04-18T16:06:04.169Z</time></trkpt><trkpt lat="43.895383" lon="11.1770867"><ele>117.60000000000001</ele><time>2026-04-18T16:06:05.183Z</time></trkpt><trkpt lat="43.895442" lon="11.1769527"><ele>117.39999999999999</ele><time>2026-04-18T16:06:06.177Z</time></trkpt><trkpt lat="43.8955078" lon="11.176837"><ele>117.19999999999999</ele><time>2026-04-18T16:06:07.177Z</time></trkpt><trkpt lat="43.8955491" lon="11.176732"><ele>117.0</ele><time>2026-04-18T16:06:08.183Z</time></trkpt><trkpt lat="43.895582" lon="11.1766292"><ele>117.0</ele><time>2026-04-18T16:06:09.175Z</time></trkpt><trkpt lat="43.8956074" lon="11.1765372"><ele>117.0</ele><time>2026-04-18T16:06:10.171Z</time></trkpt><trkpt lat="43.8956135" lon="11.1764243"><ele>117.0</ele><time>2026-04-18T16:06:11.185Z</time></trkpt><trkpt lat="43.8955998" lon="11.1763085"><ele>117.0</ele><time>2026-04-18T16:06:12.176Z</time></trkpt><trkpt lat="43.8955639" lon="11.1761768"><ele>117.0</ele><time>2026-04-18T16:06:13.182Z</time></trkpt><trkpt lat="43.895527" lon="11.176049"><ele>117.0</ele><time>2026-04-18T16:06:14.173Z</time></trkpt><trkpt lat="43.8955123" lon="11.1759597"><ele>118.8</ele><time>2026-04-18T16:06:15.168Z</time></trkpt><trkpt lat="43.8955739" lon="11.1758441"><ele>120.6</ele><time>2026-04-18T16:06:17.171Z</time></trkpt><trkpt lat="43.8956552" lon="11.1758035"><ele>122.39999999999999</ele><time>2026-04-18T16:06:18.17Z</time></trkpt><trkpt lat="43.8957489" lon="11.1757601"><ele>124.19999999999999</ele><time>2026-04-18T16:06:19.176Z</time></trkpt><trkpt lat="43.8958319" lon="11.1757042"><ele>126.0</ele><time>2026-04-18T16:06:20.175Z</time></trkpt><trkpt lat="43.8959003" lon="11.1756362"><ele>126.16666666666667</ele><time>2026-04-18T16:06:21.176Z</time></trkpt><trkpt lat="43.895944" lon="11.1755561"><ele>126.33333333333334</ele><time>2026-04-18T16:06:22.171Z</time></trkpt><trkpt lat="43.8959654" lon="11.1754723"><ele>126.5</ele><time>2026-04-18T16:06:23.186Z</time></trkpt><trkpt lat="43.8959625" lon="11.1752988"><ele>126.66666666666667</ele><time>2026-04-18T16:06:25.185Z</time></trkpt><trkpt lat="43.8959388" lon="11.1751925"><ele>126.83333333333334</ele><time>2026-04-18T16:06:26.184Z</time></trkpt><trkpt lat="43.895912" lon="11.1750943"><ele>127.0</ele><time>2026-04-18T16:06:27.193Z</time></trkpt><trkpt lat="43.8958827" lon="11.1749927"><ele>129.0</ele><time>2026-04-18T16:06:28.189Z</time></trkpt><trkpt lat="43.8958553" lon="11.1748925"><ele>131.0</ele><time>2026-04-18T16:06:29.186Z</time></trkpt><trkpt lat="43.8958299" lon="11.1747969"><ele>133.0</ele><time>2026-04-18T16:06:30.183Z</time></trkpt><trkpt lat="43.8958142" lon="11.1746969"><ele>135.0</ele><time>2026-04-18T16:06:31.187Z</time></trkpt><trkpt lat="43.8957961" lon="11.1745891"><ele>137.0</ele><time>2026-04-18T16:06:32.187Z</time></trkpt><trkpt lat="43.8957741" lon="11.1744802"><ele>139.0</ele><time>2026-04-18T16:06:33.188Z</time></trkpt><trkpt lat="43.8957694" lon="11.1743735"><ele>141.0</ele><time>2026-04-18T16:06:34.187Z</time></trkpt><trkpt lat="43.8957719" lon="11.1742777"><ele>143.0</ele><time>2026-04-18T16:06:35.186Z</time></trkpt><trkpt lat="43.8957779" lon="11.1741737"><ele>145.0</ele><time>2026-04-18T16:06:36.176Z</time></trkpt><trkpt lat="43.8957786" lon="11.1740611"><ele>147.0</ele><time>2026-04-18T16:06:37.177Z</time></trkpt><trkpt lat="43.8957768" lon="11.1739533"><ele>149.0</ele><time>2026-04-18T16:06:38.185Z</time></trkpt><trkpt lat="43.8957704" lon="11.1738373"><ele>151.0</ele><time>2026-04-18T16:06:39.182Z</time></trkpt><trkpt lat="43.8957712" lon="11.1737118"><ele>153.33333333333334</ele><time>2026-04-18T16:06:40.183Z</time></trkpt><trkpt lat="43.8957702" lon="11.1735894"><ele>155.66666666666669</ele><time>2026-04-18T16:06:41.189Z</time></trkpt><trkpt lat="43.8957624" lon="11.1734766"><ele>158.0</ele><time>2026-04-18T16:06:42.186Z</time></trkpt><trkpt lat="43.8957571" lon="11.1733765"><ele>160.33333333333334</ele><time>2026-04-18T16:06:43.178Z</time></trkpt><trkpt lat="43.895749" lon="11.173249"><ele>162.66666666666666</ele><time>2026-04-18T16:06:44.18Z</time></trkpt><trkpt lat="43.8957401" lon="11.1731153"><ele>165.0</ele><time>2026-04-18T16:06:45.191Z</time></trkpt><trkpt lat="43.8957388" lon="11.1729982"><ele>166.83333333333334</ele><time>2026-04-18T16:06:46.184Z</time></trkpt><trkpt lat="43.8957511" lon="11.1728729"><ele>168.66666666666666</ele><time>2026-04-18T16:06:47.205Z</time></trkpt><trkpt lat="43.8957606" lon="11.1727563"><ele>170.5</ele><time>2026-04-18T16:06:48.185Z</time></trkpt><trkpt lat="43.8957769" lon="11.1726408"><ele>172.33333333333331</ele><time>2026-04-18T16:06:49.188Z</time></trkpt><trkpt lat="43.8958022" lon="11.1725285"><ele>174.16666666666666</ele><time>2026-04-18T16:06:50.191Z</time></trkpt><trkpt lat="43.8958277" lon="11.1724126"><ele>176.0</ele><time>2026-04-18T16:06:51.192Z</time></trkpt><trkpt lat="43.895853" lon="11.172305"><ele>177.42857142857144</ele><time>2026-04-18T16:06:52.186Z</time></trkpt><trkpt lat="43.8958747" lon="11.1721976"><ele>178.85714285714286</ele><time>2026-04-18T16:06:53.189Z</time></trkpt><trkpt lat="43.8958932" lon="11.1720936"><ele>180.28571428571428</ele><time>2026-04-18T16:06:54.194Z</time></trkpt><trkpt lat="43.8958985" lon="11.1720034"><ele>181.71428571428572</ele><time>2026-04-18T16:06:55.18Z</time></trkpt><trkpt lat="43.8958905" lon="11.1719164"><ele>183.14285714285714</ele><time>2026-04-18T16:06:56.196Z</time></trkpt><trkpt lat="43.8958504" lon="11.1718276"><ele>184.57142857142858</ele><time>2026-04-18T16:06:57.195Z</time></trkpt><trkpt lat="43.8957891" lon="11.1717808"><ele>186.0</ele><time>2026-04-18T16:06:58.185Z</time></trkpt><trkpt lat="43.8957211" lon="11.1717842"><ele>186.0</ele><time>2026-04-18T16:06:59.186Z</time></trkpt><trkpt lat="43.8956557" lon="11.1718147"><ele>186.0</ele><time>2026-04-18T16:07:00.176Z</time></trkpt><trkpt lat="43.8955908" lon="11.1718911"><ele>186.0</ele><time>2026-04-18T16:07:01.178Z</time></trkpt><trkpt lat="43.8955167" lon="11.1719626"><ele>186.0</ele><time>2026-04-18T16:07:02.184Z</time></trkpt><trkpt lat="43.8954453" lon="11.1720434"><ele>186.0</ele><time>2026-04-18T16:07:03.176Z</time></trkpt><trkpt lat="43.8953664" lon="11.1721064"><ele>186.0</ele><time>2026-04-18T16:07:04.176Z</time></trkpt><trkpt lat="43.8953017" lon="11.1721551"><ele>186.0</ele><time>2026-04-18T16:07:05.179Z</time></trkpt><trkpt lat="43.8952507" lon="11.1722089"><ele>186.0</ele><time>2026-04-18T16:07:06.187Z</time></trkpt><trkpt lat="43.8951954" lon="11.1722699"><ele>186.0</ele><time>2026-04-18T16:07:07.184Z</time></trkpt><trkpt lat="43.895129" lon="11.1723111"><ele>186.0</ele><time>2026-04-18T16:07:08.183Z</time></trkpt><trkpt lat="43.8950654" lon="11.1723465"><ele>186.0</ele><time>2026-04-18T16:07:09.182Z</time></trkpt><trkpt lat="43.8949425" lon="11.1723339"><ele>186.0</ele><time>2026-04-18T16:07:11.186Z</time></trkpt><trkpt lat="43.8948673" lon="11.1722107"><ele>188.0</ele><time>2026-04-18T16:07:13.189Z</time></trkpt><trkpt lat="43.8948335" lon="11.1720532"><ele>190.0</ele><time>2026-04-18T16:07:15.19Z</time></trkpt><trkpt lat="43.8948275" lon="11.1719569"><ele>192.0</ele><time>2026-04-18T16:07:16.191Z</time></trkpt><trkpt lat="43.8948163" lon="11.1718482"><ele>194.0</ele><time>2026-04-18T16:07:17.193Z</time></trkpt><trkpt lat="43.8948031" lon="11.1717372"><ele>196.0</ele><time>2026-04-18T16:07:18.206Z</time></trkpt><trkpt lat="43.8947869" lon="11.171637"><ele>198.0</ele><time>2026-04-18T16:07:19.188Z</time></trkpt><trkpt lat="43.894765" lon="11.1714723"><ele>199.0</ele><time>2026-04-18T16:07:21.187Z</time></trkpt><trkpt lat="43.8947666" lon="11.1713645"><ele>200.0</ele><time>2026-04-18T16:07:23.186Z</time></trkpt><trkpt lat="43.8946951" lon="11.1713353"><ele>201.0</ele><time>2026-04-18T16:07:28.195Z</time></trkpt><trkpt lat="43.8946274" lon="11.171315"><ele>202.0</ele><time>2026-04-18T16:07:31.19Z</time></trkpt><trkpt lat="43.8945949" lon="11.1712242"><ele>203.0</ele><time>2026-04-18T16:09:06.173Z</time></trkpt><trkpt lat="43.8945377" lon="11.1711342"><ele>204.0</ele><time>2026-04-18T16:09:08.178Z</time></trkpt><trkpt lat="43.894506" lon="11.1710562"><ele>205.0</ele><time>2026-04-18T16:09:09.175Z</time></trkpt><trkpt lat="43.8944657" lon="11.1708658"><ele>204.99999999999997</ele><time>2026-04-18T16:09:11.174Z</time></trkpt><trkpt lat="43.8944332" lon="11.1707648"><ele>205.0</ele><time>2026-04-18T16:09:12.174Z</time></trkpt><trkpt lat="43.8944113" lon="11.1706557"><ele>205.0</ele><time>2026-04-18T16:09:13.174Z</time></trkpt><trkpt lat="43.8943789" lon="11.1705455"><ele>205.0</ele><time>2026-04-18T16:09:14.177Z</time></trkpt><trkpt lat="43.8943357" lon="11.1704572"><ele>204.99999999999997</ele><time>2026-04-18T16:09:15.17Z</time></trkpt><trkpt lat="43.8942659" lon="11.1703825"><ele>205.0</ele><time>2026-04-18T16:09:16.178Z</time></trkpt><trkpt lat="43.8941913" lon="11.1703046"><ele>205.49999999999997</ele><time>2026-04-18T16:09:17.176Z</time></trkpt><trkpt lat="43.8941342" lon="11.1702257"><ele>206.0</ele><time>2026-04-18T16:09:18.179Z</time></trkpt><trkpt lat="43.894092" lon="11.170122"><ele>206.5</ele><time>2026-04-18T16:09:19.181Z</time></trkpt><trkpt lat="43.894043" lon="11.1700271"><ele>207.0</ele><time>2026-04-18T16:09:20.173Z</time></trkpt><trkpt lat="43.8939851" lon="11.1699201"><ele>207.49999999999997</ele><time>2026-04-18T16:09:21.172Z</time></trkpt><trkpt lat="43.8939335" lon="11.1698125"><ele>208.0</ele><time>2026-04-18T16:09:22.215Z</time></trkpt><trkpt lat="43.8938905" lon="11.1697242"><ele>208.0</ele><time>2026-04-18T16:09:23.178Z</time></trkpt><trkpt lat="43.8938494" lon="11.169651"><ele>208.0</ele><time>2026-04-18T16:09:24.18Z</time></trkpt><trkpt lat="43.8937467" lon="11.1695794"><ele>208.0</ele><time>2026-04-18T16:09:26.175Z</time></trkpt><trkpt lat="43.8936876" lon="11.1695427"><ele>208.0</ele><time>2026-04-18T16:09:27.181Z</time></trkpt><trkpt lat="43.8935424" lon="11.1693434"><ele>207.99999999999997</ele><time>2026-04-18T16:09:30.183Z</time></trkpt><trkpt lat="43.8934984" lon="11.1692757"><ele>208.0</ele><time>2026-04-18T16:09:31.172Z</time></trkpt><trkpt lat="43.8934396" lon="11.1692247"><ele>208.0</ele><time>2026-04-18T16:09:32.181Z</time></trkpt><trkpt lat="43.8933807" lon="11.1691735"><ele>208.0</ele><time>2026-04-18T16:09:33.17Z</time></trkpt><trkpt lat="43.8933173" lon="11.1691353"><ele>207.99999999999997</ele><time>2026-04-18T16:09:34.174Z</time></trkpt><trkpt lat="43.8932223" lon="11.1690558"><ele>208.0</ele><time>2026-04-18T16:09:36.178Z</time></trkpt><trkpt lat="43.8931369" lon="11.1689454"><ele>207.99999999999997</ele><time>2026-04-18T16:09:38.187Z</time></trkpt><trkpt lat="43.8930795" lon="11.1688894"><ele>208.0</ele><time>2026-04-18T16:09:39.174Z</time></trkpt><trkpt lat="43.8930103" lon="11.1688671"><ele>208.0</ele><time>2026-04-18T16:09:40.171Z</time></trkpt><trkpt lat="43.8929285" lon="11.1688622"><ele>208.0</ele><time>2026-04-18T16:09:41.166Z</time></trkpt><trkpt lat="43.8928407" lon="11.1688624"><ele>207.99999999999997</ele><time>2026-04-18T16:09:42.177Z</time></trkpt><trkpt lat="43.8927645" lon="11.1688346"><ele>208.0</ele><time>2026-04-18T16:09:43.173Z</time></trkpt><trkpt lat="43.8927007" lon="11.1688059"><ele>207.99999999999997</ele><time>2026-04-18T16:09:44.182Z</time></trkpt><trkpt lat="43.892635" lon="11.168785"><ele>208.0</ele><time>2026-04-18T16:09:45.178Z</time></trkpt><trkpt lat="43.8925766" lon="11.168749"><ele>208.0</ele><time>2026-04-18T16:09:46.174Z</time></trkpt><trkpt lat="43.8925143" lon="11.1686529"><ele>208.0</ele><time>2026-04-18T16:09:48.183Z</time></trkpt><trkpt lat="43.8924634" lon="11.1685897"><ele>207.99999999999997</ele><time>2026-04-18T16:10:17.189Z</time></trkpt><trkpt lat="43.892355" lon="11.1685942"><ele>208.0</ele><time>2026-04-18T16:10:19.183Z</time></trkpt><trkpt lat="43.8922676" lon="11.1685739"><ele>207.25</ele><time>2026-04-18T16:10:20.179Z</time></trkpt><trkpt lat="43.8921276" lon="11.1685201"><ele>206.5</ele><time>2026-04-18T16:10:22.192Z</time></trkpt><trkpt lat="43.8920438" lon="11.1685008"><ele>205.75</ele><time>2026-04-18T16:10:23.198Z</time></trkpt><trkpt lat="43.8919477" lon="11.1684725"><ele>205.0</ele><time>2026-04-18T16:10:24.178Z</time></trkpt><trkpt lat="43.8917275" lon="11.1684243"><ele>205.0</ele><time>2026-04-18T16:10:26.19Z</time></trkpt><trkpt lat="43.8916253" lon="11.1684032"><ele>205.0</ele><time>2026-04-18T16:10:27.192Z</time></trkpt><trkpt lat="43.8915204" lon="11.1683784"><ele>205.0</ele><time>2026-04-18T16:10:28.195Z</time></trkpt><trkpt lat="43.8914183" lon="11.1683575"><ele>205.0</ele><time>2026-04-18T16:10:29.192Z</time></trkpt><trkpt lat="43.8912908" lon="11.1683336"><ele>205.0</ele><time>2026-04-18T16:10:31.176Z</time></trkpt><trkpt lat="43.8911925" lon="11.1683459"><ele>204.99999999999997</ele><time>2026-04-18T16:10:47.19Z</time></trkpt><trkpt lat="43.8910825" lon="11.1683729"><ele>205.0</ele><time>2026-04-18T16:10:49.185Z</time></trkpt><trkpt lat="43.891021" lon="11.1683937"><ele>205.0</ele><time>2026-04-18T16:10:50.179Z</time></trkpt><trkpt lat="43.8909545" lon="11.1684355"><ele>205.0</ele><time>2026-04-18T16:10:51.184Z</time></trkpt><trkpt lat="43.8908936" lon="11.1684823"><ele>204.99999999999997</ele><time>2026-04-18T16:10:52.191Z</time></trkpt><trkpt lat="43.8908227" lon="11.1685445"><ele>205.0</ele><time>2026-04-18T16:10:53.191Z</time></trkpt><trkpt lat="43.8907481" lon="11.168614"><ele>205.99999999999997</ele><time>2026-04-18T16:10:54.205Z</time></trkpt><trkpt lat="43.8906731" lon="11.1686766"><ele>207.0</ele><time>2026-04-18T16:10:55.19Z</time></trkpt><trkpt lat="43.8906038" lon="11.1687282"><ele>208.0</ele><time>2026-04-18T16:10:56.183Z</time></trkpt><trkpt lat="43.8905385" lon="11.1687783"><ele>209.0</ele><time>2026-04-18T16:10:57.187Z</time></trkpt><trkpt lat="43.8904727" lon="11.1688156"><ele>209.99999999999997</ele><time>2026-04-18T16:10:58.186Z</time></trkpt><trkpt lat="43.8903996" lon="11.1688522"><ele>211.0</ele><time>2026-04-18T16:10:59.185Z</time></trkpt><trkpt lat="43.8902532" lon="11.1689151"><ele>211.0</ele><time>2026-04-18T16:11:01.182Z</time></trkpt><trkpt lat="43.8901844" lon="11.1689373"><ele>211.0</ele><time>2026-04-18T16:11:02.181Z</time></trkpt><trkpt lat="43.8900565" lon="11.1689711"><ele>211.0</ele><time>2026-04-18T16:11:04.174Z</time></trkpt><trkpt lat="43.8899697" lon="11.1690082"><ele>211.0</ele><time>2026-04-18T16:11:05.173Z</time></trkpt><trkpt lat="43.8898786" lon="11.169029"><ele>211.0</ele><time>2026-04-18T16:11:06.171Z</time></trkpt><trkpt lat="43.8897881" lon="11.169066"><ele>208.75</ele><time>2026-04-18T16:11:07.177Z</time></trkpt><trkpt lat="43.8896953" lon="11.1691053"><ele>206.5</ele><time>2026-04-18T16:11:08.177Z</time></trkpt><trkpt lat="43.8896026" lon="11.1691284"><ele>204.25</ele><time>2026-04-18T16:11:09.176Z</time></trkpt><trkpt lat="43.8895162" lon="11.1691672"><ele>202.0</ele><time>2026-04-18T16:11:10.178Z</time></trkpt><trkpt lat="43.889337" lon="11.1692409"><ele>201.8</ele><time>2026-04-18T16:11:12.184Z</time></trkpt><trkpt lat="43.8892528" lon="11.1692672"><ele>201.6</ele><time>2026-04-18T16:11:13.18Z</time></trkpt><trkpt lat="43.8891749" lon="11.1692878"><ele>201.4</ele><time>2026-04-18T16:11:14.178Z</time></trkpt><trkpt lat="43.8890342" lon="11.1693393"><ele>201.20000000000002</ele><time>2026-04-18T16:11:16.18Z</time></trkpt><trkpt lat="43.888956" lon="11.1693931"><ele>201.0</ele><time>2026-04-18T16:11:17.177Z</time></trkpt><trkpt lat="43.8888773" lon="11.1694542"><ele>201.0</ele><time>2026-04-18T16:11:18.185Z</time></trkpt><trkpt lat="43.8887955" lon="11.1695187"><ele>201.0</ele><time>2026-04-18T16:11:19.181Z</time></trkpt><trkpt lat="43.8886474" lon="11.1696745"><ele>201.0</ele><time>2026-04-18T16:11:21.181Z</time></trkpt><trkpt lat="43.8885814" lon="11.1697694"><ele>201.0</ele><time>2026-04-18T16:11:22.181Z</time></trkpt><trkpt lat="43.8885212" lon="11.1698474"><ele>199.8</ele><time>2026-04-18T16:11:23.188Z</time></trkpt><trkpt lat="43.8884" lon="11.1699674"><ele>198.60000000000002</ele><time>2026-04-18T16:11:25.203Z</time></trkpt><trkpt lat="43.8883321" lon="11.1700184"><ele>197.4</ele><time>2026-04-18T16:11:26.182Z</time></trkpt><trkpt lat="43.8882112" lon="11.1701018"><ele>196.2</ele><time>2026-04-18T16:11:28.187Z</time></trkpt><trkpt lat="43.8881447" lon="11.1701276"><ele>195.0</ele><time>2026-04-18T16:11:29.18Z</time></trkpt><trkpt lat="43.8879857" lon="11.1701347"><ele>195.0</ele><time>2026-04-18T16:11:31.175Z</time></trkpt><trkpt lat="43.8878799" lon="11.1701154"><ele>195.0</ele><time>2026-04-18T16:11:32.182Z</time></trkpt><trkpt lat="43.887714" lon="11.1701241"><ele>195.0</ele><time>2026-04-18T16:11:34.177Z</time></trkpt><trkpt lat="43.887562" lon="11.1701084"><ele>195.0</ele><time>2026-04-18T16:11:37.173Z</time></trkpt><trkpt lat="43.8874935" lon="11.1700139"><ele>193.0</ele><time>2026-04-18T16:11:40.187Z</time></trkpt><trkpt lat="43.8874179" lon="11.169862"><ele>191.0</ele><time>2026-04-18T16:11:43.175Z</time></trkpt><trkpt lat="43.8874095" lon="11.1697711"><ele>189.0</ele><time>2026-04-18T16:11:44.169Z</time></trkpt><trkpt lat="43.8874132" lon="11.1695583"><ele>187.0</ele><time>2026-04-18T16:11:46.177Z</time></trkpt><trkpt lat="43.8874283" lon="11.1694613"><ele>185.0</ele><time>2026-04-18T16:11:47.174Z</time></trkpt><trkpt lat="43.8874349" lon="11.1693726"><ele>185.0</ele><time>2026-04-18T16:11:48.171Z</time></trkpt><trkpt lat="43.887427" lon="11.1692683"><ele>185.0</ele><time>2026-04-18T16:11:49.173Z</time></trkpt><trkpt lat="43.8874293" lon="11.1691676"><ele>185.0</ele><time>2026-04-18T16:11:50.176Z</time></trkpt><trkpt lat="43.8874344" lon="11.1690566"><ele>185.0</ele><time>2026-04-18T16:11:51.178Z</time></trkpt><trkpt lat="43.8874505" lon="11.1689349"><ele>185.0</ele><time>2026-04-18T16:11:52.176Z</time></trkpt><trkpt lat="43.8874582" lon="11.1687555"><ele>185.0</ele><time>2026-04-18T16:11:54.176Z</time></trkpt><trkpt lat="43.8874565" lon="11.1686634"><ele>184.16666666666666</ele><time>2026-04-18T16:11:55.175Z</time></trkpt><trkpt lat="43.8874525" lon="11.1685564"><ele>183.33333333333331</ele><time>2026-04-18T16:11:56.195Z</time></trkpt><trkpt lat="43.8874464" lon="11.1684666"><ele>182.5</ele><time>2026-04-18T16:11:57.177Z</time></trkpt><trkpt lat="43.8874487" lon="11.1683427"><ele>181.66666666666666</ele><time>2026-04-18T16:11:59.171Z</time></trkpt><trkpt lat="43.8874535" lon="11.1682366"><ele>180.83333333333334</ele><time>2026-04-18T16:12:01.18Z</time></trkpt><trkpt lat="43.8874655" lon="11.1681115"><ele>180.0</ele><time>2026-04-18T16:12:03.172Z</time></trkpt><trkpt lat="43.8874792" lon="11.1679782"><ele>180.6</ele><time>2026-04-18T16:12:05.183Z</time></trkpt><trkpt lat="43.887481" lon="11.167884"><ele>181.2</ele><time>2026-04-18T16:12:07.185Z</time></trkpt><trkpt lat="43.8875832" lon="11.1678178"><ele>181.8</ele><time>2026-04-18T16:12:09.189Z</time></trkpt><trkpt lat="43.8876645" lon="11.1677481"><ele>182.4</ele><time>2026-04-18T16:12:11.18Z</time></trkpt><trkpt lat="43.8877322" lon="11.1677281"><ele>183.0</ele><time>2026-04-18T16:12:13.185Z</time></trkpt><trkpt lat="43.8878341" lon="11.1676493"><ele>183.0</ele><time>2026-04-18T16:12:15.187Z</time></trkpt><trkpt lat="43.8878961" lon="11.1676218"><ele>183.0</ele><time>2026-04-18T16:12:16.177Z</time></trkpt><trkpt lat="43.888006" lon="11.1675896"><ele>183.0</ele><time>2026-04-18T16:12:18.177Z</time></trkpt><trkpt lat="43.8880663" lon="11.1675486"><ele>183.0</ele><time>2026-04-18T16:12:19.183Z</time></trkpt><trkpt lat="43.8881758" lon="11.1674387"><ele>183.0</ele><time>2026-04-18T16:12:21.183Z</time></trkpt><trkpt lat="43.888258" lon="11.1673559"><ele>183.8</ele><time>2026-04-18T16:12:22.19Z</time></trkpt><trkpt lat="43.8883335" lon="11.1672846"><ele>184.60000000000002</ele><time>2026-04-18T16:12:23.185Z</time></trkpt><trkpt lat="43.8884006" lon="11.1672187"><ele>185.39999999999998</ele><time>2026-04-18T16:12:24.184Z</time></trkpt><trkpt lat="43.8884624" lon="11.1671453"><ele>186.2</ele><time>2026-04-18T16:12:25.187Z</time></trkpt><trkpt lat="43.8885422" lon="11.1670416"><ele>187.0</ele><time>2026-04-18T16:12:27.192Z</time></trkpt><trkpt lat="43.888603" lon="11.166926"><ele>187.0</ele><time>2026-04-18T16:12:29.18Z</time></trkpt><trkpt lat="43.8886453" lon="11.1667895"><ele>187.0</ele><time>2026-04-18T16:12:31.176Z</time></trkpt><trkpt lat="43.8886422" lon="11.1665235"><ele>187.0</ele><time>2026-04-18T16:12:33.169Z</time></trkpt><trkpt lat="43.8886189" lon="11.1663947"><ele>187.0</ele><time>2026-04-18T16:12:34.167Z</time></trkpt><trkpt lat="43.8885849" lon="11.1663077"><ele>186.2</ele><time>2026-04-18T16:12:35.164Z</time></trkpt><trkpt lat="43.8885204" lon="11.1661545"><ele>185.39999999999998</ele><time>2026-04-18T16:12:37.172Z</time></trkpt><trkpt lat="43.8885006" lon="11.1660359"><ele>184.60000000000002</ele><time>2026-04-18T16:12:38.171Z</time></trkpt><trkpt lat="43.8884854" lon="11.1659098"><ele>183.8</ele><time>2026-04-18T16:12:39.177Z</time></trkpt><trkpt lat="43.8884716" lon="11.1657844"><ele>183.0</ele><time>2026-04-18T16:12:40.173Z</time></trkpt><trkpt lat="43.8884572" lon="11.1656714"><ele>181.83333333333334</ele><time>2026-04-18T16:12:41.169Z</time></trkpt><trkpt lat="43.8884429" lon="11.1655744"><ele>180.66666666666666</ele><time>2026-04-18T16:12:42.173Z</time></trkpt><trkpt lat="43.888426" lon="11.1654801"><ele>179.5</ele><time>2026-04-18T16:12:43.17Z</time></trkpt><trkpt lat="43.8884156" lon="11.1653883"><ele>178.33333333333331</ele><time>2026-04-18T16:12:44.175Z</time></trkpt><trkpt lat="43.8884075" lon="11.1652767"><ele>177.16666666666666</ele><time>2026-04-18T16:12:45.166Z</time></trkpt><trkpt lat="43.8884107" lon="11.165185"><ele>176.0</ele><time>2026-04-18T16:12:46.167Z</time></trkpt><trkpt lat="43.8884045" lon="11.1650013"><ele>174.0</ele><time>2026-04-18T16:12:48.163Z</time></trkpt><trkpt lat="43.8883954" lon="11.1648948"><ele>172.0</ele><time>2026-04-18T16:12:49.171Z</time></trkpt><trkpt lat="43.888383" lon="11.1648087"><ele>170.0</ele><time>2026-04-18T16:12:50.179Z</time></trkpt><trkpt lat="43.8883577" lon="11.1647279"><ele>168.0</ele><time>2026-04-18T16:12:51.168Z</time></trkpt><trkpt lat="43.8883295" lon="11.1646369"><ele>166.0</ele><time>2026-04-18T16:12:52.17Z</time></trkpt><trkpt lat="43.8882964" lon="11.1645244"><ele>164.0</ele><time>2026-04-18T16:12:53.169Z</time></trkpt><trkpt lat="43.8882521" lon="11.1644063"><ele>163.39999999999998</ele><time>2026-04-18T16:12:54.174Z</time></trkpt><trkpt lat="43.8882135" lon="11.1642894"><ele>162.8</ele><time>2026-04-18T16:12:55.172Z</time></trkpt><trkpt lat="43.8881548" lon="11.1641249"><ele>162.2</ele><time>2026-04-18T16:12:57.172Z</time></trkpt><trkpt lat="43.8880917" lon="11.1640029"><ele>161.60000000000002</ele><time>2026-04-18T16:12:59.164Z</time></trkpt><trkpt lat="43.8880814" lon="11.1639105"><ele>161.0</ele><time>2026-04-18T16:13:02.168Z</time></trkpt><trkpt lat="43.8880427" lon="11.1637918"><ele>160.16666666666666</ele><time>2026-04-18T16:13:04.188Z</time></trkpt><trkpt lat="43.8880174" lon="11.1636627"><ele>159.33333333333331</ele><time>2026-04-18T16:13:06.191Z</time></trkpt><trkpt lat="43.8879949" lon="11.1635191"><ele>158.5</ele><time>2026-04-18T16:13:08.175Z</time></trkpt><trkpt lat="43.8880054" lon="11.1634011"><ele>157.66666666666666</ele><time>2026-04-18T16:13:10.19Z</time></trkpt><trkpt lat="43.8879945" lon="11.1633115"><ele>156.83333333333334</ele><time>2026-04-18T16:13:14.189Z</time></trkpt><trkpt lat="43.8879605" lon="11.1632243"><ele>156.0</ele><time>2026-04-18T16:13:16.189Z</time></trkpt><trkpt lat="43.8878823" lon="11.1630918"><ele>153.66666666666666</ele><time>2026-04-18T16:13:19.186Z</time></trkpt><trkpt lat="43.8878676" lon="11.1629341"><ele>151.33333333333334</ele><time>2026-04-18T16:13:21.169Z</time></trkpt><trkpt lat="43.8878335" lon="11.1628165"><ele>149.0</ele><time>2026-04-18T16:13:22.181Z</time></trkpt><trkpt lat="43.8877999" lon="11.162723"><ele>146.66666666666669</ele><time>2026-04-18T16:13:23.182Z</time></trkpt><trkpt lat="43.8877648" lon="11.1626498"><ele>144.33333333333334</ele><time>2026-04-18T16:13:24.172Z</time></trkpt><trkpt lat="43.8877168" lon="11.1625903"><ele>142.0</ele><time>2026-04-18T16:13:33.195Z</time></trkpt><trkpt lat="43.8876302" lon="11.1626052"><ele>141.79999999999998</ele><time>2026-04-18T16:13:40.193Z</time></trkpt><trkpt lat="43.8875292" lon="11.1626052"><ele>141.6</ele><time>2026-04-18T16:13:42.186Z</time></trkpt><trkpt lat="43.8874443" lon="11.1625555"><ele>141.39999999999998</ele><time>2026-04-18T16:13:44.185Z</time></trkpt><trkpt lat="43.8873796" lon="11.1624951"><ele>141.2</ele><time>2026-04-18T16:13:46.191Z</time></trkpt><trkpt lat="43.8872858" lon="11.1624388"><ele>141.0</ele><time>2026-04-18T16:13:48.174Z</time></trkpt><trkpt lat="43.8871262" lon="11.1622978"><ele>141.0</ele><time>2026-04-18T16:13:51.185Z</time></trkpt><trkpt lat="43.8870713" lon="11.1622398"><ele>141.0</ele><time>2026-04-18T16:13:52.179Z</time></trkpt><trkpt lat="43.8869895" lon="11.1621614"><ele>141.0</ele><time>2026-04-18T16:13:53.183Z</time></trkpt><trkpt lat="43.8869124" lon="11.1621074"><ele>141.0</ele><time>2026-04-18T16:13:54.184Z</time></trkpt><trkpt lat="43.8868329" lon="11.162041"><ele>141.0</ele><time>2026-04-18T16:13:55.185Z</time></trkpt><trkpt lat="43.8867581" lon="11.1619765"><ele>141.0</ele><time>2026-04-18T16:13:56.184Z</time></trkpt><trkpt lat="43.8866781" lon="11.161904"><ele>140.5</ele><time>2026-04-18T16:13:57.184Z</time></trkpt><trkpt lat="43.8866017" lon="11.1618288"><ele>140.0</ele><time>2026-04-18T16:13:58.178Z</time></trkpt><trkpt lat="43.8865246" lon="11.1617654"><ele>139.5</ele><time>2026-04-18T16:13:59.185Z</time></trkpt><trkpt lat="43.8863705" lon="11.1616427"><ele>139.0</ele><time>2026-04-18T16:14:01.186Z</time></trkpt><trkpt lat="43.886204" lon="11.1614946"><ele>138.33333333333334</ele><time>2026-04-18T16:14:03.183Z</time></trkpt><trkpt lat="43.886123" lon="11.1614203"><ele>137.66666666666669</ele><time>2026-04-18T16:14:04.189Z</time></trkpt><trkpt lat="43.8860449" lon="11.1613598"><ele>137.0</ele><time>2026-04-18T16:14:05.191Z</time></trkpt><trkpt lat="43.8859654" lon="11.1612972"><ele>136.33333333333334</ele><time>2026-04-18T16:14:06.184Z</time></trkpt><trkpt lat="43.8858974" lon="11.1612452"><ele>135.66666666666666</ele><time>2026-04-18T16:14:07.189Z</time></trkpt><trkpt lat="43.8858477" lon="11.1611885"><ele>135.0</ele><time>2026-04-18T16:14:08.183Z</time></trkpt><trkpt lat="43.8857744" lon="11.1610787"><ele>135.0</ele><time>2026-04-18T16:14:11.184Z</time></trkpt><trkpt lat="43.885707" lon="11.1610447"><ele>135.0</ele><time>2026-04-18T16:14:15.179Z</time></trkpt><trkpt lat="43.8856455" lon="11.161012"><ele>135.0</ele><time>2026-04-18T16:14:17.181Z</time></trkpt><trkpt lat="43.8855103" lon="11.1608704"><ele>135.0</ele><time>2026-04-18T16:14:19.175Z</time></trkpt><trkpt lat="43.8854172" lon="11.1607765"><ele>135.0</ele><time>2026-04-18T16:14:20.186Z</time></trkpt><trkpt lat="43.8852975" lon="11.1606554"><ele>132.25</ele><time>2026-04-18T16:14:21.175Z</time></trkpt><trkpt lat="43.8851899" lon="11.1605434"><ele>129.5</ele><time>2026-04-18T16:14:22.185Z</time></trkpt><trkpt lat="43.8850949" lon="11.1604369"><ele>126.75</ele><time>2026-04-18T16:14:23.185Z</time></trkpt><trkpt lat="43.8849945" lon="11.1603406"><ele>124.0</ele><time>2026-04-18T16:14:24.191Z</time></trkpt><trkpt lat="43.8848837" lon="11.1602242"><ele>123.75</ele><time>2026-04-18T16:14:25.189Z</time></trkpt><trkpt lat="43.8847802" lon="11.1601182"><ele>123.5</ele><time>2026-04-18T16:14:26.182Z</time></trkpt><trkpt lat="43.8846801" lon="11.1600199"><ele>123.25</ele><time>2026-04-18T16:14:27.188Z</time></trkpt><trkpt lat="43.8845792" lon="11.159919"><ele>123.0</ele><time>2026-04-18T16:14:28.185Z</time></trkpt><trkpt lat="43.8844859" lon="11.1598238"><ele>122.4</ele><time>2026-04-18T16:14:29.178Z</time></trkpt><trkpt lat="43.8844017" lon="11.1597425"><ele>121.80000000000001</ele><time>2026-04-18T16:14:30.184Z</time></trkpt><trkpt lat="43.8843354" lon="11.1596758"><ele>121.2</ele><time>2026-04-18T16:14:31.192Z</time></trkpt><trkpt lat="43.8842838" lon="11.1596193"><ele>120.6</ele><time>2026-04-18T16:14:32.178Z</time></trkpt><trkpt lat="43.8841949" lon="11.159574"><ele>120.0</ele><time>2026-04-18T16:14:34.173Z</time></trkpt><trkpt lat="43.8841001" lon="11.1596839"><ele>120.0</ele><time>2026-04-18T16:14:36.164Z</time></trkpt><trkpt lat="43.8840429" lon="11.1597973"><ele>120.0</ele><time>2026-04-18T16:14:37.164Z</time></trkpt><trkpt lat="43.8839861" lon="11.1599177"><ele>120.0</ele><time>2026-04-18T16:14:38.169Z</time></trkpt><trkpt lat="43.8839304" lon="11.1600185"><ele>120.0</ele><time>2026-04-18T16:14:39.173Z</time></trkpt><trkpt lat="43.8838882" lon="11.1601125"><ele>120.0</ele><time>2026-04-18T16:14:40.315Z</time></trkpt><trkpt lat="43.88382" lon="11.1602359"><ele>120.2</ele><time>2026-04-18T16:14:42.154Z</time></trkpt><trkpt lat="43.8837326" lon="11.1602317"><ele>120.4</ele><time>2026-04-18T16:14:44.152Z</time></trkpt><trkpt lat="43.8836576" lon="11.1601797"><ele>120.6</ele><time>2026-04-18T16:14:45.153Z</time></trkpt><trkpt lat="43.883545" lon="11.1601123"><ele>120.8</ele><time>2026-04-18T16:14:46.158Z</time></trkpt><trkpt lat="43.8834471" lon="11.1600592"><ele>121.0</ele><time>2026-04-18T16:14:47.163Z</time></trkpt><trkpt lat="43.8833538" lon="11.1600089"><ele>119.19999999999999</ele><time>2026-04-18T16:14:48.157Z</time></trkpt><trkpt lat="43.8832798" lon="11.1599496"><ele>117.39999999999999</ele><time>2026-04-18T16:14:49.156Z</time></trkpt><trkpt lat="43.8832126" lon="11.1598688"><ele>115.6</ele><time>2026-04-18T16:14:50.161Z</time></trkpt><trkpt lat="43.883148" lon="11.1597741"><ele>113.8</ele><time>2026-04-18T16:14:51.161Z</time></trkpt><trkpt lat="43.8830763" lon="11.1596863"><ele>112.0</ele><time>2026-04-18T16:14:52.16Z</time></trkpt><trkpt lat="43.8829871" lon="11.1595861"><ele>112.0</ele><time>2026-04-18T16:14:53.168Z</time></trkpt><trkpt lat="43.8829043" lon="11.1595005"><ele>111.99999999999999</ele><time>2026-04-18T16:14:54.165Z</time></trkpt><trkpt lat="43.8828189" lon="11.1594206"><ele>111.99999999999999</ele><time>2026-04-18T16:14:55.161Z</time></trkpt><trkpt lat="43.882736" lon="11.1593294"><ele>112.0</ele><time>2026-04-18T16:14:56.163Z</time></trkpt><trkpt lat="43.8826506" lon="11.1592283"><ele>112.0</ele><time>2026-04-18T16:14:57.17Z</time></trkpt><trkpt lat="43.8825707" lon="11.1591272"><ele>107.0</ele><time>2026-04-18T16:14:58.165Z</time></trkpt><trkpt lat="43.8824899" lon="11.1590095"><ele>102.0</ele><time>2026-04-18T16:14:59.159Z</time></trkpt><trkpt lat="43.882413" lon="11.1588974"><ele>97.0</ele><time>2026-04-18T16:15:00.163Z</time></trkpt><trkpt lat="43.882321" lon="11.1587656"><ele>92.0</ele><time>2026-04-18T16:15:01.162Z</time></trkpt><trkpt lat="43.8822439" lon="11.1586518"><ele>92.0</ele><time>2026-04-18T16:15:02.178Z</time></trkpt><trkpt lat="43.8821769" lon="11.1585454"><ele>92.0</ele><time>2026-04-18T16:15:03.164Z</time></trkpt><trkpt lat="43.8821075" lon="11.1584593"><ele>92.0</ele><time>2026-04-18T16:15:04.161Z</time></trkpt><trkpt lat="43.8820187" lon="11.1583645"><ele>92.0</ele><time>2026-04-18T16:15:05.162Z</time></trkpt><trkpt lat="43.8819434" lon="11.1582863"><ele>92.0</ele><time>2026-04-18T16:15:06.163Z</time></trkpt><trkpt lat="43.8818584" lon="11.1581951"><ele>89.25</ele><time>2026-04-18T16:15:07.161Z</time></trkpt><trkpt lat="43.8817581" lon="11.1580699"><ele>86.5</ele><time>2026-04-18T16:15:08.169Z</time></trkpt><trkpt lat="43.8816595" lon="11.1579662"><ele>83.75</ele><time>2026-04-18T16:15:09.171Z</time></trkpt><trkpt lat="43.8815671" lon="11.1578911"><ele>81.0</ele><time>2026-04-18T16:15:10.16Z</time></trkpt><trkpt lat="43.8814927" lon="11.1578257"><ele>81.0</ele><time>2026-04-18T16:15:11.158Z</time></trkpt><trkpt lat="43.8814118" lon="11.157738"><ele>81.0</ele><time>2026-04-18T16:15:13.161Z</time></trkpt><trkpt lat="43.8814155" lon="11.1575489"><ele>81.0</ele><time>2026-04-18T16:15:15.165Z</time></trkpt><trkpt lat="43.8814323" lon="11.1574426"><ele>81.0</ele><time>2026-04-18T16:15:16.164Z</time></trkpt><trkpt lat="43.8814564" lon="11.157335"><ele>81.0</ele><time>2026-04-18T16:15:17.165Z</time></trkpt><trkpt lat="43.8814945" lon="11.1572626"><ele>80.66666666666667</ele><time>2026-04-18T16:15:18.157Z</time></trkpt><trkpt lat="43.8815439" lon="11.1572067"><ele>80.33333333333333</ele><time>2026-04-18T16:15:19.16Z</time></trkpt><trkpt lat="43.881653" lon="11.1571536"><ele>80.0</ele><time>2026-04-18T16:15:21.152Z</time></trkpt><trkpt lat="43.8817152" lon="11.157124"><ele>79.66666666666666</ele><time>2026-04-18T16:15:23.15Z</time></trkpt><trkpt lat="43.8816392" lon="11.1570337"><ele>79.33333333333333</ele><time>2026-04-18T16:15:39.153Z</time></trkpt><trkpt lat="43.8815747" lon="11.1569971"><ele>79.0</ele><time>2026-04-18T16:15:40.152Z</time></trkpt><trkpt lat="43.8814889" lon="11.1569491"><ele>79.0</ele><time>2026-04-18T16:15:41.152Z</time></trkpt><trkpt lat="43.8814102" lon="11.1568961"><ele>79.0</ele><time>2026-04-18T16:15:42.155Z</time></trkpt><trkpt lat="43.8813295" lon="11.1568538"><ele>79.0</ele><time>2026-04-18T16:15:43.162Z</time></trkpt><trkpt lat="43.8812581" lon="11.1568297"><ele>79.0</ele><time>2026-04-18T16:15:44.156Z</time></trkpt><trkpt lat="43.8811919" lon="11.1567942"><ele>79.0</ele><time>2026-04-18T16:15:45.153Z</time></trkpt><trkpt lat="43.8811228" lon="11.1567614"><ele>79.0</ele><time>2026-04-18T16:15:46.154Z</time></trkpt><trkpt lat="43.8810143" lon="11.1567613"><ele>79.0</ele><time>2026-04-18T16:15:48.156Z</time></trkpt><trkpt lat="43.8809418" lon="11.1568602"><ele>79.0</ele><time>2026-04-18T16:15:50.156Z</time></trkpt><trkpt lat="43.8809138" lon="11.1569528"><ele>79.0</ele><time>2026-04-18T16:15:51.155Z</time></trkpt><trkpt lat="43.8808956" lon="11.1570389"><ele>79.0</ele><time>2026-04-18T16:15:52.153Z</time></trkpt><trkpt lat="43.8808652" lon="11.1571265"><ele>79.0</ele><time>2026-04-18T16:15:53.147Z</time></trkpt><trkpt lat="43.8808264" lon="11.1572165"><ele>79.0</ele><time>2026-04-18T16:15:54.16Z</time></trkpt><trkpt lat="43.8807782" lon="11.1572981"><ele>78.33333333333333</ele><time>2026-04-18T16:15:55.162Z</time></trkpt><trkpt lat="43.8807251" lon="11.1573776"><ele>77.66666666666666</ele><time>2026-04-18T16:15:56.163Z</time></trkpt><trkpt lat="43.8806751" lon="11.157476"><ele>77.0</ele><time>2026-04-18T16:15:57.165Z</time></trkpt><trkpt lat="43.8806211" lon="11.1575611"><ele>76.33333333333333</ele><time>2026-04-18T16:15:58.168Z</time></trkpt><trkpt lat="43.8805525" lon="11.1576443"><ele>75.66666666666667</ele><time>2026-04-18T16:15:59.165Z</time></trkpt><trkpt lat="43.8804734" lon="11.1577165"><ele>75.0</ele><time>2026-04-18T16:16:00.167Z</time></trkpt><trkpt lat="43.880402" lon="11.1577942"><ele>75.0</ele><time>2026-04-18T16:16:01.167Z</time></trkpt><trkpt lat="43.8803251" lon="11.157863"><ele>75.0</ele><time>2026-04-18T16:16:02.175Z</time></trkpt><trkpt lat="43.8802461" lon="11.1579406"><ele>75.0</ele><time>2026-04-18T16:16:03.178Z</time></trkpt><trkpt lat="43.8801621" lon="11.1579856"><ele>75.0</ele><time>2026-04-18T16:16:04.195Z</time></trkpt><trkpt lat="43.8800844" lon="11.1580405"><ele>75.0</ele><time>2026-04-18T16:16:05.174Z</time></trkpt><trkpt lat="43.8799982" lon="11.158092"><ele>74.66666666666667</ele><time>2026-04-18T16:16:06.189Z</time></trkpt><trkpt lat="43.8799199" lon="11.1581418"><ele>74.33333333333333</ele><time>2026-04-18T16:16:07.172Z</time></trkpt><trkpt lat="43.8798403" lon="11.1581927"><ele>74.0</ele><time>2026-04-18T16:16:08.181Z</time></trkpt><trkpt lat="43.8797558" lon="11.1582364"><ele>73.66666666666666</ele><time>2026-04-18T16:16:09.18Z</time></trkpt><trkpt lat="43.8796705" lon="11.1582807"><ele>73.33333333333333</ele><time>2026-04-18T16:16:10.181Z</time></trkpt><trkpt lat="43.8795939" lon="11.158326"><ele>73.0</ele><time>2026-04-18T16:16:11.177Z</time></trkpt><trkpt lat="43.8795235" lon="11.1583713"><ele>73.0</ele><time>2026-04-18T16:16:12.178Z</time></trkpt><trkpt lat="43.8794434" lon="11.1584203"><ele>73.0</ele><time>2026-04-18T16:16:13.184Z</time></trkpt><trkpt lat="43.8793659" lon="11.1584518"><ele>73.0</ele><time>2026-04-18T16:16:14.164Z</time></trkpt><trkpt lat="43.8792872" lon="11.1584634"><ele>73.0</ele><time>2026-04-18T16:16:15.181Z</time></trkpt><trkpt lat="43.8792011" lon="11.1584821"><ele>73.0</ele><time>2026-04-18T16:16:16.178Z</time></trkpt><trkpt lat="43.879095" lon="11.1584918"><ele>73.0</ele><time>2026-04-18T16:16:17.173Z</time></trkpt><trkpt lat="43.878978" lon="11.1585214"><ele>72.25</ele><time>2026-04-18T16:16:18.169Z</time></trkpt><trkpt lat="43.8788583" lon="11.1585721"><ele>71.5</ele><time>2026-04-18T16:16:19.163Z</time></trkpt><trkpt lat="43.8787384" lon="11.1586176"><ele>70.75</ele><time>2026-04-18T16:16:20.166Z</time></trkpt><trkpt lat="43.8786226" lon="11.158648"><ele>70.0</ele><time>2026-04-18T16:16:21.173Z</time></trkpt><trkpt lat="43.8785075" lon="11.1586764"><ele>70.2</ele><time>2026-04-18T16:16:22.171Z</time></trkpt><trkpt lat="43.8783949" lon="11.1587061"><ele>70.4</ele><time>2026-04-18T16:16:23.177Z</time></trkpt><trkpt lat="43.8782937" lon="11.1587378"><ele>70.6</ele><time>2026-04-18T16:16:24.173Z</time></trkpt><trkpt lat="43.8781952" lon="11.158772"><ele>70.8</ele><time>2026-04-18T16:16:25.174Z</time></trkpt><trkpt lat="43.8780999" lon="11.1588013"><ele>71.0</ele><time>2026-04-18T16:16:26.176Z</time></trkpt><trkpt lat="43.8780104" lon="11.1588439"><ele>71.0</ele><time>2026-04-18T16:16:27.175Z</time></trkpt><trkpt lat="43.8779255" lon="11.1588746"><ele>71.0</ele><time>2026-04-18T16:16:28.177Z</time></trkpt><trkpt lat="43.8778488" lon="11.1589034"><ele>71.0</ele><time>2026-04-18T16:16:29.169Z</time></trkpt><trkpt lat="43.877769" lon="11.1589256"><ele>71.0</ele><time>2026-04-18T16:16:30.18Z</time></trkpt><trkpt lat="43.8776489" lon="11.1589745"><ele>71.0</ele><time>2026-04-18T16:16:32.173Z</time></trkpt><trkpt lat="43.8775585" lon="11.1590018"><ele>70.66666666666667</ele><time>2026-04-18T16:16:34.169Z</time></trkpt><trkpt lat="43.8774883" lon="11.1589359"><ele>70.33333333333334</ele><time>2026-04-18T16:16:37.168Z</time></trkpt><trkpt lat="43.87745" lon="11.1587966"><ele>70.0</ele><time>2026-04-18T16:16:39.163Z</time></trkpt><trkpt lat="43.8774262" lon="11.1587075"><ele>69.66666666666667</ele><time>2026-04-18T16:16:40.169Z</time></trkpt><trkpt lat="43.8774042" lon="11.1586146"><ele>69.33333333333333</ele><time>2026-04-18T16:16:41.173Z</time></trkpt><trkpt lat="43.8773719" lon="11.1585383"><ele>69.0</ele><time>2026-04-18T16:16:42.172Z</time></trkpt><trkpt lat="43.8773184" lon="11.1584636"><ele>69.0</ele><time>2026-04-18T16:16:43.16Z</time></trkpt><trkpt lat="43.8772551" lon="11.1584003"><ele>69.0</ele><time>2026-04-18T16:16:44.176Z</time></trkpt><trkpt lat="43.8772043" lon="11.158338"><ele>69.0</ele><time>2026-04-18T16:16:45.164Z</time></trkpt><trkpt lat="43.8771611" lon="11.1582703"><ele>69.0</ele><time>2026-04-18T16:16:46.164Z</time></trkpt><trkpt lat="43.8771359" lon="11.1581252"><ele>69.0</ele><time>2026-04-18T16:16:48.158Z</time></trkpt><trkpt lat="43.8771376" lon="11.1580348"><ele>69.0</ele><time>2026-04-18T16:16:49.165Z</time></trkpt><trkpt lat="43.8771437" lon="11.1579328"><ele>69.0</ele><time>2026-04-18T16:16:50.164Z</time></trkpt><trkpt lat="43.8771424" lon="11.1578131"><ele>69.0</ele><time>2026-04-18T16:16:51.162Z</time></trkpt><trkpt lat="43.8771434" lon="11.1577048"><ele>69.0</ele><time>2026-04-18T16:16:52.155Z</time></trkpt><trkpt lat="43.8771553" lon="11.1575875"><ele>69.0</ele><time>2026-04-18T16:16:53.158Z</time></trkpt><trkpt lat="43.8771684" lon="11.1574592"><ele>69.0</ele><time>2026-04-18T16:16:54.164Z</time></trkpt><trkpt lat="43.8771831" lon="11.15733"><ele>69.0</ele><time>2026-04-18T16:16:55.174Z</time></trkpt><trkpt lat="43.877193" lon="11.1572007"><ele>69.0</ele><time>2026-04-18T16:16:56.18Z</time></trkpt><trkpt lat="43.8772014" lon="11.157082"><ele>69.0</ele><time>2026-04-18T16:16:57.179Z</time></trkpt><trkpt lat="43.8772208" lon="11.1569796"><ele>69.0</ele><time>2026-04-18T16:16:58.184Z</time></trkpt><trkpt lat="43.8772459" lon="11.1568874"><ele>69.0</ele><time>2026-04-18T16:16:59.18Z</time></trkpt><trkpt lat="43.8772709" lon="11.1568022"><ele>69.0</ele><time>2026-04-18T16:17:00.183Z</time></trkpt><trkpt lat="43.8772946" lon="11.15671"><ele>69.0</ele><time>2026-04-18T16:17:01.18Z</time></trkpt><trkpt lat="43.8773316" lon="11.1565415"><ele>70.2</ele><time>2026-04-18T16:17:03.176Z</time></trkpt><trkpt lat="43.8773602" lon="11.15638"><ele>71.4</ele><time>2026-04-18T16:17:05.184Z</time></trkpt><trkpt lat="43.8773721" lon="11.1562596"><ele>72.6</ele><time>2026-04-18T16:17:07.183Z</time></trkpt><trkpt lat="43.8773552" lon="11.1561294"><ele>73.8</ele><time>2026-04-18T16:17:09.177Z</time></trkpt><trkpt lat="43.8772604" lon="11.1560943"><ele>75.0</ele><time>2026-04-18T16:17:11.176Z</time></trkpt><trkpt lat="43.8771857" lon="11.1561095"><ele>75.0</ele><time>2026-04-18T16:17:12.183Z</time></trkpt><trkpt lat="43.8771104" lon="11.1561036"><ele>75.0</ele><time>2026-04-18T16:17:13.182Z</time></trkpt><trkpt lat="43.8770372" lon="11.1560961"><ele>75.0</ele><time>2026-04-18T16:17:14.182Z</time></trkpt><trkpt lat="43.876966" lon="11.156087"><ele>75.0</ele><time>2026-04-18T16:17:15.169Z</time></trkpt><trkpt lat="43.8768964" lon="11.1560698"><ele>75.0</ele><time>2026-04-18T16:17:16.175Z</time></trkpt><trkpt lat="43.8767858" lon="11.1560446"><ele>75.0</ele><time>2026-04-18T16:17:18.181Z</time></trkpt><trkpt lat="43.8766656" lon="11.1560132"><ele>74.83333333333333</ele><time>2026-04-18T16:17:20.181Z</time></trkpt><trkpt lat="43.8765987" lon="11.1559986"><ele>74.66666666666667</ele><time>2026-04-18T16:17:21.174Z</time></trkpt><trkpt lat="43.8765309" lon="11.1559875"><ele>74.5</ele><time>2026-04-18T16:17:22.176Z</time></trkpt><trkpt lat="43.8764618" lon="11.1559806"><ele>74.33333333333334</ele><time>2026-04-18T16:17:23.175Z</time></trkpt><trkpt lat="43.8763594" lon="11.1559673"><ele>74.16666666666667</ele><time>2026-04-18T16:17:25.177Z</time></trkpt><trkpt lat="43.8763048" lon="11.1558684"><ele>74.0</ele><time>2026-04-18T16:17:27.161Z</time></trkpt><trkpt lat="43.8763365" lon="11.1557401"><ele>77.16666666666667</ele><time>2026-04-18T16:17:30.173Z</time></trkpt><trkpt lat="43.8763892" lon="11.1556342"><ele>80.33333333333334</ele><time>2026-04-18T16:17:32.175Z</time></trkpt><trkpt lat="43.8764351" lon="11.1555193"><ele>83.5</ele><time>2026-04-18T16:17:34.171Z</time></trkpt><trkpt lat="43.8765156" lon="11.1554606"><ele>86.66666666666667</ele><time>2026-04-18T16:17:36.169Z</time></trkpt><trkpt lat="43.8765669" lon="11.155397"><ele>89.83333333333333</ele><time>2026-04-18T16:17:38.18Z</time></trkpt><trkpt lat="43.8765277" lon="11.1553123"><ele>93.0</ele><time>2026-04-18T16:17:40.171Z</time></trkpt><trkpt lat="43.8764588" lon="11.1552803"><ele>93.0</ele><time>2026-04-18T16:17:41.17Z</time></trkpt><trkpt lat="43.8763675" lon="11.1552583"><ele>93.0</ele><time>2026-04-18T16:17:42.164Z</time></trkpt><trkpt lat="43.87626" lon="11.1552316"><ele>93.0</ele><time>2026-04-18T16:17:43.161Z</time></trkpt><trkpt lat="43.8761427" lon="11.1551846"><ele>93.0</ele><time>2026-04-18T16:17:44.165Z</time></trkpt><trkpt lat="43.8760328" lon="11.1551258"><ele>93.0</ele><time>2026-04-18T16:17:45.16Z</time></trkpt><trkpt lat="43.8759243" lon="11.1550591"><ele>90.5</ele><time>2026-04-18T16:17:46.163Z</time></trkpt><trkpt lat="43.875806" lon="11.1550008"><ele>88.0</ele><time>2026-04-18T16:17:47.165Z</time></trkpt><trkpt lat="43.8756789" lon="11.1549488"><ele>85.5</ele><time>2026-04-18T16:17:48.165Z</time></trkpt><trkpt lat="43.8755573" lon="11.1548771"><ele>83.0</ele><time>2026-04-18T16:17:49.165Z</time></trkpt><trkpt lat="43.8754235" lon="11.1548017"><ele>86.33333333333334</ele><time>2026-04-18T16:17:50.164Z</time></trkpt><trkpt lat="43.8752787" lon="11.1547284"><ele>89.66666666666667</ele><time>2026-04-18T16:17:51.161Z</time></trkpt><trkpt lat="43.8751234" lon="11.1546624"><ele>93.0</ele><time>2026-04-18T16:17:52.162Z</time></trkpt><trkpt lat="43.8749841" lon="11.1546051"><ele>93.0</ele><time>2026-04-18T16:17:53.17Z</time></trkpt><trkpt lat="43.8748633" lon="11.1545458"><ele>93.0</ele><time>2026-04-18T16:17:54.171Z</time></trkpt><trkpt lat="43.8747573" lon="11.1544919"><ele>93.0</ele><time>2026-04-18T16:17:55.16Z</time></trkpt><trkpt lat="43.874661" lon="11.1544121"><ele>93.0</ele><time>2026-04-18T16:17:57.153Z</time></trkpt><trkpt lat="43.8746209" lon="11.1543195"><ele>93.0</ele><time>2026-04-18T16:17:58.166Z</time></trkpt><trkpt lat="43.8746058" lon="11.1541712"><ele>93.0</ele><time>2026-04-18T16:18:00.163Z</time></trkpt><trkpt lat="43.8746566" lon="11.15405"><ele>93.0</ele><time>2026-04-18T16:18:02.154Z</time></trkpt><trkpt lat="43.8747781" lon="11.154024"><ele>93.0</ele><time>2026-04-18T16:18:04.157Z</time></trkpt><trkpt lat="43.8748532" lon="11.1540279"><ele>93.0</ele><time>2026-04-18T16:18:05.163Z</time></trkpt><trkpt lat="43.8749171" lon="11.1540171"><ele>93.0</ele><time>2026-04-18T16:18:06.162Z</time></trkpt><trkpt lat="43.874986" lon="11.1539094"><ele>96.0</ele><time>2026-04-18T16:18:08.177Z</time></trkpt><trkpt lat="43.8749829" lon="11.1537981"><ele>99.0</ele><time>2026-04-18T16:18:09.152Z</time></trkpt><trkpt lat="43.8749538" lon="11.1536998"><ele>102.0</ele><time>2026-04-18T16:18:10.158Z</time></trkpt><trkpt lat="43.8749026" lon="11.1535931"><ele>105.0</ele><time>2026-04-18T16:18:11.161Z</time></trkpt><trkpt lat="43.874839" lon="11.1534901"><ele>108.0</ele><time>2026-04-18T16:18:12.165Z</time></trkpt><trkpt lat="43.8747731" lon="11.1533851"><ele>111.0</ele><time>2026-04-18T16:18:13.163Z</time></trkpt><trkpt lat="43.8747157" lon="11.1532747"><ele>113.66666666666667</ele><time>2026-04-18T16:18:14.161Z</time></trkpt><trkpt lat="43.8746666" lon="11.1531734"><ele>116.33333333333334</ele><time>2026-04-18T16:18:15.166Z</time></trkpt><trkpt lat="43.8746339" lon="11.1530843"><ele>119.0</ele><time>2026-04-18T16:18:16.164Z</time></trkpt><trkpt lat="43.874598" lon="11.1529967"><ele>121.66666666666667</ele><time>2026-04-18T16:18:17.169Z</time></trkpt><trkpt lat="43.8745647" lon="11.1529215"><ele>124.33333333333334</ele><time>2026-04-18T16:18:18.166Z</time></trkpt><trkpt lat="43.8745235" lon="11.1528246"><ele>127.0</ele><time>2026-04-18T16:18:20.174Z</time></trkpt><trkpt lat="43.8744944" lon="11.1527299"><ele>127.00000000000001</ele><time>2026-04-18T16:18:22.167Z</time></trkpt><trkpt lat="43.8744296" lon="11.1525912"><ele>127.0</ele><time>2026-04-18T16:18:24.167Z</time></trkpt><trkpt lat="43.8743881" lon="11.1525062"><ele>127.0</ele><time>2026-04-18T16:18:25.172Z</time></trkpt><trkpt lat="43.8743288" lon="11.1524281"><ele>127.0</ele><time>2026-04-18T16:18:26.167Z</time></trkpt><trkpt lat="43.8742804" lon="11.1523318"><ele>127.00000000000001</ele><time>2026-04-18T16:18:27.163Z</time></trkpt><trkpt lat="43.8742453" lon="11.1522445"><ele>127.0</ele><time>2026-04-18T16:18:28.166Z</time></trkpt><trkpt lat="43.8742332" lon="11.152111"><ele>129.33333333333334</ele><time>2026-04-18T16:18:30.16Z</time></trkpt><trkpt lat="43.8743094" lon="11.1520701"><ele>131.66666666666669</ele><time>2026-04-18T16:18:32.179Z</time></trkpt><trkpt lat="43.8743638" lon="11.1521153"><ele>134.0</ele><time>2026-04-18T16:18:33.173Z</time></trkpt><trkpt lat="43.874446" lon="11.1521869"><ele>136.33333333333334</ele><time>2026-04-18T16:18:34.16Z</time></trkpt><trkpt lat="43.8745373" lon="11.1522346"><ele>138.66666666666666</ele><time>2026-04-18T16:18:35.162Z</time></trkpt><trkpt lat="43.874644" lon="11.1522618"><ele>141.0</ele><time>2026-04-18T16:18:36.162Z</time></trkpt><trkpt lat="43.8747456" lon="11.1522847"><ele>141.0</ele><time>2026-04-18T16:18:37.159Z</time></trkpt><trkpt lat="43.874819" lon="11.1523242"><ele>141.0</ele><time>2026-04-18T16:18:38.163Z</time></trkpt><trkpt lat="43.8748818" lon="11.1523532"><ele>141.0</ele><time>2026-04-18T16:18:39.181Z</time></trkpt><trkpt lat="43.8749707" lon="11.1523112"><ele>141.0</ele><time>2026-04-18T16:18:41.161Z</time></trkpt><trkpt lat="43.87495" lon="11.1521441"><ele>141.0</ele><time>2026-04-18T16:18:43.179Z</time></trkpt><trkpt lat="43.8749121" lon="11.1520371"><ele>141.0</ele><time>2026-04-18T16:18:44.168Z</time></trkpt><trkpt lat="43.8748591" lon="11.1519258"><ele>141.0</ele><time>2026-04-18T16:18:45.175Z</time></trkpt><trkpt lat="43.8748117" lon="11.1518164"><ele>141.0</ele><time>2026-04-18T16:18:46.173Z</time></trkpt><trkpt lat="43.874776" lon="11.1517107"><ele>141.0</ele><time>2026-04-18T16:18:47.163Z</time></trkpt><trkpt lat="43.8747604" lon="11.1516259"><ele>141.0</ele><time>2026-04-18T16:18:48.16Z</time></trkpt><trkpt lat="43.874839" lon="11.1515416"><ele>141.0</ele><time>2026-04-18T16:18:50.166Z</time></trkpt><trkpt lat="43.8749091" lon="11.1515586"><ele>141.0</ele><time>2026-04-18T16:18:51.163Z</time></trkpt><trkpt lat="43.8749859" lon="11.1516187"><ele>141.0</ele><time>2026-04-18T16:18:52.164Z</time></trkpt><trkpt lat="43.8750669" lon="11.1517119"><ele>141.0</ele><time>2026-04-18T16:18:53.163Z</time></trkpt><trkpt lat="43.875136" lon="11.1518078"><ele>141.0</ele><time>2026-04-18T16:18:54.165Z</time></trkpt><trkpt lat="43.8752004" lon="11.1519021"><ele>141.0</ele><time>2026-04-18T16:18:55.167Z</time></trkpt><trkpt lat="43.8752548" lon="11.1519756"><ele>141.0</ele><time>2026-04-18T16:18:56.168Z</time></trkpt><trkpt lat="43.8753306" lon="11.1520469"><ele>147.2</ele><time>2026-04-18T16:18:58.173Z</time></trkpt><trkpt lat="43.8753777" lon="11.1519515"><ele>153.39999999999998</ele><time>2026-04-18T16:19:00.167Z</time></trkpt><trkpt lat="43.8753354" lon="11.1517511"><ele>159.6</ele><time>2026-04-18T16:19:02.168Z</time></trkpt><trkpt lat="43.8753275" lon="11.1516137"><ele>165.79999999999998</ele><time>2026-04-18T16:19:03.168Z</time></trkpt><trkpt lat="43.8752998" lon="11.1514621"><ele>172.0</ele><time>2026-04-18T16:19:04.166Z</time></trkpt><trkpt lat="43.8752796" lon="11.1513102"><ele>169.4</ele><time>2026-04-18T16:19:05.167Z</time></trkpt><trkpt lat="43.8752552" lon="11.1511716"><ele>166.79999999999998</ele><time>2026-04-18T16:19:06.167Z</time></trkpt><trkpt lat="43.8752162" lon="11.1510431"><ele>164.2</ele><time>2026-04-18T16:19:07.165Z</time></trkpt><trkpt lat="43.8751681" lon="11.1509395"><ele>161.6</ele><time>2026-04-18T16:19:08.157Z</time></trkpt><trkpt lat="43.8751053" lon="11.1508396"><ele>159.0</ele><time>2026-04-18T16:19:09.164Z</time></trkpt><trkpt lat="43.8750336" lon="11.1507385"><ele>161.83333333333334</ele><time>2026-04-18T16:19:10.175Z</time></trkpt><trkpt lat="43.874971" lon="11.1506375"><ele>164.66666666666666</ele><time>2026-04-18T16:19:11.149Z</time></trkpt><trkpt lat="43.8749282" lon="11.1505247"><ele>167.5</ele><time>2026-04-18T16:19:12.164Z</time></trkpt><trkpt lat="43.8748923" lon="11.1504063"><ele>170.33333333333331</ele><time>2026-04-18T16:19:13.166Z</time></trkpt><trkpt lat="43.8748663" lon="11.1502984"><ele>173.16666666666666</ele><time>2026-04-18T16:19:14.161Z</time></trkpt><trkpt lat="43.8748678" lon="11.1501779"><ele>176.0</ele><time>2026-04-18T16:19:15.16Z</time></trkpt><trkpt lat="43.8748925" lon="11.1500524"><ele>176.0</ele><time>2026-04-18T16:19:16.155Z</time></trkpt><trkpt lat="43.87491" lon="11.1499461"><ele>176.0</ele><time>2026-04-18T16:19:17.164Z</time></trkpt><trkpt lat="43.8749173" lon="11.1498574"><ele>176.0</ele><time>2026-04-18T16:19:18.159Z</time></trkpt><trkpt lat="43.8749033" lon="11.1497489"><ele>176.0</ele><time>2026-04-18T16:19:19.155Z</time></trkpt><trkpt lat="43.8748664" lon="11.149649"><ele>176.0</ele><time>2026-04-18T16:19:20.155Z</time></trkpt><trkpt lat="43.874832" lon="11.1495645"><ele>176.0</ele><time>2026-04-18T16:19:21.159Z</time></trkpt><trkpt lat="43.8747825" lon="11.1494674"><ele>179.20000000000002</ele><time>2026-04-18T16:19:22.16Z</time></trkpt><trkpt lat="43.874721" lon="11.149376"><ele>182.4</ele><time>2026-04-18T16:19:23.159Z</time></trkpt><trkpt lat="43.8746527" lon="11.1492922"><ele>185.6</ele><time>2026-04-18T16:19:24.156Z</time></trkpt><trkpt lat="43.8745653" lon="11.1492071"><ele>188.8</ele><time>2026-04-18T16:19:25.154Z</time></trkpt><trkpt lat="43.8744769" lon="11.1491088"><ele>192.0</ele><time>2026-04-18T16:19:26.16Z</time></trkpt><trkpt lat="43.874399" lon="11.1490174"><ele>193.5</ele><time>2026-04-18T16:19:27.145Z</time></trkpt><trkpt lat="43.8743444" lon="11.1489227"><ele>195.0</ele><time>2026-04-18T16:19:28.164Z</time></trkpt><trkpt lat="43.874295" lon="11.1488184"><ele>196.5</ele><time>2026-04-18T16:19:29.158Z</time></trkpt><trkpt lat="43.8742381" lon="11.1487302"><ele>198.0</ele><time>2026-04-18T16:19:30.16Z</time></trkpt><trkpt lat="43.8741842" lon="11.148656"><ele>199.5</ele><time>2026-04-18T16:19:31.16Z</time></trkpt><trkpt lat="43.8741672" lon="11.1485417"><ele>201.0</ele><time>2026-04-18T16:19:33.165Z</time></trkpt><trkpt lat="43.874308" lon="11.1485374"><ele>203.60000000000002</ele><time>2026-04-18T16:19:35.152Z</time></trkpt><trkpt lat="43.8744036" lon="11.1485362"><ele>206.2</ele><time>2026-04-18T16:19:36.15Z</time></trkpt><trkpt lat="43.874515" lon="11.1485101"><ele>208.79999999999998</ele><time>2026-04-18T16:19:37.155Z</time></trkpt><trkpt lat="43.8746316" lon="11.1484983"><ele>211.39999999999998</ele><time>2026-04-18T16:19:38.155Z</time></trkpt><trkpt lat="43.874735" lon="11.1484984"><ele>214.0</ele><time>2026-04-18T16:19:39.156Z</time></trkpt><trkpt lat="43.8748161" lon="11.1485155"><ele>214.0</ele><time>2026-04-18T16:19:40.152Z</time></trkpt><trkpt lat="43.8748826" lon="11.148511"><ele>213.99999999999997</ele><time>2026-04-18T16:19:41.172Z</time></trkpt><trkpt lat="43.8749479" lon="11.1484175"><ele>213.99999999999997</ele><time>2026-04-18T16:19:43.161Z</time></trkpt><trkpt lat="43.8748644" lon="11.1482865"><ele>214.0</ele><time>2026-04-18T16:19:45.156Z</time></trkpt><trkpt lat="43.8747702" lon="11.1482175"><ele>214.0</ele><time>2026-04-18T16:19:46.16Z</time></trkpt><trkpt lat="43.8746791" lon="11.1481281"><ele>216.0</ele><time>2026-04-18T16:19:47.156Z</time></trkpt><trkpt lat="43.8745805" lon="11.148044"><ele>217.99999999999997</ele><time>2026-04-18T16:19:48.16Z</time></trkpt><trkpt lat="43.8744828" lon="11.1479453"><ele>219.99999999999997</ele><time>2026-04-18T16:19:49.159Z</time></trkpt><trkpt lat="43.8744017" lon="11.1478565"><ele>222.0</ele><time>2026-04-18T16:19:50.161Z</time></trkpt><trkpt lat="43.8743268" lon="11.1477545"><ele>224.0</ele><time>2026-04-18T16:19:51.16Z</time></trkpt><trkpt lat="43.8742663" lon="11.1476357"><ele>224.0</ele><time>2026-04-18T16:19:52.16Z</time></trkpt><trkpt lat="43.8742116" lon="11.1475368"><ele>223.99999999999997</ele><time>2026-04-18T16:19:53.159Z</time></trkpt><trkpt lat="43.874151" lon="11.147432"><ele>223.99999999999997</ele><time>2026-04-18T16:19:54.157Z</time></trkpt><trkpt lat="43.8740837" lon="11.1473334"><ele>224.0</ele><time>2026-04-18T16:19:55.159Z</time></trkpt><trkpt lat="43.8740337" lon="11.1472146"><ele>224.0</ele><time>2026-04-18T16:19:56.154Z</time></trkpt><trkpt lat="43.8739944" lon="11.1470896"><ele>226.16666666666669</ele><time>2026-04-18T16:19:57.159Z</time></trkpt><trkpt lat="43.873972" lon="11.1469569"><ele>228.33333333333334</ele><time>2026-04-18T16:19:58.159Z</time></trkpt><trkpt lat="43.8739556" lon="11.1468348"><ele>230.5</ele><time>2026-04-18T16:19:59.158Z</time></trkpt><trkpt lat="43.8739398" lon="11.1467156"><ele>232.66666666666669</ele><time>2026-04-18T16:20:00.164Z</time></trkpt><trkpt lat="43.8739367" lon="11.1465973"><ele>234.83333333333334</ele><time>2026-04-18T16:20:01.164Z</time></trkpt><trkpt lat="43.8739388" lon="11.1464827"><ele>237.0</ele><time>2026-04-18T16:20:02.163Z</time></trkpt><trkpt lat="43.8739436" lon="11.1463807"><ele>238.6</ele><time>2026-04-18T16:20:03.16Z</time></trkpt><trkpt lat="43.8739578" lon="11.1462824"><ele>240.2</ele><time>2026-04-18T16:20:04.159Z</time></trkpt><trkpt lat="43.8740635" lon="11.1462225"><ele>241.8</ele><time>2026-04-18T16:20:06.161Z</time></trkpt><trkpt lat="43.8741378" lon="11.1462795"><ele>243.4</ele><time>2026-04-18T16:20:07.157Z</time></trkpt><trkpt lat="43.8742094" lon="11.1463614"><ele>245.0</ele><time>2026-04-18T16:20:08.163Z</time></trkpt><trkpt lat="43.8742897" lon="11.1464569"><ele>248.5</ele><time>2026-04-18T16:20:09.156Z</time></trkpt><trkpt lat="43.8743999" lon="11.1465257"><ele>252.0</ele><time>2026-04-18T16:20:10.171Z</time></trkpt><trkpt lat="43.8745285" lon="11.1465806"><ele>255.5</ele><time>2026-04-18T16:20:11.164Z</time></trkpt><trkpt lat="43.874653" lon="11.1466431"><ele>259.0</ele><time>2026-04-18T16:20:12.181Z</time></trkpt><trkpt lat="43.8747749" lon="11.1467085"><ele>259.0</ele><time>2026-04-18T16:20:13.168Z</time></trkpt><trkpt lat="43.8748982" lon="11.1467701"><ele>259.0</ele><time>2026-04-18T16:20:14.169Z</time></trkpt><trkpt lat="43.8750244" lon="11.1468176"><ele>259.0</ele><time>2026-04-18T16:20:15.17Z</time></trkpt><trkpt lat="43.8751475" lon="11.1468565"><ele>259.0</ele><time>2026-04-18T16:20:16.169Z</time></trkpt><trkpt lat="43.8752612" lon="11.1468977"><ele>261.2</ele><time>2026-04-18T16:20:17.171Z</time></trkpt><trkpt lat="43.8753639" lon="11.1469358"><ele>263.4</ele><time>2026-04-18T16:20:18.167Z</time></trkpt><trkpt lat="43.8754567" lon="11.1469757"><ele>265.6</ele><time>2026-04-18T16:20:19.169Z</time></trkpt><trkpt lat="43.8755275" lon="11.1470032"><ele>267.8</ele><time>2026-04-18T16:20:20.16Z</time></trkpt><trkpt lat="43.8755999" lon="11.146964"><ele>270.0</ele><time>2026-04-18T16:20:22.159Z</time></trkpt><trkpt lat="43.8755289" lon="11.1468332"><ele>270.0</ele><time>2026-04-18T16:20:24.158Z</time></trkpt><trkpt lat="43.8754422" lon="11.1467526"><ele>270.0</ele><time>2026-04-18T16:20:25.162Z</time></trkpt><trkpt lat="43.8753648" lon="11.1466571"><ele>270.0</ele><time>2026-04-18T16:20:26.159Z</time></trkpt><trkpt lat="43.8753002" lon="11.1465398"><ele>270.0</ele><time>2026-04-18T16:20:27.153Z</time></trkpt><trkpt lat="43.8752549" lon="11.1463999"><ele>270.0</ele><time>2026-04-18T16:20:28.163Z</time></trkpt><trkpt lat="43.8752212" lon="11.1462585"><ele>273.0</ele><time>2026-04-18T16:20:29.165Z</time></trkpt><trkpt lat="43.8751944" lon="11.1461363"><ele>276.0</ele><time>2026-04-18T16:20:30.168Z</time></trkpt><trkpt lat="43.8751673" lon="11.1459954"><ele>279.0</ele><time>2026-04-18T16:20:31.171Z</time></trkpt><trkpt lat="43.8751402" lon="11.1458593"><ele>282.0</ele><time>2026-04-18T16:20:32.17Z</time></trkpt><trkpt lat="43.8751212" lon="11.14572"><ele>285.0</ele><time>2026-04-18T16:20:33.164Z</time></trkpt><trkpt lat="43.8751152" lon="11.1455852"><ele>285.1666666666667</ele><time>2026-04-18T16:20:34.166Z</time></trkpt><trkpt lat="43.8751056" lon="11.1454526"><ele>285.3333333333333</ele><time>2026-04-18T16:20:35.173Z</time></trkpt><trkpt lat="43.8750984" lon="11.145345"><ele>285.5</ele><time>2026-04-18T16:20:36.173Z</time></trkpt><trkpt lat="43.8750927" lon="11.1452237"><ele>285.66666666666663</ele><time>2026-04-18T16:20:37.164Z</time></trkpt><trkpt lat="43.8750793" lon="11.1450952"><ele>285.8333333333333</ele><time>2026-04-18T16:20:38.166Z</time></trkpt><trkpt lat="43.8750742" lon="11.1449685"><ele>286.0</ele><time>2026-04-18T16:20:39.172Z</time></trkpt><trkpt lat="43.875057" lon="11.1448361"><ele>288.2</ele><time>2026-04-18T16:20:40.169Z</time></trkpt><trkpt lat="43.8750345" lon="11.144698"><ele>290.40000000000003</ele><time>2026-04-18T16:20:41.171Z</time></trkpt><trkpt lat="43.8750038" lon="11.144574"><ele>292.6</ele><time>2026-04-18T16:20:42.169Z</time></trkpt><trkpt lat="43.8749762" lon="11.1444494"><ele>294.8</ele><time>2026-04-18T16:20:43.188Z</time></trkpt><trkpt lat="43.8749461" lon="11.1443321"><ele>297.0</ele><time>2026-04-18T16:20:44.17Z</time></trkpt><trkpt lat="43.8749185" lon="11.1442245"><ele>297.0</ele><time>2026-04-18T16:20:45.168Z</time></trkpt><trkpt lat="43.8749029" lon="11.1441359"><ele>297.0</ele><time>2026-04-18T16:20:46.172Z</time></trkpt><trkpt lat="43.8749432" lon="11.1439936"><ele>297.0</ele><time>2026-04-18T16:20:48.157Z</time></trkpt><trkpt lat="43.8750085" lon="11.1439657"><ele>297.0</ele><time>2026-04-18T16:20:49.164Z</time></trkpt><trkpt lat="43.8750739" lon="11.1439731"><ele>297.0</ele><time>2026-04-18T16:20:50.167Z</time></trkpt><trkpt lat="43.8751556" lon="11.1440298"><ele>297.0</ele><time>2026-04-18T16:20:51.17Z</time></trkpt><trkpt lat="43.8752337" lon="11.1441036"><ele>299.2</ele><time>2026-04-18T16:20:52.165Z</time></trkpt><trkpt lat="43.8753104" lon="11.1441852"><ele>301.4</ele><time>2026-04-18T16:20:53.18Z</time></trkpt><trkpt lat="43.8753827" lon="11.1442558"><ele>303.6</ele><time>2026-04-18T16:20:54.185Z</time></trkpt><trkpt lat="43.87544" lon="11.1443164"><ele>305.8</ele><time>2026-04-18T16:20:55.172Z</time></trkpt><trkpt lat="43.8755362" lon="11.1442884"><ele>308.0</ele><time>2026-04-18T16:20:57.165Z</time></trkpt><trkpt lat="43.8755284" lon="11.1441337"><ele>308.0</ele><time>2026-04-18T16:20:59.182Z</time></trkpt><trkpt lat="43.8754652" lon="11.144047"><ele>308.0</ele><time>2026-04-18T16:21:00.175Z</time></trkpt><trkpt lat="43.8753999" lon="11.1439468"><ele>308.0</ele><time>2026-04-18T16:21:01.175Z</time></trkpt><trkpt lat="43.8753355" lon="11.1438393"><ele>308.0</ele><time>2026-04-18T16:21:02.166Z</time></trkpt><trkpt lat="43.8752799" lon="11.1437325"><ele>308.0</ele><time>2026-04-18T16:21:03.168Z</time></trkpt><trkpt lat="43.8752298" lon="11.1436365"><ele>309.0</ele><time>2026-04-18T16:21:04.168Z</time></trkpt><trkpt lat="43.8751756" lon="11.1435364"><ele>310.0</ele><time>2026-04-18T16:21:05.17Z</time></trkpt><trkpt lat="43.8751277" lon="11.1434293"><ele>311.0</ele><time>2026-04-18T16:21:06.173Z</time></trkpt><trkpt lat="43.8750799" lon="11.1433243"><ele>312.0</ele><time>2026-04-18T16:21:07.169Z</time></trkpt><trkpt lat="43.8750409" lon="11.1432118"><ele>313.0</ele><time>2026-04-18T16:21:08.171Z</time></trkpt><trkpt lat="43.8749996" lon="11.1431037"><ele>314.0</ele><time>2026-04-18T16:21:09.163Z</time></trkpt><trkpt lat="43.8749657" lon="11.1429959"><ele>317.5</ele><time>2026-04-18T16:21:10.164Z</time></trkpt><trkpt lat="43.8749396" lon="11.1429014"><ele>321.0</ele><time>2026-04-18T16:21:11.164Z</time></trkpt><trkpt lat="43.8749058" lon="11.1428179"><ele>324.5</ele><time>2026-04-18T16:21:12.167Z</time></trkpt><trkpt lat="43.8748798" lon="11.1427376"><ele>328.0</ele><time>2026-04-18T16:21:13.163Z</time></trkpt><trkpt lat="43.8749028" lon="11.1426007"><ele>331.5</ele><time>2026-04-18T16:21:15.172Z</time></trkpt><trkpt lat="43.8750246" lon="11.1426486"><ele>335.0</ele><time>2026-04-18T16:21:17.176Z</time></trkpt><trkpt lat="43.8750996" lon="11.1427398"><ele>336.4</ele><time>2026-04-18T16:21:18.163Z</time></trkpt><trkpt lat="43.8751873" lon="11.142813"><ele>337.8</ele><time>2026-04-18T16:21:19.171Z</time></trkpt><trkpt lat="43.875281" lon="11.1428546"><ele>339.20000000000005</ele><time>2026-04-18T16:21:20.168Z</time></trkpt><trkpt lat="43.875372" lon="11.1428745"><ele>340.6</ele><time>2026-04-18T16:21:21.177Z</time></trkpt><trkpt lat="43.8754625" lon="11.1428734"><ele>342.0</ele><time>2026-04-18T16:21:22.178Z</time></trkpt><trkpt lat="43.8755522" lon="11.1428555"><ele>342.0</ele><time>2026-04-18T16:21:23.181Z</time></trkpt><trkpt lat="43.8756399" lon="11.1428258"><ele>342.0</ele><time>2026-04-18T16:21:24.188Z</time></trkpt><trkpt lat="43.8757164" lon="11.1427931"><ele>342.0</ele><time>2026-04-18T16:21:25.178Z</time></trkpt><trkpt lat="43.8757807" lon="11.1427481"><ele>342.0</ele><time>2026-04-18T16:21:26.184Z</time></trkpt><trkpt lat="43.8758291" lon="11.142686"><ele>342.0</ele><time>2026-04-18T16:21:27.177Z</time></trkpt><trkpt lat="43.8758609" lon="11.1425912"><ele>342.0</ele><time>2026-04-18T16:21:28.2Z</time></trkpt><trkpt lat="43.8758637" lon="11.1424759"><ele>343.8333333333333</ele><time>2026-04-18T16:21:29.177Z</time></trkpt><trkpt lat="43.8758435" lon="11.1423621"><ele>345.6666666666667</ele><time>2026-04-18T16:21:30.184Z</time></trkpt><trkpt lat="43.8757865" lon="11.1422636"><ele>347.5</ele><time>2026-04-18T16:21:31.178Z</time></trkpt><trkpt lat="43.8757173" lon="11.1422"><ele>349.33333333333337</ele><time>2026-04-18T16:21:32.179Z</time></trkpt><trkpt lat="43.8756541" lon="11.1421298"><ele>351.1666666666667</ele><time>2026-04-18T16:21:33.182Z</time></trkpt><trkpt lat="43.8756253" lon="11.1420362"><ele>353.0</ele><time>2026-04-18T16:21:34.187Z</time></trkpt><trkpt lat="43.8756362" lon="11.1419214"><ele>353.0</ele><time>2026-04-18T16:21:35.184Z</time></trkpt><trkpt lat="43.8756634" lon="11.1418047"><ele>353.0</ele><time>2026-04-18T16:21:36.179Z</time></trkpt><trkpt lat="43.8756589" lon="11.1416983"><ele>353.0</ele><time>2026-04-18T16:21:37.168Z</time></trkpt><trkpt lat="43.8756376" lon="11.1415901"><ele>353.0</ele><time>2026-04-18T16:21:38.172Z</time></trkpt><trkpt lat="43.8756186" lon="11.1414826"><ele>353.0</ele><time>2026-04-18T16:21:39.173Z</time></trkpt><trkpt lat="43.8755902" lon="11.1413724"><ele>353.0</ele><time>2026-04-18T16:21:40.169Z</time></trkpt><trkpt lat="43.8755553" lon="11.1412655"><ele>354.0</ele><time>2026-04-18T16:21:41.168Z</time></trkpt><trkpt lat="43.8755302" lon="11.1411467"><ele>355.0</ele><time>2026-04-18T16:21:42.17Z</time></trkpt><trkpt lat="43.8755015" lon="11.1410273"><ele>356.0</ele><time>2026-04-18T16:21:43.174Z</time></trkpt><trkpt lat="43.8754777" lon="11.1408999"><ele>357.0</ele><time>2026-04-18T16:21:44.18Z</time></trkpt><trkpt lat="43.8754475" lon="11.1407814"><ele>358.0</ele><time>2026-04-18T16:21:45.196Z</time></trkpt><trkpt lat="43.8754107" lon="11.140647"><ele>358.0</ele><time>2026-04-18T16:21:46.18Z</time></trkpt><trkpt lat="43.8753779" lon="11.1405238"><ele>358.0</ele><time>2026-04-18T16:21:47.182Z</time></trkpt><trkpt lat="43.875335" lon="11.140385"><ele>358.0</ele><time>2026-04-18T16:21:48.186Z</time></trkpt><trkpt lat="43.8752882" lon="11.1402532"><ele>358.0</ele><time>2026-04-18T16:21:49.195Z</time></trkpt><trkpt lat="43.8752331" lon="11.1401258"><ele>358.0</ele><time>2026-04-18T16:21:50.198Z</time></trkpt><trkpt lat="43.8751795" lon="11.1400018"><ele>358.0</ele><time>2026-04-18T16:21:51.196Z</time></trkpt><trkpt lat="43.8751258" lon="11.1398842"><ele>358.0</ele><time>2026-04-18T16:21:52.192Z</time></trkpt><trkpt lat="43.8750649" lon="11.1397597"><ele>358.0</ele><time>2026-04-18T16:21:53.189Z</time></trkpt><trkpt lat="43.8749938" lon="11.1396396"><ele>358.0</ele><time>2026-04-18T16:21:54.191Z</time></trkpt><trkpt lat="43.8749155" lon="11.1395293"><ele>358.0</ele><time>2026-04-18T16:21:55.196Z</time></trkpt><trkpt lat="43.874834" lon="11.1394269"><ele>361.2</ele><time>2026-04-18T16:21:56.194Z</time></trkpt><trkpt lat="43.8747482" lon="11.1393288"><ele>364.4</ele><time>2026-04-18T16:21:57.203Z</time></trkpt><trkpt lat="43.8746578" lon="11.139235"><ele>367.59999999999997</ele><time>2026-04-18T16:21:58.196Z</time></trkpt><trkpt lat="43.874578" lon="11.1391625"><ele>370.79999999999995</ele><time>2026-04-18T16:21:59.202Z</time></trkpt><trkpt lat="43.8744984" lon="11.1391006"><ele>374.0</ele><time>2026-04-18T16:22:00.191Z</time></trkpt><trkpt lat="43.874414" lon="11.1390481"><ele>374.0</ele><time>2026-04-18T16:22:01.184Z</time></trkpt><trkpt lat="43.8743383" lon="11.1390309"><ele>374.0</ele><time>2026-04-18T16:22:02.192Z</time></trkpt><trkpt lat="43.8742502" lon="11.1390153"><ele>374.0</ele><time>2026-04-18T16:22:03.19Z</time></trkpt><trkpt lat="43.874171" lon="11.1389929"><ele>374.0</ele><time>2026-04-18T16:22:04.178Z</time></trkpt><trkpt lat="43.8741031" lon="11.1389405"><ele>374.0</ele><time>2026-04-18T16:22:05.177Z</time></trkpt><trkpt lat="43.8740417" lon="11.1388666"><ele>374.0</ele><time>2026-04-18T16:22:06.181Z</time></trkpt><trkpt lat="43.874007" lon="11.1387502"><ele>375.6</ele><time>2026-04-18T16:22:07.175Z</time></trkpt><trkpt lat="43.8739867" lon="11.1386168"><ele>377.2</ele><time>2026-04-18T16:22:08.182Z</time></trkpt><trkpt lat="43.8739794" lon="11.138482"><ele>378.8</ele><time>2026-04-18T16:22:09.184Z</time></trkpt><trkpt lat="43.8739654" lon="11.1383573"><ele>380.40000000000003</ele><time>2026-04-18T16:22:10.187Z</time></trkpt><trkpt lat="43.8739452" lon="11.1382354"><ele>382.0</ele><time>2026-04-18T16:22:11.183Z</time></trkpt><trkpt lat="43.8739147" lon="11.1381267"><ele>382.20000000000005</ele><time>2026-04-18T16:22:12.179Z</time></trkpt><trkpt lat="43.8738632" lon="11.1380223"><ele>382.4</ele><time>2026-04-18T16:22:13.192Z</time></trkpt><trkpt lat="43.8738145" lon="11.1379125"><ele>382.6</ele><time>2026-04-18T16:22:14.187Z</time></trkpt><trkpt lat="43.8737841" lon="11.1377915"><ele>382.79999999999995</ele><time>2026-04-18T16:22:15.198Z</time></trkpt><trkpt lat="43.8737926" lon="11.1376596"><ele>383.0</ele><time>2026-04-18T16:22:16.199Z</time></trkpt><trkpt lat="43.8738296" lon="11.1375376"><ele>383.0</ele><time>2026-04-18T16:22:17.197Z</time></trkpt><trkpt lat="43.8738909" lon="11.1374334"><ele>383.0</ele><time>2026-04-18T16:22:18.194Z</time></trkpt><trkpt lat="43.8739752" lon="11.1373686"><ele>383.0</ele><time>2026-04-18T16:22:19.173Z</time></trkpt><trkpt lat="43.8740719" lon="11.1373268"><ele>383.0</ele><time>2026-04-18T16:22:20.185Z</time></trkpt><trkpt lat="43.8741629" lon="11.1372804"><ele>383.0</ele><time>2026-04-18T16:22:21.185Z</time></trkpt><trkpt lat="43.8742392" lon="11.1372366"><ele>381.0</ele><time>2026-04-18T16:22:22.178Z</time></trkpt><trkpt lat="43.874302" lon="11.1371728"><ele>379.0</ele><time>2026-04-18T16:22:23.169Z</time></trkpt><trkpt lat="43.8743526" lon="11.1371053"><ele>377.0</ele><time>2026-04-18T16:22:24.191Z</time></trkpt><trkpt lat="43.8743891" lon="11.1369962"><ele>375.0</ele><time>2026-04-18T16:22:26.177Z</time></trkpt><trkpt lat="43.874399" lon="11.1369064"><ele>373.0</ele><time>2026-04-18T16:22:28.182Z</time></trkpt><trkpt lat="43.8743878" lon="11.1367834"><ele>371.0</ele><time>2026-04-18T16:22:30.179Z</time></trkpt><trkpt lat="43.8743764" lon="11.1366611"><ele>371.8</ele><time>2026-04-18T16:22:32.179Z</time></trkpt><trkpt lat="43.8743666" lon="11.1365295"><ele>372.6</ele><time>2026-04-18T16:22:34.163Z</time></trkpt><trkpt lat="43.8743817" lon="11.1364192"><ele>373.4</ele><time>2026-04-18T16:22:36.163Z</time></trkpt><trkpt lat="43.874379" lon="11.1362732"><ele>374.2</ele><time>2026-04-18T16:22:38.177Z</time></trkpt><trkpt lat="43.8743761" lon="11.1361387"><ele>375.0</ele><time>2026-04-18T16:22:40.18Z</time></trkpt><trkpt lat="43.8743573" lon="11.1360218"><ele>375.0</ele><time>2026-04-18T16:23:14.174Z</time></trkpt><trkpt lat="43.8743566" lon="11.1358537"><ele>375.0</ele><time>2026-04-18T16:23:16.18Z</time></trkpt><trkpt lat="43.8743475" lon="11.1357411"><ele>375.0</ele><time>2026-04-18T16:23:17.185Z</time></trkpt><trkpt lat="43.8743394" lon="11.1356057"><ele>375.0</ele><time>2026-04-18T16:23:18.17Z</time></trkpt><trkpt lat="43.8743383" lon="11.1354849"><ele>375.0</ele><time>2026-04-18T16:23:19.17Z</time></trkpt><trkpt lat="43.8743236" lon="11.1353558"><ele>374.8333333333333</ele><time>2026-04-18T16:23:20.163Z</time></trkpt><trkpt lat="43.874315" lon="11.135237"><ele>374.6666666666667</ele><time>2026-04-18T16:23:21.18Z</time></trkpt><trkpt lat="43.874289" lon="11.1351246"><ele>374.5</ele><time>2026-04-18T16:23:22.181Z</time></trkpt><trkpt lat="43.8742661" lon="11.1350266"><ele>374.33333333333337</ele><time>2026-04-18T16:23:23.181Z</time></trkpt><trkpt lat="43.8742401" lon="11.1349266"><ele>374.1666666666667</ele><time>2026-04-18T16:23:24.182Z</time></trkpt><trkpt lat="43.8742231" lon="11.1348365"><ele>374.0</ele><time>2026-04-18T16:23:25.178Z</time></trkpt><trkpt lat="43.8742017" lon="11.1346923"><ele>373.0</ele><time>2026-04-18T16:23:27.181Z</time></trkpt><trkpt lat="43.8741724" lon="11.1345682"><ele>372.0</ele><time>2026-04-18T16:23:29.178Z</time></trkpt><trkpt lat="43.8741765" lon="11.13446"><ele>371.0</ele><time>2026-04-18T16:23:31.171Z</time></trkpt><trkpt lat="43.8742213" lon="11.1343627"><ele>370.0</ele><time>2026-04-18T16:23:33.175Z</time></trkpt><trkpt lat="43.8742829" lon="11.1342766"><ele>369.0</ele><time>2026-04-18T16:23:35.174Z</time></trkpt><trkpt lat="43.8743612" lon="11.1341794"><ele>368.0</ele><time>2026-04-18T16:23:37.175Z</time></trkpt><trkpt lat="43.8744353" lon="11.1340955"><ele>368.33333333333337</ele><time>2026-04-18T16:23:39.18Z</time></trkpt><trkpt lat="43.8744951" lon="11.1340435"><ele>368.6666666666667</ele><time>2026-04-18T16:23:41.188Z</time></trkpt><trkpt lat="43.8745473" lon="11.1339763"><ele>369.0</ele><time>2026-04-18T16:23:45.188Z</time></trkpt><trkpt lat="43.8746167" lon="11.1338637"><ele>369.3333333333333</ele><time>2026-04-18T16:25:50.177Z</time></trkpt><trkpt lat="43.8746877" lon="11.1338075"><ele>369.66666666666663</ele><time>2026-04-18T16:25:51.171Z</time></trkpt><trkpt lat="43.8747683" lon="11.1337479"><ele>370.0</ele><time>2026-04-18T16:25:52.179Z</time></trkpt><trkpt lat="43.8748535" lon="11.1336903"><ele>370.0</ele><time>2026-04-18T16:25:53.174Z</time></trkpt><trkpt lat="43.8749308" lon="11.1336634"><ele>370.0</ele><time>2026-04-18T16:25:54.167Z</time></trkpt><trkpt lat="43.8750249" lon="11.1336634"><ele>370.0</ele><time>2026-04-18T16:25:55.171Z</time></trkpt><trkpt lat="43.875123" lon="11.1336727"><ele>370.0</ele><time>2026-04-18T16:25:56.173Z</time></trkpt><trkpt lat="43.8752251" lon="11.1336801"><ele>370.0</ele><time>2026-04-18T16:25:57.176Z</time></trkpt><trkpt lat="43.8753194" lon="11.1336782"><ele>370.8333333333333</ele><time>2026-04-18T16:25:58.179Z</time></trkpt><trkpt lat="43.8754117" lon="11.1336758"><ele>371.66666666666663</ele><time>2026-04-18T16:25:59.168Z</time></trkpt><trkpt lat="43.8754999" lon="11.1336946"><ele>372.5</ele><time>2026-04-18T16:26:00.172Z</time></trkpt><trkpt lat="43.8755863" lon="11.1337187"><ele>373.3333333333333</ele><time>2026-04-18T16:26:01.17Z</time></trkpt><trkpt lat="43.8756724" lon="11.1337345"><ele>374.1666666666667</ele><time>2026-04-18T16:26:02.174Z</time></trkpt><trkpt lat="43.8757582" lon="11.1337429"><ele>375.0</ele><time>2026-04-18T16:26:03.174Z</time></trkpt><trkpt lat="43.8758668" lon="11.1337215"><ele>375.2</ele><time>2026-04-18T16:26:05.172Z</time></trkpt><trkpt lat="43.8759549" lon="11.1337404"><ele>375.4</ele><time>2026-04-18T16:26:07.17Z</time></trkpt><trkpt lat="43.8760665" lon="11.1337459"><ele>375.6</ele><time>2026-04-18T16:26:09.182Z</time></trkpt><trkpt lat="43.8761711" lon="11.1337257"><ele>375.8</ele><time>2026-04-18T16:26:11.171Z</time></trkpt><trkpt lat="43.8762317" lon="11.1336753"><ele>376.0</ele><time>2026-04-18T16:26:12.165Z</time></trkpt><trkpt lat="43.8763043" lon="11.1336086"><ele>376.0</ele><time>2026-04-18T16:26:13.163Z</time></trkpt><trkpt lat="43.8764041" lon="11.1335258"><ele>376.0</ele><time>2026-04-18T16:26:14.164Z</time></trkpt><trkpt lat="43.8764873" lon="11.133425"><ele>376.0</ele><time>2026-04-18T16:26:15.164Z</time></trkpt><trkpt lat="43.8765723" lon="11.1333346"><ele>376.0</ele><time>2026-04-18T16:26:16.175Z</time></trkpt><trkpt lat="43.8766373" lon="11.1332465"><ele>376.0</ele><time>2026-04-18T16:26:17.167Z</time></trkpt><trkpt lat="43.8767041" lon="11.1331515"><ele>375.4</ele><time>2026-04-18T16:26:18.176Z</time></trkpt><trkpt lat="43.8767678" lon="11.1330756"><ele>374.8</ele><time>2026-04-18T16:26:19.17Z</time></trkpt><trkpt lat="43.8768266" lon="11.1329913"><ele>374.2</ele><time>2026-04-18T16:26:20.168Z</time></trkpt><trkpt lat="43.8768786" lon="11.1329254"><ele>373.59999999999997</ele><time>2026-04-18T16:26:21.166Z</time></trkpt><trkpt lat="43.8769272" lon="11.1327808"><ele>373.0</ele><time>2026-04-18T16:26:23.164Z</time></trkpt><trkpt lat="43.8769331" lon="11.1325758"><ele>374.66666666666663</ele><time>2026-04-18T16:26:25.154Z</time></trkpt><trkpt lat="43.8769484" lon="11.1324534"><ele>376.3333333333333</ele><time>2026-04-18T16:26:26.168Z</time></trkpt><trkpt lat="43.8769677" lon="11.1323226"><ele>378.0</ele><time>2026-04-18T16:26:27.17Z</time></trkpt><trkpt lat="43.8769864" lon="11.1322115"><ele>379.6666666666667</ele><time>2026-04-18T16:26:28.169Z</time></trkpt><trkpt lat="43.8770099" lon="11.1321064"><ele>381.33333333333337</ele><time>2026-04-18T16:26:29.17Z</time></trkpt><trkpt lat="43.8770413" lon="11.1320187"><ele>383.0</ele><time>2026-04-18T16:26:30.176Z</time></trkpt><trkpt lat="43.8770735" lon="11.1319388"><ele>383.0</ele><time>2026-04-18T16:26:31.175Z</time></trkpt><trkpt lat="43.8771499" lon="11.1319147"><ele>383.0</ele><time>2026-04-18T16:26:33.177Z</time></trkpt><trkpt lat="43.8771935" lon="11.1320116"><ele>383.0</ele><time>2026-04-18T16:26:35.176Z</time></trkpt><trkpt lat="43.8772874" lon="11.1321021"><ele>383.0</ele><time>2026-04-18T16:26:37.172Z</time></trkpt><trkpt lat="43.8773559" lon="11.132174"><ele>383.0</ele><time>2026-04-18T16:26:38.169Z</time></trkpt><trkpt lat="43.8774207" lon="11.1322559"><ele>383.0</ele><time>2026-04-18T16:26:39.173Z</time></trkpt><trkpt lat="43.8774903" lon="11.1323466"><ele>383.83333333333337</ele><time>2026-04-18T16:26:40.176Z</time></trkpt><trkpt lat="43.8775515" lon="11.1324326"><ele>384.6666666666667</ele><time>2026-04-18T16:26:41.168Z</time></trkpt><trkpt lat="43.8776069" lon="11.1325186"><ele>385.5</ele><time>2026-04-18T16:26:42.172Z</time></trkpt><trkpt lat="43.8776697" lon="11.1326074"><ele>386.33333333333337</ele><time>2026-04-18T16:26:43.159Z</time></trkpt><trkpt lat="43.8777392" lon="11.1326916"><ele>387.1666666666667</ele><time>2026-04-18T16:26:44.166Z</time></trkpt><trkpt lat="43.8778041" lon="11.132766"><ele>388.0</ele><time>2026-04-18T16:26:45.163Z</time></trkpt><trkpt lat="43.8778636" lon="11.1328378"><ele>390.6666666666667</ele><time>2026-04-18T16:26:46.163Z</time></trkpt><trkpt lat="43.8779332" lon="11.1329095"><ele>393.33333333333337</ele><time>2026-04-18T16:26:47.157Z</time></trkpt><trkpt lat="43.8779972" lon="11.1329662"><ele>396.0</ele><time>2026-04-18T16:26:48.154Z</time></trkpt><trkpt lat="43.8780674" lon="11.1330081"><ele>398.66666666666663</ele><time>2026-04-18T16:26:49.157Z</time></trkpt><trkpt lat="43.8781379" lon="11.1330513"><ele>401.3333333333333</ele><time>2026-04-18T16:26:50.157Z</time></trkpt><trkpt lat="43.8782154" lon="11.1330999"><ele>404.0</ele><time>2026-04-18T16:26:51.164Z</time></trkpt><trkpt lat="43.8783033" lon="11.1331615"><ele>403.79999999999995</ele><time>2026-04-18T16:26:52.161Z</time></trkpt><trkpt lat="43.8783875" lon="11.1332275"><ele>403.59999999999997</ele><time>2026-04-18T16:26:53.164Z</time></trkpt><trkpt lat="43.8784719" lon="11.133308"><ele>403.4</ele><time>2026-04-18T16:26:54.191Z</time></trkpt><trkpt lat="43.878563" lon="11.1333781"><ele>403.2</ele><time>2026-04-18T16:26:55.164Z</time></trkpt><trkpt lat="43.8786386" lon="11.1334216"><ele>403.0</ele><time>2026-04-18T16:26:56.171Z</time></trkpt><trkpt lat="43.8787142" lon="11.1334579"><ele>404.83333333333337</ele><time>2026-04-18T16:26:57.173Z</time></trkpt><trkpt lat="43.8787834" lon="11.1334736"><ele>406.6666666666667</ele><time>2026-04-18T16:26:58.164Z</time></trkpt><trkpt lat="43.8788516" lon="11.1334582"><ele>408.5</ele><time>2026-04-18T16:26:59.162Z</time></trkpt><trkpt lat="43.8789214" lon="11.1334182"><ele>410.33333333333337</ele><time>2026-04-18T16:27:00.174Z</time></trkpt><trkpt lat="43.8790215" lon="11.1333939"><ele>412.1666666666667</ele><time>2026-04-18T16:27:02.174Z</time></trkpt><trkpt lat="43.879076" lon="11.1334387"><ele>414.0</ele><time>2026-04-18T16:27:03.164Z</time></trkpt><trkpt lat="43.8791591" lon="11.1334876"><ele>416.0</ele><time>2026-04-18T16:27:04.167Z</time></trkpt><trkpt lat="43.8792684" lon="11.1335472"><ele>418.0</ele><time>2026-04-18T16:27:05.172Z</time></trkpt><trkpt lat="43.8793836" lon="11.1336284"><ele>420.0</ele><time>2026-04-18T16:27:06.183Z</time></trkpt><trkpt lat="43.8794835" lon="11.1336656"><ele>422.0</ele><time>2026-04-18T16:27:07.171Z</time></trkpt><trkpt lat="43.8795909" lon="11.1336982"><ele>422.0</ele><time>2026-04-18T16:27:08.173Z</time></trkpt><trkpt lat="43.8797164" lon="11.1337488"><ele>422.0</ele><time>2026-04-18T16:27:09.178Z</time></trkpt><trkpt lat="43.8798378" lon="11.1337915"><ele>422.0</ele><time>2026-04-18T16:27:10.176Z</time></trkpt><trkpt lat="43.8799976" lon="11.1338339"><ele>422.0</ele><time>2026-04-18T16:27:11.174Z</time></trkpt><trkpt lat="43.8801342" lon="11.1338691"><ele>424.0</ele><time>2026-04-18T16:27:12.171Z</time></trkpt><trkpt lat="43.8802396" lon="11.1338973"><ele>426.0</ele><time>2026-04-18T16:27:13.167Z</time></trkpt><trkpt lat="43.8803526" lon="11.1339433"><ele>428.00000000000006</ele><time>2026-04-18T16:27:14.171Z</time></trkpt><trkpt lat="43.880462" lon="11.1339816"><ele>430.0</ele><time>2026-04-18T16:27:15.167Z</time></trkpt><trkpt lat="43.8805538" lon="11.1340181"><ele>432.0</ele><time>2026-04-18T16:27:16.17Z</time></trkpt><trkpt lat="43.8806374" lon="11.1340161"><ele>432.0</ele><time>2026-04-18T16:27:17.16Z</time></trkpt><trkpt lat="43.8807102" lon="11.133992"><ele>432.0</ele><time>2026-04-18T16:27:18.158Z</time></trkpt><trkpt lat="43.8807626" lon="11.1339346"><ele>432.0</ele><time>2026-04-18T16:27:19.159Z</time></trkpt><trkpt lat="43.880831" lon="11.13377"><ele>432.0</ele><time>2026-04-18T16:27:21.16Z</time></trkpt><trkpt lat="43.8808357" lon="11.1336613"><ele>432.0</ele><time>2026-04-18T16:27:22.158Z</time></trkpt><trkpt lat="43.8808223" lon="11.1335737"><ele>432.0</ele><time>2026-04-18T16:27:23.176Z</time></trkpt><trkpt lat="43.880773" lon="11.1335"><ele>432.0</ele><time>2026-04-18T16:27:24.17Z</time></trkpt><trkpt lat="43.8807171" lon="11.1334428"><ele>432.0</ele><time>2026-04-18T16:27:25.197Z</time></trkpt><trkpt lat="43.8806597" lon="11.1333992"><ele>432.0</ele><time>2026-04-18T16:27:26.175Z</time></trkpt><trkpt lat="43.8806032" lon="11.1332767"><ele>432.0</ele><time>2026-04-18T16:27:28.157Z</time></trkpt><trkpt lat="43.8806036" lon="11.1331842"><ele>432.0</ele><time>2026-04-18T16:27:29.174Z</time></trkpt><trkpt lat="43.8806005" lon="11.1330568"><ele>432.0</ele><time>2026-04-18T16:27:30.173Z</time></trkpt><trkpt lat="43.880598" lon="11.1329076"><ele>433.1666666666667</ele><time>2026-04-18T16:27:31.173Z</time></trkpt><trkpt lat="43.8805966" lon="11.1327679"><ele>434.33333333333337</ele><time>2026-04-18T16:27:32.172Z</time></trkpt><trkpt lat="43.8805965" lon="11.1326407"><ele>435.5</ele><time>2026-04-18T16:27:33.172Z</time></trkpt><trkpt lat="43.8805848" lon="11.1325203"><ele>436.6666666666667</ele><time>2026-04-18T16:27:34.17Z</time></trkpt><trkpt lat="43.8805761" lon="11.1324097"><ele>437.83333333333337</ele><time>2026-04-18T16:27:35.169Z</time></trkpt><trkpt lat="43.8805782" lon="11.132311"><ele>439.0</ele><time>2026-04-18T16:27:36.163Z</time></trkpt><trkpt lat="43.8806089" lon="11.1321922"><ele>439.83333333333337</ele><time>2026-04-18T16:27:38.161Z</time></trkpt><trkpt lat="43.8806743" lon="11.1322186"><ele>440.6666666666667</ele><time>2026-04-18T16:27:40.164Z</time></trkpt><trkpt lat="43.8807794" lon="11.1323078"><ele>441.5</ele><time>2026-04-18T16:27:42.17Z</time></trkpt><trkpt lat="43.8808554" lon="11.1323312"><ele>442.33333333333337</ele><time>2026-04-18T16:27:43.156Z</time></trkpt><trkpt lat="43.8809235" lon="11.1323375"><ele>443.1666666666667</ele><time>2026-04-18T16:27:44.166Z</time></trkpt><trkpt lat="43.8809952" lon="11.1323262"><ele>444.0</ele><time>2026-04-18T16:27:45.169Z</time></trkpt><trkpt lat="43.881062" lon="11.1323397"><ele>446.1666666666667</ele><time>2026-04-18T16:27:46.166Z</time></trkpt><trkpt lat="43.8811357" lon="11.1323684"><ele>448.33333333333337</ele><time>2026-04-18T16:27:47.173Z</time></trkpt><trkpt lat="43.8812131" lon="11.1324075"><ele>450.5</ele><time>2026-04-18T16:27:48.173Z</time></trkpt><trkpt lat="43.8812715" lon="11.1324413"><ele>452.6666666666667</ele><time>2026-04-18T16:27:49.161Z</time></trkpt><trkpt lat="43.8813578" lon="11.1324055"><ele>454.83333333333337</ele><time>2026-04-18T16:27:51.182Z</time></trkpt><trkpt lat="43.8813859" lon="11.1322595"><ele>457.0</ele><time>2026-04-18T16:27:53.169Z</time></trkpt><trkpt lat="43.881405" lon="11.1321675"><ele>457.00000000000006</ele><time>2026-04-18T16:27:54.173Z</time></trkpt><trkpt lat="43.8814304" lon="11.1320803"><ele>457.0</ele><time>2026-04-18T16:27:55.167Z</time></trkpt><trkpt lat="43.8814879" lon="11.131962"><ele>457.0</ele><time>2026-04-18T16:27:57.18Z</time></trkpt><trkpt lat="43.88157" lon="11.1318492"><ele>457.0</ele><time>2026-04-18T16:27:59.164Z</time></trkpt><trkpt lat="43.8816225" lon="11.1318002"><ele>457.00000000000006</ele><time>2026-04-18T16:28:00.173Z</time></trkpt><trkpt lat="43.8816881" lon="11.1317465"><ele>457.0</ele><time>2026-04-18T16:28:01.182Z</time></trkpt><trkpt lat="43.8817541" lon="11.1316923"><ele>456.33333333333337</ele><time>2026-04-18T16:28:02.173Z</time></trkpt><trkpt lat="43.8818103" lon="11.1316149"><ele>455.6666666666667</ele><time>2026-04-18T16:28:03.176Z</time></trkpt><trkpt lat="43.8818675" lon="11.1315343"><ele>455.0</ele><time>2026-04-18T16:28:04.182Z</time></trkpt><trkpt lat="43.8819167" lon="11.1314703"><ele>454.33333333333337</ele><time>2026-04-18T16:28:05.174Z</time></trkpt><trkpt lat="43.8820096" lon="11.1313941"><ele>453.6666666666667</ele><time>2026-04-18T16:28:07.18Z</time></trkpt><trkpt lat="43.8820728" lon="11.1313652"><ele>453.0</ele><time>2026-04-18T16:28:08.171Z</time></trkpt><trkpt lat="43.8821421" lon="11.1313313"><ele>453.0</ele><time>2026-04-18T16:28:09.164Z</time></trkpt><trkpt lat="43.8822322" lon="11.1313008"><ele>452.99999999999994</ele><time>2026-04-18T16:28:10.162Z</time></trkpt><trkpt lat="43.8823345" lon="11.1312628"><ele>452.99999999999994</ele><time>2026-04-18T16:28:11.18Z</time></trkpt><trkpt lat="43.8824368" lon="11.1312428"><ele>453.0</ele><time>2026-04-18T16:28:12.171Z</time></trkpt><trkpt lat="43.8825343" lon="11.1312165"><ele>453.0</ele><time>2026-04-18T16:28:13.166Z</time></trkpt><trkpt lat="43.882621" lon="11.1311484"><ele>453.3333333333333</ele><time>2026-04-18T16:28:14.172Z</time></trkpt><trkpt lat="43.8826993" lon="11.1311002"><ele>453.66666666666663</ele><time>2026-04-18T16:28:15.171Z</time></trkpt><trkpt lat="43.8827684" lon="11.1310477"><ele>454.0</ele><time>2026-04-18T16:28:16.184Z</time></trkpt><trkpt lat="43.8828344" lon="11.1309825"><ele>454.3333333333333</ele><time>2026-04-18T16:28:17.175Z</time></trkpt><trkpt lat="43.8829065" lon="11.1309154"><ele>454.66666666666663</ele><time>2026-04-18T16:28:18.176Z</time></trkpt><trkpt lat="43.8829793" lon="11.1308563"><ele>455.0</ele><time>2026-04-18T16:28:19.176Z</time></trkpt><trkpt lat="43.8830643" lon="11.1307932"><ele>454.99999999999994</ele><time>2026-04-18T16:28:20.173Z</time></trkpt><trkpt lat="43.8831447" lon="11.1307347"><ele>455.0</ele><time>2026-04-18T16:28:21.177Z</time></trkpt><trkpt lat="43.88323" lon="11.1306712"><ele>455.0</ele><time>2026-04-18T16:28:22.173Z</time></trkpt><trkpt lat="43.8833058" lon="11.1306141"><ele>455.0</ele><time>2026-04-18T16:28:23.171Z</time></trkpt><trkpt lat="43.8833847" lon="11.1305687"><ele>454.99999999999994</ele><time>2026-04-18T16:28:24.168Z</time></trkpt><trkpt lat="43.8834569" lon="11.1305427"><ele>455.0</ele><time>2026-04-18T16:28:25.164Z</time></trkpt><trkpt lat="43.8835234" lon="11.1305668"><ele>455.6</ele><time>2026-04-18T16:28:26.163Z</time></trkpt><trkpt lat="43.8835988" lon="11.1305749"><ele>456.2</ele><time>2026-04-18T16:28:27.186Z</time></trkpt><trkpt lat="43.8837052" lon="11.1305903"><ele>456.79999999999995</ele><time>2026-04-18T16:28:29.166Z</time></trkpt><trkpt lat="43.8837532" lon="11.1306929"><ele>457.4</ele><time>2026-04-18T16:28:31.161Z</time></trkpt><trkpt lat="43.8837927" lon="11.1308612"><ele>458.0</ele><time>2026-04-18T16:28:33.169Z</time></trkpt><trkpt lat="43.88381" lon="11.130956"><ele>458.0</ele><time>2026-04-18T16:28:34.159Z</time></trkpt><trkpt lat="43.8838787" lon="11.1310158"><ele>457.99999999999994</ele><time>2026-04-18T16:28:36.168Z</time></trkpt><trkpt lat="43.8839901" lon="11.1309938"><ele>457.99999999999994</ele><time>2026-04-18T16:28:38.169Z</time></trkpt><trkpt lat="43.8840684" lon="11.1309933"><ele>458.0</ele><time>2026-04-18T16:28:39.152Z</time></trkpt><trkpt lat="43.8841614" lon="11.1310051"><ele>458.0</ele><time>2026-04-18T16:28:40.161Z</time></trkpt><trkpt lat="43.8842808" lon="11.131016"><ele>459.4</ele><time>2026-04-18T16:28:41.174Z</time></trkpt><trkpt lat="43.8843791" lon="11.1310346"><ele>460.79999999999995</ele><time>2026-04-18T16:28:42.174Z</time></trkpt><trkpt lat="43.884463" lon="11.1310414"><ele>462.2</ele><time>2026-04-18T16:28:43.176Z</time></trkpt><trkpt lat="43.8845421" lon="11.1310432"><ele>463.6</ele><time>2026-04-18T16:28:44.18Z</time></trkpt><trkpt lat="43.884629" lon="11.1310412"><ele>465.0</ele><time>2026-04-18T16:28:45.183Z</time></trkpt><trkpt lat="43.8847292" lon="11.1310257"><ele>465.0</ele><time>2026-04-18T16:28:46.176Z</time></trkpt><trkpt lat="43.8848418" lon="11.1310076"><ele>465.0</ele><time>2026-04-18T16:28:47.175Z</time></trkpt><trkpt lat="43.8849545" lon="11.1310152"><ele>465.0</ele><time>2026-04-18T16:28:48.175Z</time></trkpt><trkpt lat="43.885052" lon="11.1310391"><ele>465.0</ele><time>2026-04-18T16:28:49.173Z</time></trkpt><trkpt lat="43.8851311" lon="11.1310826"><ele>465.0</ele><time>2026-04-18T16:28:50.167Z</time></trkpt><trkpt lat="43.8852045" lon="11.1311578"><ele>466.6</ele><time>2026-04-18T16:28:51.167Z</time></trkpt><trkpt lat="43.8852698" lon="11.1312758"><ele>468.2</ele><time>2026-04-18T16:28:52.174Z</time></trkpt><trkpt lat="43.8853488" lon="11.1313769"><ele>469.79999999999995</ele><time>2026-04-18T16:28:53.166Z</time></trkpt><trkpt lat="43.8854352" lon="11.1314448"><ele>471.4</ele><time>2026-04-18T16:28:54.167Z</time></trkpt><trkpt lat="43.8855224" lon="11.131486"><ele>473.0</ele><time>2026-04-18T16:28:55.179Z</time></trkpt><trkpt lat="43.8855919" lon="11.1314779"><ele>473.0</ele><time>2026-04-18T16:28:56.162Z</time></trkpt><trkpt lat="43.8856566" lon="11.1314214"><ele>472.99999999999994</ele><time>2026-04-18T16:28:57.175Z</time></trkpt><trkpt lat="43.885728" lon="11.1313421"><ele>472.99999999999994</ele><time>2026-04-18T16:28:58.181Z</time></trkpt><trkpt lat="43.8858208" lon="11.1312959"><ele>473.0</ele><time>2026-04-18T16:28:59.163Z</time></trkpt><trkpt lat="43.8859124" lon="11.1312981"><ele>473.0</ele><time>2026-04-18T16:29:00.173Z</time></trkpt><trkpt lat="43.886003" lon="11.1313341"><ele>473.25</ele><time>2026-04-18T16:29:01.179Z</time></trkpt><trkpt lat="43.8860905" lon="11.1314038"><ele>473.5</ele><time>2026-04-18T16:29:02.162Z</time></trkpt><trkpt lat="43.886179" lon="11.1315124"><ele>473.75</ele><time>2026-04-18T16:29:03.154Z</time></trkpt><trkpt lat="43.8862915" lon="11.1315782"><ele>474.0</ele><time>2026-04-18T16:29:04.162Z</time></trkpt><trkpt lat="43.8864177" lon="11.1316144"><ele>477.66666666666663</ele><time>2026-04-18T16:29:05.174Z</time></trkpt><trkpt lat="43.8865806" lon="11.1316407"><ele>481.3333333333333</ele><time>2026-04-18T16:29:06.162Z</time></trkpt><trkpt lat="43.8867575" lon="11.1316976"><ele>485.0</ele><time>2026-04-18T16:29:07.166Z</time></trkpt><trkpt lat="43.8868867" lon="11.1317679"><ele>485.0</ele><time>2026-04-18T16:29:08.166Z</time></trkpt><trkpt lat="43.8869963" lon="11.1318302"><ele>485.0</ele><time>2026-04-18T16:29:09.174Z</time></trkpt><trkpt lat="43.8870879" lon="11.1318949"><ele>485.0</ele><time>2026-04-18T16:29:10.174Z</time></trkpt><trkpt lat="43.8871702" lon="11.1319728"><ele>485.0</ele><time>2026-04-18T16:29:11.175Z</time></trkpt><trkpt lat="43.8872355" lon="11.132079"><ele>485.0</ele><time>2026-04-18T16:29:12.166Z</time></trkpt><trkpt lat="43.8872871" lon="11.1322006"><ele>484.99999999999994</ele><time>2026-04-18T16:29:13.174Z</time></trkpt><trkpt lat="43.8873434" lon="11.1323142"><ele>485.0</ele><time>2026-04-18T16:29:14.169Z</time></trkpt><trkpt lat="43.8874179" lon="11.1323984"><ele>485.0</ele><time>2026-04-18T16:29:15.164Z</time></trkpt><trkpt lat="43.8874973" lon="11.1324406"><ele>485.0</ele><time>2026-04-18T16:29:16.181Z</time></trkpt><trkpt lat="43.8875822" lon="11.1324563"><ele>484.99999999999994</ele><time>2026-04-18T16:29:17.162Z</time></trkpt><trkpt lat="43.8876525" lon="11.1324967"><ele>485.0</ele><time>2026-04-18T16:29:18.163Z</time></trkpt><trkpt lat="43.8877071" lon="11.1325682"><ele>486.8</ele><time>2026-04-18T16:29:19.172Z</time></trkpt><trkpt lat="43.8877539" lon="11.1326999"><ele>488.6</ele><time>2026-04-18T16:29:20.165Z</time></trkpt><trkpt lat="43.8877857" lon="11.1328139"><ele>490.4</ele><time>2026-04-18T16:29:21.18Z</time></trkpt><trkpt lat="43.8879035" lon="11.1328658"><ele>492.2</ele><time>2026-04-18T16:29:23.165Z</time></trkpt><trkpt lat="43.8879811" lon="11.1328639"><ele>494.0</ele><time>2026-04-18T16:29:24.16Z</time></trkpt><trkpt lat="43.8880684" lon="11.1329152"><ele>494.0</ele><time>2026-04-18T16:29:25.158Z</time></trkpt><trkpt lat="43.8881518" lon="11.1329472"><ele>494.0</ele><time>2026-04-18T16:29:26.156Z</time></trkpt><trkpt lat="43.8882345" lon="11.1329418"><ele>494.0</ele><time>2026-04-18T16:29:27.164Z</time></trkpt><trkpt lat="43.8883341" lon="11.1329027"><ele>494.0</ele><time>2026-04-18T16:29:28.164Z</time></trkpt><trkpt lat="43.8884248" lon="11.1328544"><ele>494.0</ele><time>2026-04-18T16:29:29.181Z</time></trkpt><trkpt lat="43.8885076" lon="11.1328299"><ele>493.8333333333333</ele><time>2026-04-18T16:29:30.164Z</time></trkpt><trkpt lat="43.8885819" lon="11.1328285"><ele>493.66666666666663</ele><time>2026-04-18T16:29:31.168Z</time></trkpt><trkpt lat="43.8886467" lon="11.1328119"><ele>493.5</ele><time>2026-04-18T16:29:32.169Z</time></trkpt><trkpt lat="43.8886976" lon="11.132757"><ele>493.33333333333337</ele><time>2026-04-18T16:29:33.175Z</time></trkpt><trkpt lat="43.8887441" lon="11.1326155"><ele>493.1666666666667</ele><time>2026-04-18T16:29:35.169Z</time></trkpt><trkpt lat="43.8887793" lon="11.1324846"><ele>493.0</ele><time>2026-04-18T16:29:37.159Z</time></trkpt><trkpt lat="43.8888308" lon="11.132428"><ele>493.0</ele><time>2026-04-18T16:29:38.173Z</time></trkpt><trkpt lat="43.8889149" lon="11.1324035"><ele>492.99999999999994</ele><time>2026-04-18T16:29:39.156Z</time></trkpt><trkpt lat="43.8890134" lon="11.1323853"><ele>492.99999999999994</ele><time>2026-04-18T16:29:40.155Z</time></trkpt><trkpt lat="43.8891029" lon="11.1323968"><ele>493.0</ele><time>2026-04-18T16:29:41.164Z</time></trkpt><trkpt lat="43.889202" lon="11.1324394"><ele>493.0</ele><time>2026-04-18T16:29:42.164Z</time></trkpt><trkpt lat="43.8893077" lon="11.1324861"><ele>492.59999999999997</ele><time>2026-04-18T16:29:43.17Z</time></trkpt><trkpt lat="43.8894217" lon="11.132541"><ele>492.19999999999993</ele><time>2026-04-18T16:29:44.173Z</time></trkpt><trkpt lat="43.8895191" lon="11.1325667"><ele>491.8</ele><time>2026-04-18T16:29:45.171Z</time></trkpt><trkpt lat="43.8896125" lon="11.1325667"><ele>491.4</ele><time>2026-04-18T16:29:46.176Z</time></trkpt><trkpt lat="43.8896967" lon="11.1325703"><ele>491.0</ele><time>2026-04-18T16:29:47.182Z</time></trkpt><trkpt lat="43.8897721" lon="11.1326291"><ele>491.0</ele><time>2026-04-18T16:29:48.18Z</time></trkpt><trkpt lat="43.8898476" lon="11.1327348"><ele>491.0</ele><time>2026-04-18T16:29:49.174Z</time></trkpt><trkpt lat="43.8899367" lon="11.1328083"><ele>491.0</ele><time>2026-04-18T16:29:50.168Z</time></trkpt><trkpt lat="43.8900365" lon="11.1328439"><ele>491.0</ele><time>2026-04-18T16:29:51.174Z</time></trkpt><trkpt lat="43.8901172" lon="11.1328748"><ele>491.0</ele><time>2026-04-18T16:29:52.162Z</time></trkpt><trkpt lat="43.8901942" lon="11.1329469"><ele>489.5</ele><time>2026-04-18T16:29:53.183Z</time></trkpt><trkpt lat="43.8902725" lon="11.1330579"><ele>488.0</ele><time>2026-04-18T16:29:54.173Z</time></trkpt><trkpt lat="43.8903545" lon="11.1331365"><ele>486.5</ele><time>2026-04-18T16:29:55.166Z</time></trkpt><trkpt lat="43.8904628" lon="11.1331808"><ele>485.0</ele><time>2026-04-18T16:29:56.177Z</time></trkpt><trkpt lat="43.890588" lon="11.1331899"><ele>485.0</ele><time>2026-04-18T16:29:57.172Z</time></trkpt><trkpt lat="43.8906979" lon="11.1332177"><ele>485.0</ele><time>2026-04-18T16:29:58.171Z</time></trkpt><trkpt lat="43.8907686" lon="11.1332467"><ele>485.0</ele><time>2026-04-18T16:29:59.165Z</time></trkpt><trkpt lat="43.8908477" lon="11.1333692"><ele>485.0</ele><time>2026-04-18T16:30:01.17Z</time></trkpt><trkpt lat="43.8908674" lon="11.1334823"><ele>485.0</ele><time>2026-04-18T16:30:02.166Z</time></trkpt><trkpt lat="43.8909498" lon="11.1335622"><ele>488.4</ele><time>2026-04-18T16:30:04.18Z</time></trkpt><trkpt lat="43.8910152" lon="11.1335325"><ele>491.8</ele><time>2026-04-18T16:30:06.175Z</time></trkpt><trkpt lat="43.8911372" lon="11.1334272"><ele>495.20000000000005</ele><time>2026-04-18T16:30:18.164Z</time></trkpt><trkpt lat="43.8912051" lon="11.1334178"><ele>498.6</ele><time>2026-04-18T16:30:19.158Z</time></trkpt><trkpt lat="43.8912859" lon="11.1334353"><ele>502.0</ele><time>2026-04-18T16:30:20.171Z</time></trkpt><trkpt lat="43.8913768" lon="11.1334422"><ele>502.00000000000006</ele><time>2026-04-18T16:30:21.176Z</time></trkpt><trkpt lat="43.8914476" lon="11.1334519"><ele>502.0</ele><time>2026-04-18T16:30:22.173Z</time></trkpt><trkpt lat="43.8915048" lon="11.1335749"><ele>502.0</ele><time>2026-04-18T16:30:24.165Z</time></trkpt><trkpt lat="43.8914829" lon="11.1336666"><ele>502.0</ele><time>2026-04-18T16:30:25.151Z</time></trkpt><trkpt lat="43.8914566" lon="11.1337539"><ele>502.00000000000006</ele><time>2026-04-18T16:30:26.164Z</time></trkpt><trkpt lat="43.8914458" lon="11.1338438"><ele>502.0</ele><time>2026-04-18T16:30:27.168Z</time></trkpt><trkpt lat="43.8914959" lon="11.1339746"><ele>502.0</ele><time>2026-04-18T16:30:29.176Z</time></trkpt><trkpt lat="43.8915714" lon="11.1340418"><ele>502.00000000000006</ele><time>2026-04-18T16:30:30.173Z</time></trkpt><trkpt lat="43.8916602" lon="11.1341376"><ele>502.00000000000006</ele><time>2026-04-18T16:30:31.186Z</time></trkpt><trkpt lat="43.8917354" lon="11.1342445"><ele>502.0</ele><time>2026-04-18T16:30:32.172Z</time></trkpt><trkpt lat="43.8918014" lon="11.1343704"><ele>502.0</ele><time>2026-04-18T16:30:33.173Z</time></trkpt><trkpt lat="43.8918548" lon="11.1344806"><ele>503.40000000000003</ele><time>2026-04-18T16:30:34.178Z</time></trkpt><trkpt lat="43.8919049" lon="11.1345939"><ele>504.80000000000007</ele><time>2026-04-18T16:30:35.179Z</time></trkpt><trkpt lat="43.8919634" lon="11.1347066"><ele>506.2</ele><time>2026-04-18T16:30:36.181Z</time></trkpt><trkpt lat="43.8920315" lon="11.1348084"><ele>507.6</ele><time>2026-04-18T16:30:37.175Z</time></trkpt><trkpt lat="43.8921074" lon="11.1348847"><ele>509.0</ele><time>2026-04-18T16:30:38.192Z</time></trkpt><trkpt lat="43.8921841" lon="11.1349488"><ele>509.0</ele><time>2026-04-18T16:30:39.169Z</time></trkpt><trkpt lat="43.8922601" lon="11.1349913"><ele>509.0</ele><time>2026-04-18T16:30:40.166Z</time></trkpt><trkpt lat="43.8923542" lon="11.1350179"><ele>509.0</ele><time>2026-04-18T16:30:41.172Z</time></trkpt><trkpt lat="43.8924466" lon="11.1350476"><ele>509.0</ele><time>2026-04-18T16:30:42.167Z</time></trkpt><trkpt lat="43.8925395" lon="11.1350777"><ele>509.0</ele><time>2026-04-18T16:30:43.166Z</time></trkpt><trkpt lat="43.8926339" lon="11.1350902"><ele>507.99999999999994</ele><time>2026-04-18T16:30:44.16Z</time></trkpt><trkpt lat="43.8927332" lon="11.1350831"><ele>507.0</ele><time>2026-04-18T16:30:45.159Z</time></trkpt><trkpt lat="43.892825" lon="11.1350532"><ele>506.0</ele><time>2026-04-18T16:30:46.17Z</time></trkpt><trkpt lat="43.892907" lon="11.1350301"><ele>505.0</ele><time>2026-04-18T16:30:47.166Z</time></trkpt><trkpt lat="43.8929739" lon="11.1350112"><ele>503.99999999999994</ele><time>2026-04-18T16:30:48.168Z</time></trkpt><trkpt lat="43.8930381" lon="11.1349837"><ele>503.0</ele><time>2026-04-18T16:30:49.159Z</time></trkpt><trkpt lat="43.8931016" lon="11.1349432"><ele>502.99999999999994</ele><time>2026-04-18T16:30:50.163Z</time></trkpt><trkpt lat="43.8931667" lon="11.1348906"><ele>503.0</ele><time>2026-04-18T16:30:51.166Z</time></trkpt><trkpt lat="43.8932313" lon="11.1348169"><ele>503.0</ele><time>2026-04-18T16:30:52.169Z</time></trkpt><trkpt lat="43.893294" lon="11.1347422"><ele>503.0</ele><time>2026-04-18T16:30:53.167Z</time></trkpt><trkpt lat="43.8933483" lon="11.1346946"><ele>502.99999999999994</ele><time>2026-04-18T16:30:54.159Z</time></trkpt><trkpt lat="43.8934173" lon="11.1346587"><ele>503.0</ele><time>2026-04-18T16:30:56.163Z</time></trkpt><trkpt lat="43.893488" lon="11.1347215"><ele>503.8333333333333</ele><time>2026-04-18T16:30:59.17Z</time></trkpt><trkpt lat="43.8935508" lon="11.1347749"><ele>504.66666666666663</ele><time>2026-04-18T16:31:01.169Z</time></trkpt><trkpt lat="43.8936287" lon="11.1348545"><ele>505.5</ele><time>2026-04-18T16:31:03.165Z</time></trkpt><trkpt lat="43.8936777" lon="11.134937"><ele>506.33333333333337</ele><time>2026-04-18T16:31:05.168Z</time></trkpt><trkpt lat="43.893721" lon="11.1350194"><ele>507.1666666666667</ele><time>2026-04-18T16:31:08.17Z</time></trkpt><trkpt lat="43.8937524" lon="11.1351106"><ele>508.0</ele><time>2026-04-18T16:31:13.176Z</time></trkpt><trkpt lat="43.8937512" lon="11.1349878"><ele>508.00000000000006</ele><time>2026-04-18T16:31:26.176Z</time></trkpt><trkpt lat="43.8937051" lon="11.1349274"><ele>508.0</ele><time>2026-04-18T16:31:27.176Z</time></trkpt><trkpt lat="43.8936109" lon="11.1348458"><ele>508.0</ele><time>2026-04-18T16:31:28.159Z</time></trkpt><trkpt lat="43.8935112" lon="11.1347608"><ele>508.0</ele><time>2026-04-18T16:31:29.164Z</time></trkpt><trkpt lat="43.8934378" lon="11.1346914"><ele>508.00000000000006</ele><time>2026-04-18T16:31:30.166Z</time></trkpt><trkpt lat="43.8933773" lon="11.1346653"><ele>508.0</ele><time>2026-04-18T16:31:31.169Z</time></trkpt><trkpt lat="43.8932449" lon="11.1347138"><ele>507.79999999999995</ele><time>2026-04-18T16:31:33.185Z</time></trkpt><trkpt lat="43.8931607" lon="11.1348088"><ele>507.59999999999997</ele><time>2026-04-18T16:31:34.157Z</time></trkpt><trkpt lat="43.8930747" lon="11.1348939"><ele>507.40000000000003</ele><time>2026-04-18T16:31:35.151Z</time></trkpt><trkpt lat="43.8929745" lon="11.134962"><ele>507.20000000000005</ele><time>2026-04-18T16:31:36.157Z</time></trkpt><trkpt lat="43.8928545" lon="11.1350017"><ele>507.0</ele><time>2026-04-18T16:31:37.165Z</time></trkpt><trkpt lat="43.892733" lon="11.1350272"><ele>507.40000000000003</ele><time>2026-04-18T16:31:38.162Z</time></trkpt><trkpt lat="43.8926242" lon="11.1350387"><ele>507.80000000000007</ele><time>2026-04-18T16:31:39.161Z</time></trkpt><trkpt lat="43.8925286" lon="11.1350361"><ele>508.2</ele><time>2026-04-18T16:31:40.16Z</time></trkpt><trkpt lat="43.8924273" lon="11.1350215"><ele>508.6</ele><time>2026-04-18T16:31:41.155Z</time></trkpt><trkpt lat="43.8923113" lon="11.1349928"><ele>509.0</ele><time>2026-04-18T16:31:42.164Z</time></trkpt><trkpt lat="43.8922036" lon="11.1349462"><ele>509.25</ele><time>2026-04-18T16:31:43.158Z</time></trkpt><trkpt lat="43.8921169" lon="11.1348789"><ele>509.5</ele><time>2026-04-18T16:31:44.154Z</time></trkpt><trkpt lat="43.8920298" lon="11.1347783"><ele>509.75</ele><time>2026-04-18T16:31:45.162Z</time></trkpt><trkpt lat="43.8919501" lon="11.1346414"><ele>510.0</ele><time>2026-04-18T16:31:46.163Z</time></trkpt><trkpt lat="43.8918781" lon="11.1344968"><ele>510.0</ele><time>2026-04-18T16:31:47.157Z</time></trkpt><trkpt lat="43.8918054" lon="11.1343394"><ele>510.0</ele><time>2026-04-18T16:31:48.167Z</time></trkpt><trkpt lat="43.8917198" lon="11.1341899"><ele>510.0</ele><time>2026-04-18T16:31:49.171Z</time></trkpt><trkpt lat="43.8916264" lon="11.1340617"><ele>510.0</ele><time>2026-04-18T16:31:50.166Z</time></trkpt><trkpt lat="43.8915565" lon="11.1339784"><ele>508.6666666666667</ele><time>2026-04-18T16:31:51.17Z</time></trkpt><trkpt lat="43.8914906" lon="11.1339159"><ele>507.33333333333337</ele><time>2026-04-18T16:31:52.169Z</time></trkpt><trkpt lat="43.8914333" lon="11.1337768"><ele>506.0</ele><time>2026-04-18T16:31:54.16Z</time></trkpt><trkpt lat="43.8914512" lon="11.133692"><ele>504.6666666666667</ele><time>2026-04-18T16:31:55.16Z</time></trkpt><trkpt lat="43.8914742" lon="11.1336023"><ele>503.33333333333337</ele><time>2026-04-18T16:31:56.168Z</time></trkpt><trkpt lat="43.8914829" lon="11.1335108"><ele>502.0</ele><time>2026-04-18T16:31:57.164Z</time></trkpt><trkpt lat="43.8914468" lon="11.1334203"><ele>502.0</ele><time>2026-04-18T16:31:59.163Z</time></trkpt><trkpt lat="43.8913176" lon="11.1334341"><ele>502.00000000000006</ele><time>2026-04-18T16:32:01.16Z</time></trkpt><trkpt lat="43.8912349" lon="11.133442"><ele>502.00000000000006</ele><time>2026-04-18T16:32:02.171Z</time></trkpt><trkpt lat="43.89116" lon="11.1334361"><ele>502.0</ele><time>2026-04-18T16:32:03.17Z</time></trkpt><trkpt lat="43.8910795" lon="11.1334603"><ele>502.0</ele><time>2026-04-18T16:32:04.181Z</time></trkpt><trkpt lat="43.8909961" lon="11.133505"><ele>502.0</ele><time>2026-04-18T16:32:05.162Z</time></trkpt><trkpt lat="43.890931" lon="11.1335376"><ele>502.00000000000006</ele><time>2026-04-18T16:32:06.168Z</time></trkpt><trkpt lat="43.8908293" lon="11.1334868"><ele>502.00000000000006</ele><time>2026-04-18T16:32:08.173Z</time></trkpt><trkpt lat="43.8908022" lon="11.1333162"><ele>502.0</ele><time>2026-04-18T16:32:10.173Z</time></trkpt><trkpt lat="43.8907785" lon="11.1332315"><ele>502.0</ele><time>2026-04-18T16:32:11.168Z</time></trkpt><trkpt lat="43.8906333" lon="11.1331794"><ele>497.75</ele><time>2026-04-18T16:32:13.173Z</time></trkpt><trkpt lat="43.8905037" lon="11.1331693"><ele>493.5</ele><time>2026-04-18T16:32:14.166Z</time></trkpt><trkpt lat="43.8903624" lon="11.133128"><ele>489.25</ele><time>2026-04-18T16:32:15.165Z</time></trkpt><trkpt lat="43.8902593" lon="11.1330701"><ele>485.0</ele><time>2026-04-18T16:32:16.173Z</time></trkpt><trkpt lat="43.8901838" lon="11.1329735"><ele>485.0</ele><time>2026-04-18T16:32:17.162Z</time></trkpt><trkpt lat="43.8901007" lon="11.1328603"><ele>485.0</ele><time>2026-04-18T16:32:18.17Z</time></trkpt><trkpt lat="43.8900098" lon="11.1327767"><ele>485.0</ele><time>2026-04-18T16:32:19.161Z</time></trkpt><trkpt lat="43.8898995" lon="11.1327267"><ele>485.0</ele><time>2026-04-18T16:32:20.172Z</time></trkpt><trkpt lat="43.8897974" lon="11.1326766"><ele>486.2</ele><time>2026-04-18T16:32:21.176Z</time></trkpt><trkpt lat="43.8897233" lon="11.1325877"><ele>487.4</ele><time>2026-04-18T16:32:22.177Z</time></trkpt><trkpt lat="43.8896573" lon="11.1325235"><ele>488.6</ele><time>2026-04-18T16:32:23.183Z</time></trkpt><trkpt lat="43.8895722" lon="11.1325196"><ele>489.8</ele><time>2026-04-18T16:32:24.18Z</time></trkpt><trkpt lat="43.8894575" lon="11.1325254"><ele>491.0</ele><time>2026-04-18T16:32:25.162Z</time></trkpt><trkpt lat="43.8893314" lon="11.1325024"><ele>491.5</ele><time>2026-04-18T16:32:26.167Z</time></trkpt><trkpt lat="43.8891949" lon="11.1324393"><ele>492.0</ele><time>2026-04-18T16:32:27.177Z</time></trkpt><trkpt lat="43.8890674" lon="11.1323854"><ele>492.5</ele><time>2026-04-18T16:32:28.171Z</time></trkpt><trkpt lat="43.8889517" lon="11.1323744"><ele>493.0</ele><time>2026-04-18T16:32:29.169Z</time></trkpt><trkpt lat="43.8888506" lon="11.1323926"><ele>493.0</ele><time>2026-04-18T16:32:30.175Z</time></trkpt><trkpt lat="43.8887648" lon="11.1324288"><ele>492.99999999999994</ele><time>2026-04-18T16:32:31.158Z</time></trkpt><trkpt lat="43.8886916" lon="11.1324795"><ele>492.99999999999994</ele><time>2026-04-18T16:32:32.158Z</time></trkpt><trkpt lat="43.8886327" lon="11.1325627"><ele>493.0</ele><time>2026-04-18T16:32:33.167Z</time></trkpt><trkpt lat="43.8886094" lon="11.1327045"><ele>493.0</ele><time>2026-04-18T16:32:34.156Z</time></trkpt><trkpt lat="43.888591" lon="11.1328291"><ele>493.0</ele><time>2026-04-18T16:32:35.172Z</time></trkpt><trkpt lat="43.888454" lon="11.1328678"><ele>492.99999999999994</ele><time>2026-04-18T16:32:37.162Z</time></trkpt><trkpt lat="43.8883517" lon="11.1328681"><ele>492.99999999999994</ele><time>2026-04-18T16:32:38.17Z</time></trkpt><trkpt lat="43.8882454" lon="11.1328989"><ele>493.0</ele><time>2026-04-18T16:32:39.169Z</time></trkpt><trkpt lat="43.8881562" lon="11.1329263"><ele>493.0</ele><time>2026-04-18T16:32:40.175Z</time></trkpt><trkpt lat="43.8880706" lon="11.1329056"><ele>493.1666666666667</ele><time>2026-04-18T16:32:41.162Z</time></trkpt><trkpt lat="43.8879732" lon="11.1328552"><ele>493.33333333333337</ele><time>2026-04-18T16:32:42.175Z</time></trkpt><trkpt lat="43.887881" lon="11.1328126"><ele>493.5</ele><time>2026-04-18T16:32:43.172Z</time></trkpt><trkpt lat="43.8878112" lon="11.1327953"><ele>493.66666666666663</ele><time>2026-04-18T16:32:44.171Z</time></trkpt><trkpt lat="43.8877483" lon="11.132769"><ele>493.8333333333333</ele><time>2026-04-18T16:32:45.17Z</time></trkpt><trkpt lat="43.8877041" lon="11.1326908"><ele>494.0</ele><time>2026-04-18T16:32:46.164Z</time></trkpt><trkpt lat="43.8876749" lon="11.1325884"><ele>493.99999999999994</ele><time>2026-04-18T16:32:47.166Z</time></trkpt><trkpt lat="43.8876393" lon="11.1324769"><ele>494.0</ele><time>2026-04-18T16:32:48.166Z</time></trkpt><trkpt lat="43.8875867" lon="11.1323934"><ele>494.0</ele><time>2026-04-18T16:32:49.164Z</time></trkpt><trkpt lat="43.8875188" lon="11.1323305"><ele>494.0</ele><time>2026-04-18T16:32:50.162Z</time></trkpt><trkpt lat="43.8874401" lon="11.1323003"><ele>493.99999999999994</ele><time>2026-04-18T16:32:51.168Z</time></trkpt><trkpt lat="43.8873608" lon="11.132265"><ele>494.0</ele><time>2026-04-18T16:32:52.16Z</time></trkpt><trkpt lat="43.8872873" lon="11.1321899"><ele>492.2</ele><time>2026-04-18T16:32:53.158Z</time></trkpt><trkpt lat="43.8872226" lon="11.1320732"><ele>490.4</ele><time>2026-04-18T16:32:54.164Z</time></trkpt><trkpt lat="43.8871525" lon="11.1319681"><ele>488.6</ele><time>2026-04-18T16:32:55.166Z</time></trkpt><trkpt lat="43.8870799" lon="11.1318914"><ele>486.8</ele><time>2026-04-18T16:32:56.169Z</time></trkpt><trkpt lat="43.8869913" lon="11.1318284"><ele>485.0</ele><time>2026-04-18T16:32:57.155Z</time></trkpt><trkpt lat="43.8868841" lon="11.1317495"><ele>485.0</ele><time>2026-04-18T16:32:58.163Z</time></trkpt><trkpt lat="43.8867523" lon="11.1316833"><ele>485.0</ele><time>2026-04-18T16:32:59.164Z</time></trkpt><trkpt lat="43.8866191" lon="11.1316436"><ele>485.0</ele><time>2026-04-18T16:33:00.173Z</time></trkpt><trkpt lat="43.8864869" lon="11.1316182"><ele>485.0</ele><time>2026-04-18T16:33:01.171Z</time></trkpt><trkpt lat="43.8863721" lon="11.131601"><ele>485.0</ele><time>2026-04-18T16:33:02.164Z</time></trkpt><trkpt lat="43.8862746" lon="11.1315653"><ele>485.0</ele><time>2026-04-18T16:33:03.167Z</time></trkpt><trkpt lat="43.8861763" lon="11.131507"><ele>485.0</ele><time>2026-04-18T16:33:04.165Z</time></trkpt><trkpt lat="43.8860851" lon="11.1314341"><ele>485.0</ele><time>2026-04-18T16:33:05.164Z</time></trkpt><trkpt lat="43.8860107" lon="11.1313484"><ele>485.0</ele><time>2026-04-18T16:33:06.18Z</time></trkpt><trkpt lat="43.885955" lon="11.1312926"><ele>482.99999999999994</ele><time>2026-04-18T16:33:07.167Z</time></trkpt><trkpt lat="43.8858284" lon="11.1312861"><ele>481.0</ele><time>2026-04-18T16:33:09.159Z</time></trkpt><trkpt lat="43.8857587" lon="11.1312922"><ele>479.0</ele><time>2026-04-18T16:33:10.165Z</time></trkpt><trkpt lat="43.885687" lon="11.1313126"><ele>477.0</ele><time>2026-04-18T16:33:11.16Z</time></trkpt><trkpt lat="43.8856147" lon="11.1313606"><ele>474.99999999999994</ele><time>2026-04-18T16:33:12.161Z</time></trkpt><trkpt lat="43.8855504" lon="11.1314083"><ele>473.0</ele><time>2026-04-18T16:33:13.173Z</time></trkpt><trkpt lat="43.8854787" lon="11.1314407"><ele>473.0</ele><time>2026-04-18T16:33:14.162Z</time></trkpt><trkpt lat="43.8854044" lon="11.1314249"><ele>472.99999999999994</ele><time>2026-04-18T16:33:15.171Z</time></trkpt><trkpt lat="43.885327" lon="11.1313535"><ele>472.99999999999994</ele><time>2026-04-18T16:33:16.167Z</time></trkpt><trkpt lat="43.8852437" lon="11.1312438"><ele>473.0</ele><time>2026-04-18T16:33:17.161Z</time></trkpt><trkpt lat="43.8851705" lon="11.1311403"><ele>473.0</ele><time>2026-04-18T16:33:18.168Z</time></trkpt><trkpt lat="43.8850988" lon="11.1310669"><ele>471.4</ele><time>2026-04-18T16:33:19.164Z</time></trkpt><trkpt lat="43.8850154" lon="11.1310186"><ele>469.79999999999995</ele><time>2026-04-18T16:33:20.161Z</time></trkpt><trkpt lat="43.8849116" lon="11.1309898"><ele>468.2</ele><time>2026-04-18T16:33:21.161Z</time></trkpt><trkpt lat="43.8848003" lon="11.1309622"><ele>466.6</ele><time>2026-04-18T16:33:22.17Z</time></trkpt><trkpt lat="43.8846938" lon="11.1309754"><ele>465.0</ele><time>2026-04-18T16:33:23.162Z</time></trkpt><trkpt lat="43.8845937" lon="11.130994"><ele>465.0</ele><time>2026-04-18T16:33:24.157Z</time></trkpt><trkpt lat="43.8845024" lon="11.1310033"><ele>465.0</ele><time>2026-04-18T16:33:25.162Z</time></trkpt><trkpt lat="43.8844322" lon="11.1310041"><ele>465.0</ele><time>2026-04-18T16:33:26.165Z</time></trkpt><trkpt lat="43.8843063" lon="11.1310123"><ele>465.0</ele><time>2026-04-18T16:33:28.17Z</time></trkpt><trkpt lat="43.8841796" lon="11.1310111"><ele>465.0</ele><time>2026-04-18T16:33:30.168Z</time></trkpt><trkpt lat="43.8840979" lon="11.1309895"><ele>463.6</ele><time>2026-04-18T16:33:31.172Z</time></trkpt><trkpt lat="43.8840157" lon="11.1309703"><ele>462.2</ele><time>2026-04-18T16:33:32.168Z</time></trkpt><trkpt lat="43.883934" lon="11.1309676"><ele>460.79999999999995</ele><time>2026-04-18T16:33:33.161Z</time></trkpt><trkpt lat="43.8838466" lon="11.1309947"><ele>459.4</ele><time>2026-04-18T16:33:35.159Z</time></trkpt><trkpt lat="43.8837578" lon="11.1310923"><ele>458.0</ele><time>2026-04-18T16:33:42.154Z</time></trkpt><trkpt lat="43.8836932" lon="11.1311626"><ele>457.99999999999994</ele><time>2026-04-18T16:33:43.157Z</time></trkpt><trkpt lat="43.883611" lon="11.1312286"><ele>458.0</ele><time>2026-04-18T16:33:44.162Z</time></trkpt><trkpt lat="43.8835234" lon="11.1312851"><ele>458.0</ele><time>2026-04-18T16:33:45.169Z</time></trkpt><trkpt lat="43.8834576" lon="11.131335"><ele>458.0</ele><time>2026-04-18T16:33:46.174Z</time></trkpt><trkpt lat="43.8833876" lon="11.1313919"><ele>457.99999999999994</ele><time>2026-04-18T16:33:47.173Z</time></trkpt><trkpt lat="43.8833264" lon="11.1314625"><ele>458.0</ele><time>2026-04-18T16:33:48.17Z</time></trkpt><trkpt lat="43.8832599" lon="11.1315231"><ele>459.1428571428571</ele><time>2026-04-18T16:33:49.166Z</time></trkpt><trkpt lat="43.8831971" lon="11.1315763"><ele>460.28571428571433</ele><time>2026-04-18T16:33:50.167Z</time></trkpt><trkpt lat="43.8831361" lon="11.1316165"><ele>461.42857142857144</ele><time>2026-04-18T16:33:51.162Z</time></trkpt><trkpt lat="43.8830664" lon="11.1316469"><ele>462.57142857142856</ele><time>2026-04-18T16:33:52.171Z</time></trkpt><trkpt lat="43.8829923" lon="11.1316742"><ele>463.71428571428567</ele><time>2026-04-18T16:33:53.165Z</time></trkpt><trkpt lat="43.8829162" lon="11.1317103"><ele>464.8571428571429</ele><time>2026-04-18T16:33:54.158Z</time></trkpt><trkpt lat="43.882841" lon="11.1317282"><ele>466.0</ele><time>2026-04-18T16:33:55.162Z</time></trkpt><trkpt lat="43.8827751" lon="11.1317681"><ele>466.00000000000006</ele><time>2026-04-18T16:33:56.167Z</time></trkpt><trkpt lat="43.8827124" lon="11.1318018"><ele>466.0</ele><time>2026-04-18T16:33:57.165Z</time></trkpt><trkpt lat="43.8826119" lon="11.1318301"><ele>466.0</ele><time>2026-04-18T16:33:59.16Z</time></trkpt><trkpt lat="43.8825304" lon="11.1318471"><ele>466.0</ele><time>2026-04-18T16:34:01.162Z</time></trkpt><trkpt lat="43.882465" lon="11.1318652"><ele>466.00000000000006</ele><time>2026-04-18T16:34:02.165Z</time></trkpt><trkpt lat="43.8824023" lon="11.1318805"><ele>466.0</ele><time>2026-04-18T16:34:03.163Z</time></trkpt><trkpt lat="43.8823049" lon="11.1318764"><ele>466.20000000000005</ele><time>2026-04-18T16:34:05.174Z</time></trkpt><trkpt lat="43.8822008" lon="11.131867"><ele>466.40000000000003</ele><time>2026-04-18T16:34:07.172Z</time></trkpt><trkpt lat="43.882102" lon="11.1318155"><ele>466.6</ele><time>2026-04-18T16:34:09.169Z</time></trkpt><trkpt lat="43.8819908" lon="11.1318036"><ele>466.8</ele><time>2026-04-18T16:34:11.164Z</time></trkpt><trkpt lat="43.8818817" lon="11.1318398"><ele>467.0</ele><time>2026-04-18T16:34:13.166Z</time></trkpt><trkpt lat="43.8817748" lon="11.1318601"><ele>465.0</ele><time>2026-04-18T16:34:15.162Z</time></trkpt><trkpt lat="43.8817112" lon="11.1318173"><ele>463.00000000000006</ele><time>2026-04-18T16:34:17.178Z</time></trkpt><trkpt lat="43.8816231" lon="11.1317535"><ele>461.00000000000006</ele><time>2026-04-18T16:34:19.173Z</time></trkpt><trkpt lat="43.8815251" lon="11.1318045"><ele>459.0</ele><time>2026-04-18T16:34:21.176Z</time></trkpt><trkpt lat="43.8814437" lon="11.1319392"><ele>457.0</ele><time>2026-04-18T16:34:23.176Z</time></trkpt><trkpt lat="43.8813885" lon="11.1320816"><ele>457.0</ele><time>2026-04-18T16:34:25.175Z</time></trkpt><trkpt lat="43.8813456" lon="11.1322158"><ele>457.00000000000006</ele><time>2026-04-18T16:34:27.18Z</time></trkpt><trkpt lat="43.8813244" lon="11.1323512"><ele>457.00000000000006</ele><time>2026-04-18T16:34:29.181Z</time></trkpt><trkpt lat="43.8812847" lon="11.132444"><ele>457.0</ele><time>2026-04-18T16:34:31.162Z</time></trkpt><trkpt lat="43.8811982" lon="11.1324181"><ele>457.0</ele><time>2026-04-18T16:34:33.175Z</time></trkpt><trkpt lat="43.8810967" lon="11.1323479"><ele>457.00000000000006</ele><time>2026-04-18T16:34:35.177Z</time></trkpt><trkpt lat="43.8810308" lon="11.1323226"><ele>457.0</ele><time>2026-04-18T16:34:36.177Z</time></trkpt><trkpt lat="43.8809608" lon="11.1323078"><ele>457.0</ele><time>2026-04-18T16:34:37.172Z</time></trkpt><trkpt lat="43.8808853" lon="11.1322968"><ele>457.0</ele><time>2026-04-18T16:34:38.183Z</time></trkpt><trkpt lat="43.8808134" lon="11.1322884"><ele>457.00000000000006</ele><time>2026-04-18T16:34:39.183Z</time></trkpt><trkpt lat="43.8807416" lon="11.1322919"><ele>457.0</ele><time>2026-04-18T16:34:40.169Z</time></trkpt><trkpt lat="43.880635" lon="11.1322296"><ele>454.83333333333337</ele><time>2026-04-18T16:34:42.168Z</time></trkpt><trkpt lat="43.8805588" lon="11.132271"><ele>452.6666666666667</ele><time>2026-04-18T16:34:45.161Z</time></trkpt><trkpt lat="43.8805748" lon="11.1324002"><ele>450.5</ele><time>2026-04-18T16:34:47.165Z</time></trkpt><trkpt lat="43.8805871" lon="11.1325139"><ele>448.33333333333337</ele><time>2026-04-18T16:34:48.163Z</time></trkpt><trkpt lat="43.8805967" lon="11.1326287"><ele>446.1666666666667</ele><time>2026-04-18T16:34:49.162Z</time></trkpt><trkpt lat="43.8806065" lon="11.1327665"><ele>444.0</ele><time>2026-04-18T16:34:50.156Z</time></trkpt><trkpt lat="43.8806098" lon="11.1329311"><ele>443.0</ele><time>2026-04-18T16:34:51.155Z</time></trkpt><trkpt lat="43.8806115" lon="11.1330942"><ele>442.0</ele><time>2026-04-18T16:34:52.154Z</time></trkpt><trkpt lat="43.880616" lon="11.1332153"><ele>441.0</ele><time>2026-04-18T16:34:53.151Z</time></trkpt><trkpt lat="43.8806225" lon="11.1333048"><ele>440.0</ele><time>2026-04-18T16:34:54.156Z</time></trkpt><trkpt lat="43.8805898" lon="11.1334126"><ele>439.0</ele><time>2026-04-18T16:34:56.159Z</time></trkpt><trkpt lat="43.8804732" lon="11.133432"><ele>437.6</ele><time>2026-04-18T16:34:58.164Z</time></trkpt><trkpt lat="43.8804117" lon="11.1334093"><ele>436.2</ele><time>2026-04-18T16:34:59.177Z</time></trkpt><trkpt lat="43.8803031" lon="11.1333867"><ele>434.80000000000007</ele><time>2026-04-18T16:35:01.179Z</time></trkpt><trkpt lat="43.8802088" lon="11.1333785"><ele>433.40000000000003</ele><time>2026-04-18T16:35:03.176Z</time></trkpt><trkpt lat="43.8801112" lon="11.1332926"><ele>432.0</ele><time>2026-04-18T16:35:05.179Z</time></trkpt><trkpt lat="43.8800191" lon="11.1332072"><ele>430.40000000000003</ele><time>2026-04-18T16:35:07.186Z</time></trkpt><trkpt lat="43.879933" lon="11.1331526"><ele>428.80000000000007</ele><time>2026-04-18T16:35:09.181Z</time></trkpt><trkpt lat="43.8798287" lon="11.1331086"><ele>427.2</ele><time>2026-04-18T16:35:11.184Z</time></trkpt><trkpt lat="43.8797497" lon="11.1330628"><ele>425.6</ele><time>2026-04-18T16:35:13.18Z</time></trkpt><trkpt lat="43.8796683" lon="11.1330522"><ele>424.0</ele><time>2026-04-18T16:35:15.186Z</time></trkpt><trkpt lat="43.8795536" lon="11.133042"><ele>424.00000000000006</ele><time>2026-04-18T16:35:17.186Z</time></trkpt><trkpt lat="43.8794228" lon="11.1330153"><ele>424.0</ele><time>2026-04-18T16:35:19.173Z</time></trkpt><trkpt lat="43.8793513" lon="11.1330007"><ele>424.0</ele><time>2026-04-18T16:35:20.176Z</time></trkpt><trkpt lat="43.8792788" lon="11.1329907"><ele>424.0</ele><time>2026-04-18T16:35:21.176Z</time></trkpt><trkpt lat="43.8792086" lon="11.1329745"><ele>424.00000000000006</ele><time>2026-04-18T16:35:22.178Z</time></trkpt><trkpt lat="43.8791455" lon="11.1329409"><ele>424.0</ele><time>2026-04-18T16:35:23.171Z</time></trkpt><trkpt lat="43.8790561" lon="11.1328676"><ele>421.79999999999995</ele><time>2026-04-18T16:35:25.177Z</time></trkpt><trkpt lat="43.8789691" lon="11.1328716"><ele>419.59999999999997</ele><time>2026-04-18T16:35:28.183Z</time></trkpt><trkpt lat="43.8788974" lon="11.1328655"><ele>417.4</ele><time>2026-04-18T16:35:30.187Z</time></trkpt><trkpt lat="43.8788074" lon="11.1328643"><ele>415.2</ele><time>2026-04-18T16:35:32.175Z</time></trkpt><trkpt lat="43.8787006" lon="11.1328921"><ele>413.0</ele><time>2026-04-18T16:35:34.176Z</time></trkpt><trkpt lat="43.8785975" lon="11.1329003"><ele>413.0</ele><time>2026-04-18T16:35:36.173Z</time></trkpt><trkpt lat="43.87848" lon="11.1328619"><ele>413.0</ele><time>2026-04-18T16:35:38.177Z</time></trkpt><trkpt lat="43.8783881" lon="11.1328223"><ele>413.0</ele><time>2026-04-18T16:35:40.181Z</time></trkpt><trkpt lat="43.8783153" lon="11.1327843"><ele>413.0</ele><time>2026-04-18T16:35:42.169Z</time></trkpt><trkpt lat="43.8782236" lon="11.1327708"><ele>413.0</ele><time>2026-04-18T16:35:44.178Z</time></trkpt><trkpt lat="43.8781576" lon="11.1327116"><ele>411.2</ele><time>2026-04-18T16:35:46.176Z</time></trkpt><trkpt lat="43.8780899" lon="11.1326361"><ele>409.4</ele><time>2026-04-18T16:35:48.171Z</time></trkpt><trkpt lat="43.8779883" lon="11.1325442"><ele>407.59999999999997</ele><time>2026-04-18T16:35:50.172Z</time></trkpt><trkpt lat="43.8779258" lon="11.1324944"><ele>405.79999999999995</ele><time>2026-04-18T16:35:51.175Z</time></trkpt><trkpt lat="43.8778227" lon="11.1324245"><ele>404.0</ele><time>2026-04-18T16:35:53.168Z</time></trkpt><trkpt lat="43.877741" lon="11.1323342"><ele>402.16666666666663</ele><time>2026-04-18T16:35:55.172Z</time></trkpt><trkpt lat="43.8777117" lon="11.1322563"><ele>400.3333333333333</ele><time>2026-04-18T16:35:57.162Z</time></trkpt><trkpt lat="43.8776879" lon="11.1321613"><ele>398.5</ele><time>2026-04-18T16:35:59.16Z</time></trkpt><trkpt lat="43.8776387" lon="11.1320532"><ele>396.66666666666663</ele><time>2026-04-18T16:36:01.157Z</time></trkpt><trkpt lat="43.8775846" lon="11.1319689"><ele>394.8333333333333</ele><time>2026-04-18T16:36:03.162Z</time></trkpt><trkpt lat="43.8775248" lon="11.1318774"><ele>393.0</ele><time>2026-04-18T16:36:05.154Z</time></trkpt><trkpt lat="43.877469" lon="11.131804"><ele>391.0</ele><time>2026-04-18T16:36:07.152Z</time></trkpt><trkpt lat="43.8773856" lon="11.1318405"><ele>389.0</ele><time>2026-04-18T16:36:10.16Z</time></trkpt><trkpt lat="43.877297" lon="11.1319053"><ele>387.0</ele><time>2026-04-18T16:36:12.182Z</time></trkpt><trkpt lat="43.8772128" lon="11.1319066"><ele>385.0</ele><time>2026-04-18T16:36:14.173Z</time></trkpt><trkpt lat="43.8771222" lon="11.1319293"><ele>383.0</ele><time>2026-04-18T16:36:17.174Z</time></trkpt><trkpt lat="43.8770393" lon="11.1320088"><ele>383.0</ele><time>2026-04-18T16:36:19.173Z</time></trkpt><trkpt lat="43.8769788" lon="11.1321566"><ele>383.0</ele><time>2026-04-18T16:36:21.162Z</time></trkpt><trkpt lat="43.8769521" lon="11.1322524"><ele>383.0</ele><time>2026-04-18T16:36:22.165Z</time></trkpt><trkpt lat="43.8769284" lon="11.1323602"><ele>383.0</ele><time>2026-04-18T16:36:23.16Z</time></trkpt><trkpt lat="43.8769067" lon="11.1324856"><ele>383.0</ele><time>2026-04-18T16:36:24.168Z</time></trkpt><trkpt lat="43.8768927" lon="11.1326137"><ele>384.0</ele><time>2026-04-18T16:36:25.161Z</time></trkpt><trkpt lat="43.8768911" lon="11.1327254"><ele>385.0</ele><time>2026-04-18T16:36:26.153Z</time></trkpt><trkpt lat="43.8768918" lon="11.1328163"><ele>386.0</ele><time>2026-04-18T16:36:27.158Z</time></trkpt><trkpt lat="43.8768529" lon="11.132959"><ele>387.0</ele><time>2026-04-18T16:36:29.151Z</time></trkpt><trkpt lat="43.8767822" lon="11.1330343"><ele>388.0</ele><time>2026-04-18T16:36:30.151Z</time></trkpt><trkpt lat="43.8766974" lon="11.1331319"><ele>386.00000000000006</ele><time>2026-04-18T16:36:31.155Z</time></trkpt><trkpt lat="43.8766135" lon="11.1332308"><ele>384.0</ele><time>2026-04-18T16:36:32.155Z</time></trkpt><trkpt lat="43.8765364" lon="11.1333189"><ele>382.0</ele><time>2026-04-18T16:36:33.156Z</time></trkpt><trkpt lat="43.8764737" lon="11.1333956"><ele>380.0</ele><time>2026-04-18T16:36:34.155Z</time></trkpt><trkpt lat="43.8764182" lon="11.133449"><ele>378.0</ele><time>2026-04-18T16:36:35.154Z</time></trkpt><trkpt lat="43.8763657" lon="11.1335033"><ele>376.0</ele><time>2026-04-18T16:36:36.155Z</time></trkpt><trkpt lat="43.8763134" lon="11.1335666"><ele>376.0</ele><time>2026-04-18T16:36:37.161Z</time></trkpt><trkpt lat="43.8762543" lon="11.1336266"><ele>376.0</ele><time>2026-04-18T16:36:38.169Z</time></trkpt><trkpt lat="43.876186" lon="11.1336813"><ele>376.0</ele><time>2026-04-18T16:36:39.164Z</time></trkpt><trkpt lat="43.8760935" lon="11.1337392"><ele>376.0</ele><time>2026-04-18T16:36:41.158Z</time></trkpt><trkpt lat="43.8759887" lon="11.1337366"><ele>376.0</ele><time>2026-04-18T16:36:43.177Z</time></trkpt><trkpt lat="43.8759038" lon="11.1337393"><ele>376.0</ele><time>2026-04-18T16:36:44.165Z</time></trkpt><trkpt lat="43.8758346" lon="11.1337325"><ele>375.8333333333333</ele><time>2026-04-18T16:36:45.17Z</time></trkpt><trkpt lat="43.8757666" lon="11.133718"><ele>375.66666666666663</ele><time>2026-04-18T16:36:46.175Z</time></trkpt><trkpt lat="43.8757024" lon="11.1337225"><ele>375.5</ele><time>2026-04-18T16:36:47.173Z</time></trkpt><trkpt lat="43.875576" lon="11.1337227"><ele>375.3333333333333</ele><time>2026-04-18T16:36:49.177Z</time></trkpt><trkpt lat="43.8755098" lon="11.1337029"><ele>375.1666666666667</ele><time>2026-04-18T16:36:50.176Z</time></trkpt><trkpt lat="43.8754398" lon="11.1336908"><ele>375.0</ele><time>2026-04-18T16:36:51.167Z</time></trkpt><trkpt lat="43.8753588" lon="11.1336863"><ele>375.0</ele><time>2026-04-18T16:36:52.168Z</time></trkpt><trkpt lat="43.8752648" lon="11.1336937"><ele>375.0</ele><time>2026-04-18T16:36:53.167Z</time></trkpt><trkpt lat="43.8751611" lon="11.1337007"><ele>375.0</ele><time>2026-04-18T16:36:54.176Z</time></trkpt><trkpt lat="43.8750513" lon="11.1337047"><ele>375.0</ele><time>2026-04-18T16:36:55.168Z</time></trkpt><trkpt lat="43.8749624" lon="11.1336813"><ele>375.0</ele><time>2026-04-18T16:36:56.167Z</time></trkpt><trkpt lat="43.8748808" lon="11.1336659"><ele>374.1666666666667</ele><time>2026-04-18T16:36:57.183Z</time></trkpt><trkpt lat="43.8748139" lon="11.1336637"><ele>373.3333333333333</ele><time>2026-04-18T16:36:58.167Z</time></trkpt><trkpt lat="43.8747496" lon="11.1337045"><ele>372.5</ele><time>2026-04-18T16:36:59.161Z</time></trkpt><trkpt lat="43.8746789" lon="11.1337691"><ele>371.66666666666663</ele><time>2026-04-18T16:37:00.174Z</time></trkpt><trkpt lat="43.874608" lon="11.1338437"><ele>370.8333333333333</ele><time>2026-04-18T16:37:01.17Z</time></trkpt><trkpt lat="43.8745328" lon="11.1339278"><ele>370.0</ele><time>2026-04-18T16:37:02.171Z</time></trkpt><trkpt lat="43.8744574" lon="11.1340292"><ele>369.6</ele><time>2026-04-18T16:37:03.168Z</time></trkpt><trkpt lat="43.874385" lon="11.1341264"><ele>369.2</ele><time>2026-04-18T16:37:04.167Z</time></trkpt><trkpt lat="43.8743191" lon="11.1342247"><ele>368.79999999999995</ele><time>2026-04-18T16:37:05.17Z</time></trkpt><trkpt lat="43.8742598" lon="11.1343075"><ele>368.4</ele><time>2026-04-18T16:37:06.169Z</time></trkpt><trkpt lat="43.8742035" lon="11.1343786"><ele>368.0</ele><time>2026-04-18T16:37:07.171Z</time></trkpt><trkpt lat="43.8741426" lon="11.1345166"><ele>368.0</ele><time>2026-04-18T16:37:09.161Z</time></trkpt><trkpt lat="43.8741534" lon="11.1346864"><ele>368.0</ele><time>2026-04-18T16:37:11.156Z</time></trkpt><trkpt lat="43.8741891" lon="11.1347994"><ele>368.0</ele><time>2026-04-18T16:37:12.165Z</time></trkpt><trkpt lat="43.874224" lon="11.1349318"><ele>368.0</ele><time>2026-04-18T16:37:13.162Z</time></trkpt><trkpt lat="43.8742566" lon="11.1350826"><ele>368.0</ele><time>2026-04-18T16:37:14.179Z</time></trkpt><trkpt lat="43.8742955" lon="11.1352413"><ele>369.2</ele><time>2026-04-18T16:37:15.164Z</time></trkpt><trkpt lat="43.8743237" lon="11.135394"><ele>370.4</ele><time>2026-04-18T16:37:16.164Z</time></trkpt><trkpt lat="43.8743402" lon="11.1355128"><ele>371.59999999999997</ele><time>2026-04-18T16:37:17.169Z</time></trkpt><trkpt lat="43.8743504" lon="11.135639"><ele>372.79999999999995</ele><time>2026-04-18T16:37:18.168Z</time></trkpt><trkpt lat="43.8743552" lon="11.1357703"><ele>374.0</ele><time>2026-04-18T16:37:19.172Z</time></trkpt><trkpt lat="43.8743603" lon="11.1358781"><ele>374.2</ele><time>2026-04-18T16:37:20.163Z</time></trkpt><trkpt lat="43.8743585" lon="11.1359849"><ele>374.4</ele><time>2026-04-18T16:37:21.165Z</time></trkpt><trkpt lat="43.8743447" lon="11.1360863"><ele>374.6</ele><time>2026-04-18T16:37:22.166Z</time></trkpt><trkpt lat="43.8743447" lon="11.1361964"><ele>374.8</ele><time>2026-04-18T16:37:23.161Z</time></trkpt><trkpt lat="43.8743441" lon="11.1363289"><ele>375.0</ele><time>2026-04-18T16:37:24.162Z</time></trkpt><trkpt lat="43.8743431" lon="11.1365033"><ele>374.2</ele><time>2026-04-18T16:37:25.159Z</time></trkpt><trkpt lat="43.8743517" lon="11.1366929"><ele>373.4</ele><time>2026-04-18T16:37:26.168Z</time></trkpt><trkpt lat="43.8743566" lon="11.1368582"><ele>372.6</ele><time>2026-04-18T16:37:27.168Z</time></trkpt><trkpt lat="43.874353" lon="11.1370031"><ele>371.8</ele><time>2026-04-18T16:37:28.157Z</time></trkpt><trkpt lat="43.8743291" lon="11.1371037"><ele>371.0</ele><time>2026-04-18T16:37:29.164Z</time></trkpt><trkpt lat="43.8742904" lon="11.1372054"><ele>373.4</ele><time>2026-04-18T16:37:30.161Z</time></trkpt><trkpt lat="43.8742345" lon="11.1372817"><ele>375.8</ele><time>2026-04-18T16:37:31.154Z</time></trkpt><trkpt lat="43.8741356" lon="11.1373476"><ele>378.2</ele><time>2026-04-18T16:37:32.156Z</time></trkpt><trkpt lat="43.8740232" lon="11.1374028"><ele>380.59999999999997</ele><time>2026-04-18T16:37:33.159Z</time></trkpt><trkpt lat="43.8739245" lon="11.1374506"><ele>383.0</ele><time>2026-04-18T16:37:34.158Z</time></trkpt><trkpt lat="43.873849" lon="11.137519"><ele>383.0</ele><time>2026-04-18T16:37:35.153Z</time></trkpt><trkpt lat="43.8738002" lon="11.1376069"><ele>383.0</ele><time>2026-04-18T16:37:36.166Z</time></trkpt><trkpt lat="43.8737694" lon="11.1377572"><ele>383.0</ele><time>2026-04-18T16:37:38.162Z</time></trkpt><trkpt lat="43.873669" lon="11.1377337"><ele>383.0</ele><time>2026-04-18T16:37:40.156Z</time></trkpt><trkpt lat="43.8736115" lon="11.1376846"><ele>383.0</ele><time>2026-04-18T16:37:41.161Z</time></trkpt><trkpt lat="43.8735539" lon="11.137621"><ele>383.0</ele><time>2026-04-18T16:37:42.17Z</time></trkpt><trkpt lat="43.8734807" lon="11.1375273"><ele>383.2</ele><time>2026-04-18T16:37:44.166Z</time></trkpt><trkpt lat="43.873402" lon="11.1374462"><ele>383.4</ele><time>2026-04-18T16:37:46.168Z</time></trkpt><trkpt lat="43.8733169" lon="11.137347"><ele>383.59999999999997</ele><time>2026-04-18T16:37:48.159Z</time></trkpt><trkpt lat="43.8732314" lon="11.1372178"><ele>383.79999999999995</ele><time>2026-04-18T16:37:50.164Z</time></trkpt><trkpt lat="43.8731683" lon="11.1370877"><ele>384.0</ele><time>2026-04-18T16:37:52.168Z</time></trkpt><trkpt lat="43.873115" lon="11.1369542"><ele>386.25</ele><time>2026-04-18T16:37:54.173Z</time></trkpt><trkpt lat="43.8730726" lon="11.1367949"><ele>388.5</ele><time>2026-04-18T16:37:56.172Z</time></trkpt><trkpt lat="43.8730499" lon="11.1366389"><ele>390.75</ele><time>2026-04-18T16:37:58.178Z</time></trkpt><trkpt lat="43.87302" lon="11.1364842"><ele>393.0</ele><time>2026-04-18T16:38:00.171Z</time></trkpt><trkpt lat="43.8729264" lon="11.1364353"><ele>393.00000000000006</ele><time>2026-04-18T16:38:02.172Z</time></trkpt><trkpt lat="43.8728523" lon="11.136446"><ele>393.0</ele><time>2026-04-18T16:38:03.177Z</time></trkpt><trkpt lat="43.8727806" lon="11.1364468"><ele>393.0</ele><time>2026-04-18T16:38:04.171Z</time></trkpt><trkpt lat="43.8727158" lon="11.1364312"><ele>393.0</ele><time>2026-04-18T16:38:05.174Z</time></trkpt><trkpt lat="43.8726473" lon="11.1363816"><ele>393.0</ele><time>2026-04-18T16:38:06.173Z</time></trkpt><trkpt lat="43.8725942" lon="11.1363035"><ele>393.00000000000006</ele><time>2026-04-18T16:38:07.184Z</time></trkpt><trkpt lat="43.872546" lon="11.1362427"><ele>393.0</ele><time>2026-04-18T16:38:08.177Z</time></trkpt><trkpt lat="43.8724692" lon="11.1361821"><ele>387.0</ele><time>2026-04-18T16:38:10.176Z</time></trkpt><trkpt lat="43.8723954" lon="11.1361501"><ele>387.0</ele><time>2026-04-18T16:38:13.184Z</time></trkpt><trkpt lat="43.8723317" lon="11.1361149"><ele>387.0</ele><time>2026-04-18T16:38:16.203Z</time></trkpt></trkseg></trk></gpx>